<?xml version="1.0" encoding="UTF-8" standalone="no" ?>
<gpx xmlns="http://www.topografix.com/GPX/1/1" xmlns:xsi="http://www.w3.org/2001/XMLSchema-instance" xsi:schemaLocation="http://www.topografix.com/GPX/1/1 http://www.topografix.com/GPX/1/1/gpx.xsd" version="1.1" creator="VisuGPX - https://www.visugpx.com">
  <metadata>
    <name>9549244-2019 j1 expert</name>
  </metadata>
  <trk>
    <name><![CDATA[9549244-2019 j1 expert]]></name>
    <trkseg>
      <trkpt lat="46.07837" lon="6.72606">
        <ele>704</ele>
        <time>2019-05-24T06:31:49Z</time>
      </trkpt>
      <trkpt lat="46.07863" lon="6.72539">
        <ele>703</ele>
        <time>2019-05-24T06:31:58Z</time>
      </trkpt>
      <trkpt lat="46.07809" lon="6.72494">
        <ele>702</ele>
        <time>2019-05-24T06:32:10Z</time>
      </trkpt>
      <trkpt lat="46.07797" lon="6.72476">
        <ele>701</ele>
        <time>2019-05-24T06:32:13Z</time>
      </trkpt>
      <trkpt lat="46.07791" lon="6.7246">
        <ele>701</ele>
        <time>2019-05-24T06:32:15Z</time>
      </trkpt>
      <trkpt lat="46.07665" lon="6.72013">
        <ele>700</ele>
        <time>2019-05-24T06:33:14Z</time>
      </trkpt>
      <trkpt lat="46.07663" lon="6.71998">
        <ele>700</ele>
        <time>2019-05-24T06:33:16Z</time>
      </trkpt>
      <trkpt lat="46.07664" lon="6.71979">
        <ele>700</ele>
        <time>2019-05-24T06:33:19Z</time>
      </trkpt>
      <trkpt lat="46.07682" lon="6.71945">
        <ele>698</ele>
        <time>2019-05-24T06:33:24Z</time>
      </trkpt>
      <trkpt lat="46.07688" lon="6.71938">
        <ele>698</ele>
        <time>2019-05-24T06:33:25Z</time>
      </trkpt>
      <trkpt lat="46.07693" lon="6.71936">
        <ele>697</ele>
        <time>2019-05-24T06:33:26Z</time>
      </trkpt>
      <trkpt lat="46.07698" lon="6.7193">
        <ele>697</ele>
        <time>2019-05-24T06:33:27Z</time>
      </trkpt>
      <trkpt lat="46.07699" lon="6.71923">
        <ele>697</ele>
        <time>2019-05-24T06:33:28Z</time>
      </trkpt>
      <trkpt lat="46.07698" lon="6.71916">
        <ele>697</ele>
        <time>2019-05-24T06:33:29Z</time>
      </trkpt>
      <trkpt lat="46.07691" lon="6.71907">
        <ele>697</ele>
        <time>2019-05-24T06:33:31Z</time>
      </trkpt>
      <trkpt lat="46.07685" lon="6.71908">
        <ele>697</ele>
        <time>2019-05-24T06:33:32Z</time>
      </trkpt>
      <trkpt lat="46.07672" lon="6.71902">
        <ele>698</ele>
        <time>2019-05-24T06:33:34Z</time>
      </trkpt>
      <trkpt lat="46.07644" lon="6.71882">
        <ele>707</ele>
        <time>2019-05-24T06:33:40Z</time>
      </trkpt>
      <trkpt lat="46.07599" lon="6.71838">
        <ele>726</ele>
        <time>2019-05-24T06:33:50Z</time>
      </trkpt>
      <trkpt lat="46.07591" lon="6.71834">
        <ele>730</ele>
        <time>2019-05-24T06:33:51Z</time>
      </trkpt>
      <trkpt lat="46.07586" lon="6.71828">
        <ele>733</ele>
        <time>2019-05-24T06:33:52Z</time>
      </trkpt>
      <trkpt lat="46.07585" lon="6.71812">
        <ele>736</ele>
        <time>2019-05-24T06:33:54Z</time>
      </trkpt>
      <trkpt lat="46.07607" lon="6.7165">
        <ele>739</ele>
        <time>2019-05-24T06:34:15Z</time>
      </trkpt>
      <trkpt lat="46.0761" lon="6.71613">
        <ele>738</ele>
        <time>2019-05-24T06:34:19Z</time>
      </trkpt>
      <trkpt lat="46.0761" lon="6.7158">
        <ele>739</ele>
        <time>2019-05-24T06:34:23Z</time>
      </trkpt>
      <trkpt lat="46.07606" lon="6.71557">
        <ele>742</ele>
        <time>2019-05-24T06:34:26Z</time>
      </trkpt>
      <trkpt lat="46.07587" lon="6.71508">
        <ele>753</ele>
        <time>2019-05-24T06:34:33Z</time>
      </trkpt>
      <trkpt lat="46.07583" lon="6.71492">
        <ele>754</ele>
        <time>2019-05-24T06:34:35Z</time>
      </trkpt>
      <trkpt lat="46.07583" lon="6.71476">
        <ele>753</ele>
        <time>2019-05-24T06:34:37Z</time>
      </trkpt>
      <trkpt lat="46.07592" lon="6.71415">
        <ele>743</ele>
        <time>2019-05-24T06:34:45Z</time>
      </trkpt>
      <trkpt lat="46.07592" lon="6.71399">
        <ele>743</ele>
        <time>2019-05-24T06:34:47Z</time>
      </trkpt>
      <trkpt lat="46.07588" lon="6.71391">
        <ele>744</ele>
        <time>2019-05-24T06:34:48Z</time>
      </trkpt>
      <trkpt lat="46.07582" lon="6.71387">
        <ele>746</ele>
        <time>2019-05-24T06:34:49Z</time>
      </trkpt>
      <trkpt lat="46.07576" lon="6.71387">
        <ele>748</ele>
        <time>2019-05-24T06:34:50Z</time>
      </trkpt>
      <trkpt lat="46.0757" lon="6.71391">
        <ele>751</ele>
        <time>2019-05-24T06:34:52Z</time>
      </trkpt>
      <trkpt lat="46.07566" lon="6.71399">
        <ele>754</ele>
        <time>2019-05-24T06:34:53Z</time>
      </trkpt>
      <trkpt lat="46.07563" lon="6.71415">
        <ele>757</ele>
        <time>2019-05-24T06:34:55Z</time>
      </trkpt>
      <trkpt lat="46.07564" lon="6.71447">
        <ele>760</ele>
        <time>2019-05-24T06:34:59Z</time>
      </trkpt>
      <trkpt lat="46.07561" lon="6.71461">
        <ele>763</ele>
        <time>2019-05-24T06:35:01Z</time>
      </trkpt>
      <trkpt lat="46.07557" lon="6.71466">
        <ele>766</ele>
        <time>2019-05-24T06:35:01Z</time>
      </trkpt>
      <trkpt lat="46.07548" lon="6.71465">
        <ele>770</ele>
        <time>2019-05-24T06:35:03Z</time>
      </trkpt>
      <trkpt lat="46.07542" lon="6.71456">
        <ele>772</ele>
        <time>2019-05-24T06:35:05Z</time>
      </trkpt>
      <trkpt lat="46.07539" lon="6.71441">
        <ele>772</ele>
        <time>2019-05-24T06:35:07Z</time>
      </trkpt>
      <trkpt lat="46.0754" lon="6.71328">
        <ele>756</ele>
        <time>2019-05-24T06:35:21Z</time>
      </trkpt>
      <trkpt lat="46.07551" lon="6.71094">
        <ele>756</ele>
        <time>2019-05-24T06:35:49Z</time>
      </trkpt>
      <trkpt lat="46.07532" lon="6.71016">
        <ele>760</ele>
        <time>2019-05-24T06:36:00Z</time>
      </trkpt>
      <trkpt lat="46.07516" lon="6.70892">
        <ele>764</ele>
        <time>2019-05-24T06:36:15Z</time>
      </trkpt>
      <trkpt lat="46.07508" lon="6.70765">
        <ele>767</ele>
        <time>2019-05-24T06:36:31Z</time>
      </trkpt>
      <trkpt lat="46.07447" lon="6.70657">
        <ele>777</ele>
        <time>2019-05-24T06:36:48Z</time>
      </trkpt>
      <trkpt lat="46.07443" lon="6.70627">
        <ele>779</ele>
        <time>2019-05-24T06:36:52Z</time>
      </trkpt>
      <trkpt lat="46.07445" lon="6.70606">
        <ele>780</ele>
        <time>2019-05-24T06:36:55Z</time>
      </trkpt>
      <trkpt lat="46.07452" lon="6.70585">
        <ele>780</ele>
        <time>2019-05-24T06:36:57Z</time>
      </trkpt>
      <trkpt lat="46.0747" lon="6.70543">
        <ele>780</ele>
        <time>2019-05-24T06:37:04Z</time>
      </trkpt>
      <trkpt lat="46.07476" lon="6.70514">
        <ele>781</ele>
        <time>2019-05-24T06:37:07Z</time>
      </trkpt>
      <trkpt lat="46.07474" lon="6.70476">
        <ele>782</ele>
        <time>2019-05-24T06:37:12Z</time>
      </trkpt>
      <trkpt lat="46.07465" lon="6.70421">
        <ele>785</ele>
        <time>2019-05-24T06:37:19Z</time>
      </trkpt>
      <trkpt lat="46.07474" lon="6.70418">
        <ele>784</ele>
        <time>2019-05-24T06:37:21Z</time>
      </trkpt>
      <trkpt lat="46.075" lon="6.70421">
        <ele>780</ele>
        <time>2019-05-24T06:37:25Z</time>
      </trkpt>
      <trkpt lat="46.07516" lon="6.70415">
        <ele>779</ele>
        <time>2019-05-24T06:37:28Z</time>
      </trkpt>
      <trkpt lat="46.07529" lon="6.70397">
        <ele>780</ele>
        <time>2019-05-24T06:37:31Z</time>
      </trkpt>
      <trkpt lat="46.07538" lon="6.70375">
        <ele>782</ele>
        <time>2019-05-24T06:37:35Z</time>
      </trkpt>
      <trkpt lat="46.07557" lon="6.70256">
        <ele>782</ele>
        <time>2019-05-24T06:37:50Z</time>
      </trkpt>
      <trkpt lat="46.07572" lon="6.70216">
        <ele>778</ele>
        <time>2019-05-24T06:37:55Z</time>
      </trkpt>
      <trkpt lat="46.07612" lon="6.70158">
        <ele>764</ele>
        <time>2019-05-24T06:38:05Z</time>
      </trkpt>
      <trkpt lat="46.07622" lon="6.70128">
        <ele>759</ele>
        <time>2019-05-24T06:38:09Z</time>
      </trkpt>
      <trkpt lat="46.07626" lon="6.70085">
        <ele>754</ele>
        <time>2019-05-24T06:38:15Z</time>
      </trkpt>
      <trkpt lat="46.07623" lon="6.7006">
        <ele>752</ele>
        <time>2019-05-24T06:38:18Z</time>
      </trkpt>
      <trkpt lat="46.07605" lon="6.70004">
        <ele>752</ele>
        <time>2019-05-24T06:38:26Z</time>
      </trkpt>
      <trkpt lat="46.07597" lon="6.69975">
        <ele>752</ele>
        <time>2019-05-24T06:38:29Z</time>
      </trkpt>
      <trkpt lat="46.07592" lon="6.69936">
        <ele>752</ele>
        <time>2019-05-24T06:38:34Z</time>
      </trkpt>
      <trkpt lat="46.07579" lon="6.69893">
        <ele>755</ele>
        <time>2019-05-24T06:38:40Z</time>
      </trkpt>
      <trkpt lat="46.07566" lon="6.69864">
        <ele>757</ele>
        <time>2019-05-24T06:38:44Z</time>
      </trkpt>
      <trkpt lat="46.07545" lon="6.69785">
        <ele>750</ele>
        <time>2019-05-24T06:38:55Z</time>
      </trkpt>
      <trkpt lat="46.0754" lon="6.69706">
        <ele>739</ele>
        <time>2019-05-24T06:39:05Z</time>
      </trkpt>
      <trkpt lat="46.07539" lon="6.6967">
        <ele>734</ele>
        <time>2019-05-24T06:39:09Z</time>
      </trkpt>
      <trkpt lat="46.07545" lon="6.69619">
        <ele>729</ele>
        <time>2019-05-24T06:39:15Z</time>
      </trkpt>
      <trkpt lat="46.07544" lon="6.69562">
        <ele>727</ele>
        <time>2019-05-24T06:39:22Z</time>
      </trkpt>
      <trkpt lat="46.07548" lon="6.69516">
        <ele>725</ele>
        <time>2019-05-24T06:39:28Z</time>
      </trkpt>
      <trkpt lat="46.07555" lon="6.69504">
        <ele>723</ele>
        <time>2019-05-24T06:39:30Z</time>
      </trkpt>
      <trkpt lat="46.07601" lon="6.69461">
        <ele>711</ele>
        <time>2019-05-24T06:39:40Z</time>
      </trkpt>
      <trkpt lat="46.07611" lon="6.69445">
        <ele>710</ele>
        <time>2019-05-24T06:39:42Z</time>
      </trkpt>
      <trkpt lat="46.07692" lon="6.69264">
        <ele>700</ele>
        <time>2019-05-24T06:40:09Z</time>
      </trkpt>
      <trkpt lat="46.07719" lon="6.69214">
        <ele>700</ele>
        <time>2019-05-24T06:40:17Z</time>
      </trkpt>
      <trkpt lat="46.07762" lon="6.69151">
        <ele>701</ele>
        <time>2019-05-24T06:40:28Z</time>
      </trkpt>
      <trkpt lat="46.07786" lon="6.69111">
        <ele>702</ele>
        <time>2019-05-24T06:40:34Z</time>
      </trkpt>
      <trkpt lat="46.07801" lon="6.69095">
        <ele>702</ele>
        <time>2019-05-24T06:40:38Z</time>
      </trkpt>
      <trkpt lat="46.07831" lon="6.6907">
        <ele>703</ele>
        <time>2019-05-24T06:40:44Z</time>
      </trkpt>
      <trkpt lat="46.07842" lon="6.69037">
        <ele>705</ele>
        <time>2019-05-24T06:40:48Z</time>
      </trkpt>
      <trkpt lat="46.07849" lon="6.68971">
        <ele>710</ele>
        <time>2019-05-24T06:40:57Z</time>
      </trkpt>
      <trkpt lat="46.07863" lon="6.68888">
        <ele>716</ele>
        <time>2019-05-24T06:41:07Z</time>
      </trkpt>
      <trkpt lat="46.07878" lon="6.68832">
        <ele>719</ele>
        <time>2019-05-24T06:41:15Z</time>
      </trkpt>
      <trkpt lat="46.07919" lon="6.68714">
        <ele>714</ele>
        <time>2019-05-24T06:41:31Z</time>
      </trkpt>
      <trkpt lat="46.07945" lon="6.68678">
        <ele>711</ele>
        <time>2019-05-24T06:41:37Z</time>
      </trkpt>
      <trkpt lat="46.0796" lon="6.68648">
        <ele>710</ele>
        <time>2019-05-24T06:41:42Z</time>
      </trkpt>
      <trkpt lat="46.0797" lon="6.68617">
        <ele>708</ele>
        <time>2019-05-24T06:41:46Z</time>
      </trkpt>
      <trkpt lat="46.08102" lon="6.68469">
        <ele>696</ele>
        <time>2019-05-24T06:42:16Z</time>
      </trkpt>
      <trkpt lat="46.08113" lon="6.68422">
        <ele>695</ele>
        <time>2019-05-24T06:42:22Z</time>
      </trkpt>
      <trkpt lat="46.08122" lon="6.68396">
        <ele>694</ele>
        <time>2019-05-24T06:42:25Z</time>
      </trkpt>
      <trkpt lat="46.0814" lon="6.68395">
        <ele>692</ele>
        <time>2019-05-24T06:42:29Z</time>
      </trkpt>
      <trkpt lat="46.08144" lon="6.68372">
        <ele>692</ele>
        <time>2019-05-24T06:42:32Z</time>
      </trkpt>
      <trkpt lat="46.08151" lon="6.68344">
        <ele>691</ele>
        <time>2019-05-24T06:42:35Z</time>
      </trkpt>
      <trkpt lat="46.08163" lon="6.68227">
        <ele>687</ele>
        <time>2019-05-24T06:42:50Z</time>
      </trkpt>
      <trkpt lat="46.08165" lon="6.68185">
        <ele>687</ele>
        <time>2019-05-24T06:42:55Z</time>
      </trkpt>
      <trkpt lat="46.08168" lon="6.68152">
        <ele>687</ele>
        <time>2019-05-24T06:42:59Z</time>
      </trkpt>
      <trkpt lat="46.08191" lon="6.68062">
        <ele>686</ele>
        <time>2019-05-24T06:43:11Z</time>
      </trkpt>
      <trkpt lat="46.08212" lon="6.68008">
        <ele>684</ele>
        <time>2019-05-24T06:43:19Z</time>
      </trkpt>
      <trkpt lat="46.08255" lon="6.67857">
        <ele>685</ele>
        <time>2019-05-24T06:43:39Z</time>
      </trkpt>
      <trkpt lat="46.08297" lon="6.67776">
        <ele>686</ele>
        <time>2019-05-24T06:43:51Z</time>
      </trkpt>
      <trkpt lat="46.08308" lon="6.67751">
        <ele>686</ele>
        <time>2019-05-24T06:43:55Z</time>
      </trkpt>
      <trkpt lat="46.08328" lon="6.6772">
        <ele>686</ele>
        <time>2019-05-24T06:44:00Z</time>
      </trkpt>
      <trkpt lat="46.08351" lon="6.67643">
        <ele>687</ele>
        <time>2019-05-24T06:44:11Z</time>
      </trkpt>
      <trkpt lat="46.08383" lon="6.6757">
        <ele>687</ele>
        <time>2019-05-24T06:44:21Z</time>
      </trkpt>
      <trkpt lat="46.08397" lon="6.67534">
        <ele>687</ele>
        <time>2019-05-24T06:44:26Z</time>
      </trkpt>
      <trkpt lat="46.08407" lon="6.67501">
        <ele>686</ele>
        <time>2019-05-24T06:44:31Z</time>
      </trkpt>
      <trkpt lat="46.08425" lon="6.67434">
        <ele>681</ele>
        <time>2019-05-24T06:44:40Z</time>
      </trkpt>
      <trkpt lat="46.0843" lon="6.67372">
        <ele>678</ele>
        <time>2019-05-24T06:44:47Z</time>
      </trkpt>
      <trkpt lat="46.08435" lon="6.67353">
        <ele>678</ele>
        <time>2019-05-24T06:44:50Z</time>
      </trkpt>
      <trkpt lat="46.08455" lon="6.67311">
        <ele>676</ele>
        <time>2019-05-24T06:44:56Z</time>
      </trkpt>
      <trkpt lat="46.08463" lon="6.67284">
        <ele>676</ele>
        <time>2019-05-24T06:45:00Z</time>
      </trkpt>
      <trkpt lat="46.08474" lon="6.67243">
        <ele>675</ele>
        <time>2019-05-24T06:45:05Z</time>
      </trkpt>
      <trkpt lat="46.08481" lon="6.672">
        <ele>675</ele>
        <time>2019-05-24T06:45:11Z</time>
      </trkpt>
      <trkpt lat="46.08487" lon="6.67179">
        <ele>674</ele>
        <time>2019-05-24T06:45:13Z</time>
      </trkpt>
      <trkpt lat="46.08493" lon="6.67165">
        <ele>672</ele>
        <time>2019-05-24T06:45:15Z</time>
      </trkpt>
      <trkpt lat="46.08538" lon="6.67092">
        <ele>672</ele>
        <time>2019-05-24T06:45:27Z</time>
      </trkpt>
      <trkpt lat="46.08548" lon="6.67065">
        <ele>671</ele>
        <time>2019-05-24T06:45:31Z</time>
      </trkpt>
      <trkpt lat="46.08567" lon="6.67023">
        <ele>670</ele>
        <time>2019-05-24T06:45:37Z</time>
      </trkpt>
      <trkpt lat="46.08642" lon="6.66889">
        <ele>669</ele>
        <time>2019-05-24T06:45:59Z</time>
      </trkpt>
      <trkpt lat="46.08662" lon="6.66833">
        <ele>667</ele>
        <time>2019-05-24T06:46:06Z</time>
      </trkpt>
      <trkpt lat="46.08665" lon="6.66834">
        <ele>666</ele>
        <time>2019-05-24T06:46:07Z</time>
      </trkpt>
      <trkpt lat="46.08672" lon="6.66828">
        <ele>666</ele>
        <time>2019-05-24T06:46:08Z</time>
      </trkpt>
      <trkpt lat="46.08673" lon="6.66825">
        <ele>667</ele>
        <time>2019-05-24T06:46:09Z</time>
      </trkpt>
      <trkpt lat="46.08674" lon="6.66821">
        <ele>667</ele>
        <time>2019-05-24T06:46:09Z</time>
      </trkpt>
      <trkpt lat="46.08671" lon="6.6681">
        <ele>667</ele>
        <time>2019-05-24T06:46:11Z</time>
      </trkpt>
      <trkpt lat="46.08668" lon="6.66808">
        <ele>667</ele>
        <time>2019-05-24T06:46:11Z</time>
      </trkpt>
      <trkpt lat="46.08712" lon="6.66623">
        <ele>672</ele>
        <time>2019-05-24T06:46:36Z</time>
      </trkpt>
      <trkpt lat="46.08743" lon="6.66508">
        <ele>664</ele>
        <time>2019-05-24T06:46:51Z</time>
      </trkpt>
      <trkpt lat="46.08942" lon="6.66034">
        <ele>655</ele>
        <time>2019-05-24T06:47:59Z</time>
      </trkpt>
      <trkpt lat="46.0898" lon="6.65941">
        <ele>655</ele>
        <time>2019-05-24T06:48:12Z</time>
      </trkpt>
      <trkpt lat="46.09035" lon="6.65707">
        <ele>655</ele>
        <time>2019-05-24T06:48:43Z</time>
      </trkpt>
      <trkpt lat="46.0905" lon="6.65668">
        <ele>654</ele>
        <time>2019-05-24T06:48:48Z</time>
      </trkpt>
      <trkpt lat="46.09098" lon="6.6557">
        <ele>652</ele>
        <time>2019-05-24T06:49:03Z</time>
      </trkpt>
      <trkpt lat="46.09106" lon="6.6555">
        <ele>652</ele>
        <time>2019-05-24T06:49:06Z</time>
      </trkpt>
      <trkpt lat="46.09114" lon="6.65521">
        <ele>651</ele>
        <time>2019-05-24T06:49:10Z</time>
      </trkpt>
      <trkpt lat="46.09231" lon="6.64951">
        <ele>652</ele>
        <time>2019-05-24T06:50:23Z</time>
      </trkpt>
      <trkpt lat="46.09272" lon="6.64767">
        <ele>648</ele>
        <time>2019-05-24T06:50:47Z</time>
      </trkpt>
      <trkpt lat="46.09282" lon="6.64717">
        <ele>647</ele>
        <time>2019-05-24T06:50:54Z</time>
      </trkpt>
      <trkpt lat="46.09301" lon="6.64645">
        <ele>647</ele>
        <time>2019-05-24T06:51:03Z</time>
      </trkpt>
      <trkpt lat="46.09307" lon="6.64613">
        <ele>648</ele>
        <time>2019-05-24T06:51:07Z</time>
      </trkpt>
      <trkpt lat="46.09309" lon="6.64579">
        <ele>648</ele>
        <time>2019-05-24T06:51:11Z</time>
      </trkpt>
      <trkpt lat="46.09324" lon="6.64057">
        <ele>644</ele>
        <time>2019-05-24T06:52:16Z</time>
      </trkpt>
      <trkpt lat="46.09319" lon="6.63925">
        <ele>649</ele>
        <time>2019-05-24T06:52:32Z</time>
      </trkpt>
      <trkpt lat="46.0932" lon="6.63893">
        <ele>649</ele>
        <time>2019-05-24T06:52:36Z</time>
      </trkpt>
      <trkpt lat="46.09323" lon="6.63867">
        <ele>648</ele>
        <time>2019-05-24T06:52:39Z</time>
      </trkpt>
      <trkpt lat="46.09331" lon="6.6383">
        <ele>647</ele>
        <time>2019-05-24T06:52:44Z</time>
      </trkpt>
      <trkpt lat="46.09369" lon="6.63696">
        <ele>653</ele>
        <time>2019-05-24T06:53:02Z</time>
      </trkpt>
      <trkpt lat="46.09383" lon="6.63631">
        <ele>653</ele>
        <time>2019-05-24T06:53:10Z</time>
      </trkpt>
      <trkpt lat="46.09408" lon="6.63446">
        <ele>648</ele>
        <time>2019-05-24T06:53:34Z</time>
      </trkpt>
      <trkpt lat="46.09429" lon="6.63372">
        <ele>646</ele>
        <time>2019-05-24T06:53:44Z</time>
      </trkpt>
      <trkpt lat="46.09482" lon="6.63242">
        <ele>644</ele>
        <time>2019-05-24T06:54:02Z</time>
      </trkpt>
      <trkpt lat="46.09506" lon="6.63165">
        <ele>641</ele>
        <time>2019-05-24T06:54:13Z</time>
      </trkpt>
      <trkpt lat="46.09514" lon="6.63128">
        <ele>640</ele>
        <time>2019-05-24T06:54:17Z</time>
      </trkpt>
      <trkpt lat="46.09519" lon="6.63091">
        <ele>639</ele>
        <time>2019-05-24T06:54:22Z</time>
      </trkpt>
      <trkpt lat="46.0953" lon="6.62996">
        <ele>640</ele>
        <time>2019-05-24T06:54:34Z</time>
      </trkpt>
      <trkpt lat="46.09565" lon="6.62704">
        <ele>641</ele>
        <time>2019-05-24T06:55:10Z</time>
      </trkpt>
      <trkpt lat="46.09566" lon="6.62633">
        <ele>639</ele>
        <time>2019-05-24T06:55:19Z</time>
      </trkpt>
      <trkpt lat="46.09562" lon="6.6219">
        <ele>645</ele>
        <time>2019-05-24T06:56:14Z</time>
      </trkpt>
      <trkpt lat="46.09569" lon="6.62105">
        <ele>643</ele>
        <time>2019-05-24T06:56:24Z</time>
      </trkpt>
      <trkpt lat="46.09588" lon="6.61973">
        <ele>643</ele>
        <time>2019-05-24T06:56:41Z</time>
      </trkpt>
      <trkpt lat="46.09593" lon="6.61927">
        <ele>643</ele>
        <time>2019-05-24T06:56:47Z</time>
      </trkpt>
      <trkpt lat="46.09598" lon="6.61847">
        <ele>645</ele>
        <time>2019-05-24T06:56:57Z</time>
      </trkpt>
      <trkpt lat="46.09577" lon="6.61764">
        <ele>651</ele>
        <time>2019-05-24T06:57:08Z</time>
      </trkpt>
      <trkpt lat="46.09577" lon="6.61706">
        <ele>657</ele>
        <time>2019-05-24T06:57:15Z</time>
      </trkpt>
      <trkpt lat="46.09629" lon="6.61556">
        <ele>653</ele>
        <time>2019-05-24T06:57:35Z</time>
      </trkpt>
      <trkpt lat="46.0967" lon="6.61383">
        <ele>654</ele>
        <time>2019-05-24T06:57:58Z</time>
      </trkpt>
      <trkpt lat="46.09678" lon="6.61308">
        <ele>656</ele>
        <time>2019-05-24T06:58:07Z</time>
      </trkpt>
      <trkpt lat="46.09665" lon="6.61213">
        <ele>658</ele>
        <time>2019-05-24T06:58:19Z</time>
      </trkpt>
      <trkpt lat="46.09592" lon="6.6107">
        <ele>666</ele>
        <time>2019-05-24T06:58:41Z</time>
      </trkpt>
      <trkpt lat="46.0957" lon="6.61006">
        <ele>667</ele>
        <time>2019-05-24T06:58:50Z</time>
      </trkpt>
      <trkpt lat="46.09563" lon="6.60963">
        <ele>667</ele>
        <time>2019-05-24T06:58:56Z</time>
      </trkpt>
      <trkpt lat="46.09556" lon="6.60833">
        <ele>669</ele>
        <time>2019-05-24T06:59:12Z</time>
      </trkpt>
      <trkpt lat="46.09557" lon="6.60782">
        <ele>670</ele>
        <time>2019-05-24T06:59:18Z</time>
      </trkpt>
      <trkpt lat="46.09601" lon="6.60691">
        <ele>664</ele>
        <time>2019-05-24T06:59:32Z</time>
      </trkpt>
      <trkpt lat="46.09612" lon="6.60649">
        <ele>663</ele>
        <time>2019-05-24T06:59:37Z</time>
      </trkpt>
      <trkpt lat="46.0962" lon="6.60595">
        <ele>662</ele>
        <time>2019-05-24T06:59:44Z</time>
      </trkpt>
      <trkpt lat="46.09618" lon="6.60559">
        <ele>663</ele>
        <time>2019-05-24T06:59:48Z</time>
      </trkpt>
      <trkpt lat="46.09603" lon="6.60505">
        <ele>667</ele>
        <time>2019-05-24T06:59:56Z</time>
      </trkpt>
      <trkpt lat="46.09604" lon="6.60467">
        <ele>668</ele>
        <time>2019-05-24T07:00:00Z</time>
      </trkpt>
      <trkpt lat="46.09622" lon="6.60368">
        <ele>668</ele>
        <time>2019-05-24T07:00:13Z</time>
      </trkpt>
      <trkpt lat="46.09616" lon="6.6025">
        <ele>668</ele>
        <time>2019-05-24T07:00:28Z</time>
      </trkpt>
      <trkpt lat="46.09627" lon="6.6008">
        <ele>671</ele>
        <time>2019-05-24T07:00:49Z</time>
      </trkpt>
      <trkpt lat="46.09625" lon="6.60029">
        <ele>671</ele>
        <time>2019-05-24T07:00:55Z</time>
      </trkpt>
      <trkpt lat="46.09613" lon="6.59912">
        <ele>675</ele>
        <time>2019-05-24T07:01:09Z</time>
      </trkpt>
      <trkpt lat="46.09613" lon="6.59897">
        <ele>674</ele>
        <time>2019-05-24T07:01:11Z</time>
      </trkpt>
      <trkpt lat="46.09601" lon="6.59898">
        <ele>678</ele>
        <time>2019-05-24T07:01:13Z</time>
      </trkpt>
      <trkpt lat="46.09595" lon="6.59893">
        <ele>680</ele>
        <time>2019-05-24T07:01:15Z</time>
      </trkpt>
      <trkpt lat="46.09588" lon="6.59882">
        <ele>682</ele>
        <time>2019-05-24T07:01:17Z</time>
      </trkpt>
      <trkpt lat="46.09585" lon="6.59863">
        <ele>681</ele>
        <time>2019-05-24T07:01:19Z</time>
      </trkpt>
      <trkpt lat="46.09587" lon="6.59782">
        <ele>675</ele>
        <time>2019-05-24T07:01:29Z</time>
      </trkpt>
      <trkpt lat="46.09587" lon="6.5973">
        <ele>673</ele>
        <time>2019-05-24T07:01:35Z</time>
      </trkpt>
      <trkpt lat="46.09582" lon="6.59695">
        <ele>675</ele>
        <time>2019-05-24T07:01:40Z</time>
      </trkpt>
      <trkpt lat="46.09553" lon="6.59591">
        <ele>686</ele>
        <time>2019-05-24T07:01:54Z</time>
      </trkpt>
      <trkpt lat="46.09509" lon="6.59378">
        <ele>691</ele>
        <time>2019-05-24T07:02:21Z</time>
      </trkpt>
      <trkpt lat="46.09484" lon="6.59291">
        <ele>691</ele>
        <time>2019-05-24T07:02:33Z</time>
      </trkpt>
      <trkpt lat="46.09459" lon="6.59225">
        <ele>694</ele>
        <time>2019-05-24T07:02:42Z</time>
      </trkpt>
      <trkpt lat="46.09425" lon="6.59149">
        <ele>698</ele>
        <time>2019-05-24T07:02:53Z</time>
      </trkpt>
      <trkpt lat="46.0939" lon="6.59087">
        <ele>699</ele>
        <time>2019-05-24T07:03:03Z</time>
      </trkpt>
      <trkpt lat="46.09317" lon="6.5902">
        <ele>709</ele>
        <time>2019-05-24T07:03:18Z</time>
      </trkpt>
      <trkpt lat="46.09285" lon="6.58986">
        <ele>714</ele>
        <time>2019-05-24T07:03:25Z</time>
      </trkpt>
      <trkpt lat="46.09261" lon="6.58937">
        <ele>720</ele>
        <time>2019-05-24T07:03:33Z</time>
      </trkpt>
      <trkpt lat="46.09245" lon="6.5889">
        <ele>726</ele>
        <time>2019-05-24T07:03:39Z</time>
      </trkpt>
      <trkpt lat="46.09239" lon="6.58835">
        <ele>729</ele>
        <time>2019-05-24T07:03:46Z</time>
      </trkpt>
      <trkpt lat="46.09238" lon="6.58782">
        <ele>733</ele>
        <time>2019-05-24T07:03:53Z</time>
      </trkpt>
      <trkpt lat="46.09255" lon="6.58668">
        <ele>734</ele>
        <time>2019-05-24T07:04:07Z</time>
      </trkpt>
      <trkpt lat="46.0925" lon="6.58605">
        <ele>734</ele>
        <time>2019-05-24T07:04:15Z</time>
      </trkpt>
      <trkpt lat="46.09244" lon="6.58582">
        <ele>734</ele>
        <time>2019-05-24T07:04:18Z</time>
      </trkpt>
      <trkpt lat="46.0923" lon="6.58551">
        <ele>734</ele>
        <time>2019-05-24T07:04:22Z</time>
      </trkpt>
      <trkpt lat="46.09218" lon="6.58537">
        <ele>735</ele>
        <time>2019-05-24T07:04:25Z</time>
      </trkpt>
      <trkpt lat="46.09197" lon="6.58523">
        <ele>737</ele>
        <time>2019-05-24T07:04:29Z</time>
      </trkpt>
      <trkpt lat="46.09174" lon="6.58515">
        <ele>739</ele>
        <time>2019-05-24T07:04:34Z</time>
      </trkpt>
      <trkpt lat="46.09126" lon="6.58515">
        <ele>738</ele>
        <time>2019-05-24T07:04:42Z</time>
      </trkpt>
      <trkpt lat="46.09094" lon="6.58511">
        <ele>736</ele>
        <time>2019-05-24T07:04:48Z</time>
      </trkpt>
      <trkpt lat="46.08964" lon="6.58428">
        <ele>736</ele>
        <time>2019-05-24T07:05:13Z</time>
      </trkpt>
      <trkpt lat="46.08883" lon="6.58372">
        <ele>742</ele>
        <time>2019-05-24T07:05:29Z</time>
      </trkpt>
      <trkpt lat="46.08863" lon="6.58353">
        <ele>742</ele>
        <time>2019-05-24T07:05:33Z</time>
      </trkpt>
      <trkpt lat="46.08861" lon="6.58342">
        <ele>741</ele>
        <time>2019-05-24T07:05:35Z</time>
      </trkpt>
      <trkpt lat="46.08857" lon="6.58337">
        <ele>741</ele>
        <time>2019-05-24T07:05:36Z</time>
      </trkpt>
      <trkpt lat="46.08848" lon="6.58337">
        <ele>741</ele>
        <time>2019-05-24T07:05:37Z</time>
      </trkpt>
      <trkpt lat="46.08843" lon="6.58342">
        <ele>742</ele>
        <time>2019-05-24T07:05:38Z</time>
      </trkpt>
      <trkpt lat="46.08823" lon="6.58334">
        <ele>742</ele>
        <time>2019-05-24T07:05:42Z</time>
      </trkpt>
      <trkpt lat="46.08727" lon="6.58271">
        <ele>741</ele>
        <time>2019-05-24T07:06:01Z</time>
      </trkpt>
      <trkpt lat="46.08672" lon="6.58238">
        <ele>738</ele>
        <time>2019-05-24T07:06:11Z</time>
      </trkpt>
      <trkpt lat="46.08655" lon="6.58222">
        <ele>737</ele>
        <time>2019-05-24T07:06:15Z</time>
      </trkpt>
      <trkpt lat="46.08642" lon="6.582">
        <ele>735</ele>
        <time>2019-05-24T07:06:19Z</time>
      </trkpt>
      <trkpt lat="46.08624" lon="6.58113">
        <ele>731</ele>
        <time>2019-05-24T07:06:30Z</time>
      </trkpt>
      <trkpt lat="46.08614" lon="6.58017">
        <ele>728</ele>
        <time>2019-05-24T07:06:42Z</time>
      </trkpt>
      <trkpt lat="46.08611" lon="6.57935">
        <ele>727</ele>
        <time>2019-05-24T07:06:52Z</time>
      </trkpt>
      <trkpt lat="46.08606" lon="6.57904">
        <ele>726</ele>
        <time>2019-05-24T07:06:56Z</time>
      </trkpt>
      <trkpt lat="46.08545" lon="6.5779">
        <ele>714</ele>
        <time>2019-05-24T07:07:14Z</time>
      </trkpt>
      <trkpt lat="46.0853" lon="6.57759">
        <ele>711</ele>
        <time>2019-05-24T07:07:18Z</time>
      </trkpt>
      <trkpt lat="46.08522" lon="6.57725">
        <ele>710</ele>
        <time>2019-05-24T07:07:23Z</time>
      </trkpt>
      <trkpt lat="46.08521" lon="6.57693">
        <ele>710</ele>
        <time>2019-05-24T07:07:27Z</time>
      </trkpt>
      <trkpt lat="46.08524" lon="6.57655">
        <ele>713</ele>
        <time>2019-05-24T07:07:31Z</time>
      </trkpt>
      <trkpt lat="46.08523" lon="6.57625">
        <ele>714</ele>
        <time>2019-05-24T07:07:35Z</time>
      </trkpt>
      <trkpt lat="46.08516" lon="6.57594">
        <ele>713</ele>
        <time>2019-05-24T07:07:39Z</time>
      </trkpt>
      <trkpt lat="46.08502" lon="6.57565">
        <ele>710</ele>
        <time>2019-05-24T07:07:43Z</time>
      </trkpt>
      <trkpt lat="46.08486" lon="6.57546">
        <ele>708</ele>
        <time>2019-05-24T07:07:47Z</time>
      </trkpt>
      <trkpt lat="46.08469" lon="6.57537">
        <ele>706</ele>
        <time>2019-05-24T07:07:50Z</time>
      </trkpt>
      <trkpt lat="46.08412" lon="6.5752">
        <ele>695</ele>
        <time>2019-05-24T07:08:01Z</time>
      </trkpt>
      <trkpt lat="46.08397" lon="6.57512">
        <ele>690</ele>
        <time>2019-05-24T07:08:04Z</time>
      </trkpt>
      <trkpt lat="46.08385" lon="6.57493">
        <ele>686</ele>
        <time>2019-05-24T07:08:07Z</time>
      </trkpt>
      <trkpt lat="46.08384" lon="6.5748">
        <ele>685</ele>
        <time>2019-05-24T07:08:08Z</time>
      </trkpt>
      <trkpt lat="46.08384" lon="6.57462">
        <ele>684</ele>
        <time>2019-05-24T07:08:11Z</time>
      </trkpt>
      <trkpt lat="46.08408" lon="6.5738">
        <ele>692</ele>
        <time>2019-05-24T07:08:22Z</time>
      </trkpt>
      <trkpt lat="46.08417" lon="6.57362">
        <ele>695</ele>
        <time>2019-05-24T07:08:24Z</time>
      </trkpt>
      <trkpt lat="46.0844" lon="6.57329">
        <ele>703</ele>
        <time>2019-05-24T07:08:30Z</time>
      </trkpt>
      <trkpt lat="46.08447" lon="6.5731">
        <ele>703</ele>
        <time>2019-05-24T07:08:33Z</time>
      </trkpt>
      <trkpt lat="46.08454" lon="6.57235">
        <ele>692</ele>
        <time>2019-05-24T07:08:42Z</time>
      </trkpt>
      <trkpt lat="46.08464" lon="6.57172">
        <ele>686</ele>
        <time>2019-05-24T07:08:50Z</time>
      </trkpt>
      <trkpt lat="46.08471" lon="6.57151">
        <ele>685</ele>
        <time>2019-05-24T07:08:53Z</time>
      </trkpt>
      <trkpt lat="46.08479" lon="6.57134">
        <ele>684</ele>
        <time>2019-05-24T07:08:55Z</time>
      </trkpt>
      <trkpt lat="46.08488" lon="6.5712">
        <ele>685</ele>
        <time>2019-05-24T07:08:58Z</time>
      </trkpt>
      <trkpt lat="46.08543" lon="6.57059">
        <ele>698</ele>
        <time>2019-05-24T07:09:10Z</time>
      </trkpt>
      <trkpt lat="46.08574" lon="6.56998">
        <ele>700</ele>
        <time>2019-05-24T07:09:20Z</time>
      </trkpt>
      <trkpt lat="46.0858" lon="6.56979">
        <ele>700</ele>
        <time>2019-05-24T07:09:22Z</time>
      </trkpt>
      <trkpt lat="46.0858" lon="6.5692">
        <ele>688</ele>
        <time>2019-05-24T07:09:29Z</time>
      </trkpt>
      <trkpt lat="46.08589" lon="6.56876">
        <ele>688</ele>
        <time>2019-05-24T07:09:35Z</time>
      </trkpt>
      <trkpt lat="46.08587" lon="6.56862">
        <ele>685</ele>
        <time>2019-05-24T07:09:37Z</time>
      </trkpt>
      <trkpt lat="46.08607" lon="6.56826">
        <ele>692</ele>
        <time>2019-05-24T07:09:43Z</time>
      </trkpt>
      <trkpt lat="46.08587" lon="6.56862">
        <ele>685</ele>
        <time>2019-05-24T07:09:48Z</time>
      </trkpt>
      <trkpt lat="46.0858" lon="6.56855">
        <ele>680</ele>
        <time>2019-05-24T07:09:50Z</time>
      </trkpt>
      <trkpt lat="46.08571" lon="6.56854">
        <ele>674</ele>
        <time>2019-05-24T07:09:51Z</time>
      </trkpt>
      <trkpt lat="46.08565" lon="6.56863">
        <ele>672</ele>
        <time>2019-05-24T07:09:53Z</time>
      </trkpt>
      <trkpt lat="46.08561" lon="6.56871">
        <ele>670</ele>
        <time>2019-05-24T07:09:54Z</time>
      </trkpt>
      <trkpt lat="46.0856" lon="6.56883">
        <ele>671</ele>
        <time>2019-05-24T07:09:56Z</time>
      </trkpt>
      <trkpt lat="46.08561" lon="6.56901">
        <ele>673</ele>
        <time>2019-05-24T07:09:58Z</time>
      </trkpt>
      <trkpt lat="46.08567" lon="6.56932">
        <ele>682</ele>
        <time>2019-05-24T07:10:02Z</time>
      </trkpt>
      <trkpt lat="46.08567" lon="6.56952">
        <ele>686</ele>
        <time>2019-05-24T07:10:04Z</time>
      </trkpt>
      <trkpt lat="46.08564" lon="6.56976">
        <ele>689</ele>
        <time>2019-05-24T07:10:07Z</time>
      </trkpt>
      <trkpt lat="46.08556" lon="6.56994">
        <ele>687</ele>
        <time>2019-05-24T07:10:10Z</time>
      </trkpt>
      <trkpt lat="46.08515" lon="6.57053">
        <ele>678</ele>
        <time>2019-05-24T07:10:20Z</time>
      </trkpt>
      <trkpt lat="46.08475" lon="6.57087">
        <ele>666</ele>
        <time>2019-05-24T07:10:28Z</time>
      </trkpt>
      <trkpt lat="46.08453" lon="6.57124">
        <ele>665</ele>
        <time>2019-05-24T07:10:34Z</time>
      </trkpt>
      <trkpt lat="46.08438" lon="6.57155">
        <ele>665</ele>
        <time>2019-05-24T07:10:39Z</time>
      </trkpt>
      <trkpt lat="46.08425" lon="6.57186">
        <ele>664</ele>
        <time>2019-05-24T07:10:44Z</time>
      </trkpt>
      <trkpt lat="46.08414" lon="6.57224">
        <ele>666</ele>
        <time>2019-05-24T07:10:49Z</time>
      </trkpt>
      <trkpt lat="46.08393" lon="6.57284">
        <ele>665</ele>
        <time>2019-05-24T07:10:57Z</time>
      </trkpt>
      <trkpt lat="46.08357" lon="6.57363">
        <ele>656</ele>
        <time>2019-05-24T07:11:09Z</time>
      </trkpt>
      <trkpt lat="46.08341" lon="6.57407">
        <ele>656</ele>
        <time>2019-05-24T07:11:15Z</time>
      </trkpt>
      <trkpt lat="46.08315" lon="6.57498">
        <ele>651</ele>
        <time>2019-05-24T07:11:27Z</time>
      </trkpt>
      <trkpt lat="46.08306" lon="6.57543">
        <ele>646</ele>
        <time>2019-05-24T07:11:33Z</time>
      </trkpt>
      <trkpt lat="46.083" lon="6.57607">
        <ele>643</ele>
        <time>2019-05-24T07:11:41Z</time>
      </trkpt>
      <trkpt lat="46.08297" lon="6.57678">
        <ele>640</ele>
        <time>2019-05-24T07:11:49Z</time>
      </trkpt>
      <trkpt lat="46.08299" lon="6.57708">
        <ele>639</ele>
        <time>2019-05-24T07:11:53Z</time>
      </trkpt>
      <trkpt lat="46.08305" lon="6.57753">
        <ele>640</ele>
        <time>2019-05-24T07:11:59Z</time>
      </trkpt>
      <trkpt lat="46.08306" lon="6.57775">
        <ele>639</ele>
        <time>2019-05-24T07:12:02Z</time>
      </trkpt>
      <trkpt lat="46.08301" lon="6.57805">
        <ele>637</ele>
        <time>2019-05-24T07:12:05Z</time>
      </trkpt>
      <trkpt lat="46.08295" lon="6.57821">
        <ele>634</ele>
        <time>2019-05-24T07:12:08Z</time>
      </trkpt>
      <trkpt lat="46.0825" lon="6.57901">
        <ele>630</ele>
        <time>2019-05-24T07:12:20Z</time>
      </trkpt>
      <trkpt lat="46.08234" lon="6.57936">
        <ele>632</ele>
        <time>2019-05-24T07:12:25Z</time>
      </trkpt>
      <trkpt lat="46.08225" lon="6.57963">
        <ele>634</ele>
        <time>2019-05-24T07:12:29Z</time>
      </trkpt>
      <trkpt lat="46.08214" lon="6.58013">
        <ele>637</ele>
        <time>2019-05-24T07:12:36Z</time>
      </trkpt>
      <trkpt lat="46.08207" lon="6.58081">
        <ele>645</ele>
        <time>2019-05-24T07:12:44Z</time>
      </trkpt>
      <trkpt lat="46.08202" lon="6.58114">
        <ele>642</ele>
        <time>2019-05-24T07:12:48Z</time>
      </trkpt>
      <trkpt lat="46.08196" lon="6.58136">
        <ele>639</ele>
        <time>2019-05-24T07:12:51Z</time>
      </trkpt>
      <trkpt lat="46.08188" lon="6.58156">
        <ele>635</ele>
        <time>2019-05-24T07:12:54Z</time>
      </trkpt>
      <trkpt lat="46.08179" lon="6.58174">
        <ele>630</ele>
        <time>2019-05-24T07:12:57Z</time>
      </trkpt>
      <trkpt lat="46.08153" lon="6.58213">
        <ele>621</ele>
        <time>2019-05-24T07:13:03Z</time>
      </trkpt>
      <trkpt lat="46.08115" lon="6.58261">
        <ele>617</ele>
        <time>2019-05-24T07:13:12Z</time>
      </trkpt>
      <trkpt lat="46.08095" lon="6.58277">
        <ele>616</ele>
        <time>2019-05-24T07:13:17Z</time>
      </trkpt>
      <trkpt lat="46.08071" lon="6.58286">
        <ele>615</ele>
        <time>2019-05-24T07:13:21Z</time>
      </trkpt>
      <trkpt lat="46.0806" lon="6.58286">
        <ele>615</ele>
        <time>2019-05-24T07:13:23Z</time>
      </trkpt>
      <trkpt lat="46.08047" lon="6.58284">
        <ele>615</ele>
        <time>2019-05-24T07:13:25Z</time>
      </trkpt>
      <trkpt lat="46.08009" lon="6.58267">
        <ele>613</ele>
        <time>2019-05-24T07:13:32Z</time>
      </trkpt>
      <trkpt lat="46.07994" lon="6.58261">
        <ele>612</ele>
        <time>2019-05-24T07:13:35Z</time>
      </trkpt>
      <trkpt lat="46.07978" lon="6.58259">
        <ele>610</ele>
        <time>2019-05-24T07:13:38Z</time>
      </trkpt>
      <trkpt lat="46.07965" lon="6.5826">
        <ele>608</ele>
        <time>2019-05-24T07:13:40Z</time>
      </trkpt>
      <trkpt lat="46.07923" lon="6.58268">
        <ele>605</ele>
        <time>2019-05-24T07:13:48Z</time>
      </trkpt>
      <trkpt lat="46.07867" lon="6.58286">
        <ele>603</ele>
        <time>2019-05-24T07:13:58Z</time>
      </trkpt>
      <trkpt lat="46.07851" lon="6.58298">
        <ele>604</ele>
        <time>2019-05-24T07:14:01Z</time>
      </trkpt>
      <trkpt lat="46.07838" lon="6.58311">
        <ele>604</ele>
        <time>2019-05-24T07:14:04Z</time>
      </trkpt>
      <trkpt lat="46.0782" lon="6.58335">
        <ele>604</ele>
        <time>2019-05-24T07:14:08Z</time>
      </trkpt>
      <trkpt lat="46.07809" lon="6.58359">
        <ele>603</ele>
        <time>2019-05-24T07:14:12Z</time>
      </trkpt>
      <trkpt lat="46.07791" lon="6.58405">
        <ele>603</ele>
        <time>2019-05-24T07:14:18Z</time>
      </trkpt>
      <trkpt lat="46.07786" lon="6.58411">
        <ele>602</ele>
        <time>2019-05-24T07:14:20Z</time>
      </trkpt>
      <trkpt lat="46.0778" lon="6.58414">
        <ele>601</ele>
        <time>2019-05-24T07:14:21Z</time>
      </trkpt>
      <trkpt lat="46.07767" lon="6.58413">
        <ele>598</ele>
        <time>2019-05-24T07:14:23Z</time>
      </trkpt>
      <trkpt lat="46.07759" lon="6.58405">
        <ele>595</ele>
        <time>2019-05-24T07:14:25Z</time>
      </trkpt>
      <trkpt lat="46.07755" lon="6.58394">
        <ele>593</ele>
        <time>2019-05-24T07:14:26Z</time>
      </trkpt>
      <trkpt lat="46.07754" lon="6.58386">
        <ele>592</ele>
        <time>2019-05-24T07:14:27Z</time>
      </trkpt>
      <trkpt lat="46.07755" lon="6.58375">
        <ele>591</ele>
        <time>2019-05-24T07:14:29Z</time>
      </trkpt>
      <trkpt lat="46.07758" lon="6.58364">
        <ele>591</ele>
        <time>2019-05-24T07:14:30Z</time>
      </trkpt>
      <trkpt lat="46.07828" lon="6.58222">
        <ele>591</ele>
        <time>2019-05-24T07:14:52Z</time>
      </trkpt>
      <trkpt lat="46.07849" lon="6.58193">
        <ele>589</ele>
        <time>2019-05-24T07:14:57Z</time>
      </trkpt>
      <trkpt lat="46.07864" lon="6.58177">
        <ele>587</ele>
        <time>2019-05-24T07:15:00Z</time>
      </trkpt>
      <trkpt lat="46.07884" lon="6.58166">
        <ele>586</ele>
        <time>2019-05-24T07:15:04Z</time>
      </trkpt>
      <trkpt lat="46.07928" lon="6.58169">
        <ele>587</ele>
        <time>2019-05-24T07:15:12Z</time>
      </trkpt>
      <trkpt lat="46.0794" lon="6.58164">
        <ele>587</ele>
        <time>2019-05-24T07:15:14Z</time>
      </trkpt>
      <trkpt lat="46.07946" lon="6.58151">
        <ele>586</ele>
        <time>2019-05-24T07:15:16Z</time>
      </trkpt>
      <trkpt lat="46.07947" lon="6.58137">
        <ele>584</ele>
        <time>2019-05-24T07:15:18Z</time>
      </trkpt>
      <trkpt lat="46.07945" lon="6.58124">
        <ele>583</ele>
        <time>2019-05-24T07:15:19Z</time>
      </trkpt>
      <trkpt lat="46.07932" lon="6.58107">
        <ele>580</ele>
        <time>2019-05-24T07:15:22Z</time>
      </trkpt>
      <trkpt lat="46.07915" lon="6.58095">
        <ele>578</ele>
        <time>2019-05-24T07:15:26Z</time>
      </trkpt>
      <trkpt lat="46.07875" lon="6.58083">
        <ele>574</ele>
        <time>2019-05-24T07:15:33Z</time>
      </trkpt>
      <trkpt lat="46.0786" lon="6.58082">
        <ele>573</ele>
        <time>2019-05-24T07:15:36Z</time>
      </trkpt>
      <trkpt lat="46.07844" lon="6.58086">
        <ele>572</ele>
        <time>2019-05-24T07:15:39Z</time>
      </trkpt>
      <trkpt lat="46.07821" lon="6.58097">
        <ele>571</ele>
        <time>2019-05-24T07:15:43Z</time>
      </trkpt>
      <trkpt lat="46.0776" lon="6.58136">
        <ele>564</ele>
        <time>2019-05-24T07:15:55Z</time>
      </trkpt>
      <trkpt lat="46.07684" lon="6.58258">
        <ele>560</ele>
        <time>2019-05-24T07:16:15Z</time>
      </trkpt>
      <trkpt lat="46.07654" lon="6.58295">
        <ele>557</ele>
        <time>2019-05-24T07:16:22Z</time>
      </trkpt>
      <trkpt lat="46.07615" lon="6.58322">
        <ele>553</ele>
        <time>2019-05-24T07:16:30Z</time>
      </trkpt>
      <trkpt lat="46.07605" lon="6.58356">
        <ele>556</ele>
        <time>2019-05-24T07:16:34Z</time>
      </trkpt>
      <trkpt lat="46.07603" lon="6.58379">
        <ele>558</ele>
        <time>2019-05-24T07:16:37Z</time>
      </trkpt>
      <trkpt lat="46.07587" lon="6.5841">
        <ele>559</ele>
        <time>2019-05-24T07:16:42Z</time>
      </trkpt>
      <trkpt lat="46.07548" lon="6.58426">
        <ele>560</ele>
        <time>2019-05-24T07:16:49Z</time>
      </trkpt>
      <trkpt lat="46.0753" lon="6.58431">
        <ele>560</ele>
        <time>2019-05-24T07:16:52Z</time>
      </trkpt>
      <trkpt lat="46.07516" lon="6.58432">
        <ele>560</ele>
        <time>2019-05-24T07:16:55Z</time>
      </trkpt>
      <trkpt lat="46.07502" lon="6.58421">
        <ele>556</ele>
        <time>2019-05-24T07:16:58Z</time>
      </trkpt>
      <trkpt lat="46.07486" lon="6.58404">
        <ele>550</ele>
        <time>2019-05-24T07:17:01Z</time>
      </trkpt>
      <trkpt lat="46.07469" lon="6.58398">
        <ele>545</ele>
        <time>2019-05-24T07:17:04Z</time>
      </trkpt>
      <trkpt lat="46.07447" lon="6.58403">
        <ele>542</ele>
        <time>2019-05-24T07:17:08Z</time>
      </trkpt>
      <trkpt lat="46.07435" lon="6.58414">
        <ele>543</ele>
        <time>2019-05-24T07:17:11Z</time>
      </trkpt>
      <trkpt lat="46.07425" lon="6.58428">
        <ele>544</ele>
        <time>2019-05-24T07:17:13Z</time>
      </trkpt>
      <trkpt lat="46.07402" lon="6.58444">
        <ele>543</ele>
        <time>2019-05-24T07:17:18Z</time>
      </trkpt>
      <trkpt lat="46.0738" lon="6.58448">
        <ele>538</ele>
        <time>2019-05-24T07:17:22Z</time>
      </trkpt>
      <trkpt lat="46.07364" lon="6.58465">
        <ele>537</ele>
        <time>2019-05-24T07:17:25Z</time>
      </trkpt>
      <trkpt lat="46.07353" lon="6.58489">
        <ele>538</ele>
        <time>2019-05-24T07:17:29Z</time>
      </trkpt>
      <trkpt lat="46.07346" lon="6.5856">
        <ele>547</ele>
        <time>2019-05-24T07:17:38Z</time>
      </trkpt>
      <trkpt lat="46.07341" lon="6.58578">
        <ele>548</ele>
        <time>2019-05-24T07:17:40Z</time>
      </trkpt>
      <trkpt lat="46.07333" lon="6.58592">
        <ele>549</ele>
        <time>2019-05-24T07:17:42Z</time>
      </trkpt>
      <trkpt lat="46.07325" lon="6.58597">
        <ele>549</ele>
        <time>2019-05-24T07:17:44Z</time>
      </trkpt>
      <trkpt lat="46.07309" lon="6.58592">
        <ele>548</ele>
        <time>2019-05-24T07:17:47Z</time>
      </trkpt>
      <trkpt lat="46.07301" lon="6.58581">
        <ele>545</ele>
        <time>2019-05-24T07:17:49Z</time>
      </trkpt>
      <trkpt lat="46.07259" lon="6.58512">
        <ele>530</ele>
        <time>2019-05-24T07:18:00Z</time>
      </trkpt>
      <trkpt lat="46.07242" lon="6.58496">
        <ele>525</ele>
        <time>2019-05-24T07:18:04Z</time>
      </trkpt>
      <trkpt lat="46.07227" lon="6.58494">
        <ele>522</ele>
        <time>2019-05-24T07:18:07Z</time>
      </trkpt>
      <trkpt lat="46.07135" lon="6.58521">
        <ele>513</ele>
        <time>2019-05-24T07:18:23Z</time>
      </trkpt>
      <trkpt lat="46.0711" lon="6.58535">
        <ele>511</ele>
        <time>2019-05-24T07:18:28Z</time>
      </trkpt>
      <trkpt lat="46.0709" lon="6.58553">
        <ele>510</ele>
        <time>2019-05-24T07:18:32Z</time>
      </trkpt>
      <trkpt lat="46.07064" lon="6.58588">
        <ele>511</ele>
        <time>2019-05-24T07:18:39Z</time>
      </trkpt>
      <trkpt lat="46.07048" lon="6.586">
        <ele>511</ele>
        <time>2019-05-24T07:18:42Z</time>
      </trkpt>
      <trkpt lat="46.07037" lon="6.586">
        <ele>509</ele>
        <time>2019-05-24T07:18:44Z</time>
      </trkpt>
      <trkpt lat="46.07026" lon="6.58594">
        <ele>507</ele>
        <time>2019-05-24T07:18:46Z</time>
      </trkpt>
      <trkpt lat="46.06963" lon="6.58537">
        <ele>497</ele>
        <time>2019-05-24T07:18:59Z</time>
      </trkpt>
      <trkpt lat="46.06946" lon="6.58517">
        <ele>495</ele>
        <time>2019-05-24T07:19:03Z</time>
      </trkpt>
      <trkpt lat="46.06923" lon="6.58468">
        <ele>492</ele>
        <time>2019-05-24T07:19:10Z</time>
      </trkpt>
      <trkpt lat="46.06898" lon="6.5841">
        <ele>490</ele>
        <time>2019-05-24T07:19:19Z</time>
      </trkpt>
      <trkpt lat="46.06889" lon="6.5838">
        <ele>489</ele>
        <time>2019-05-24T07:19:23Z</time>
      </trkpt>
      <trkpt lat="46.06891" lon="6.5837">
        <ele>489</ele>
        <time>2019-05-24T07:19:24Z</time>
      </trkpt>
      <trkpt lat="46.06889" lon="6.58361">
        <ele>489</ele>
        <time>2019-05-24T07:19:25Z</time>
      </trkpt>
      <trkpt lat="46.06882" lon="6.58351">
        <ele>488</ele>
        <time>2019-05-24T07:19:27Z</time>
      </trkpt>
      <trkpt lat="46.06875" lon="6.58349">
        <ele>488</ele>
        <time>2019-05-24T07:19:28Z</time>
      </trkpt>
      <trkpt lat="46.06858" lon="6.58317">
        <ele>488</ele>
        <time>2019-05-24T07:19:33Z</time>
      </trkpt>
      <trkpt lat="46.06806" lon="6.58177">
        <ele>488</ele>
        <time>2019-05-24T07:19:53Z</time>
      </trkpt>
      <trkpt lat="46.06748" lon="6.58008">
        <ele>486</ele>
        <time>2019-05-24T07:20:16Z</time>
      </trkpt>
      <trkpt lat="46.06736" lon="6.57982">
        <ele>485</ele>
        <time>2019-05-24T07:20:20Z</time>
      </trkpt>
      <trkpt lat="46.06728" lon="6.57956">
        <ele>485</ele>
        <time>2019-05-24T07:20:23Z</time>
      </trkpt>
      <trkpt lat="46.06531" lon="6.58022">
        <ele>483</ele>
        <time>2019-05-24T07:20:59Z</time>
      </trkpt>
      <trkpt lat="46.06526" lon="6.58022">
        <ele>483</ele>
        <time>2019-05-24T07:21:00Z</time>
      </trkpt>
      <trkpt lat="46.06515" lon="6.58017">
        <ele>483</ele>
        <time>2019-05-24T07:21:02Z</time>
      </trkpt>
      <trkpt lat="46.06508" lon="6.5801">
        <ele>482</ele>
        <time>2019-05-24T07:21:04Z</time>
      </trkpt>
      <trkpt lat="46.06489" lon="6.57984">
        <ele>483</ele>
        <time>2019-05-24T07:21:09Z</time>
      </trkpt>
      <trkpt lat="46.0648" lon="6.57977">
        <ele>483</ele>
        <time>2019-05-24T07:21:10Z</time>
      </trkpt>
      <trkpt lat="46.06466" lon="6.57971">
        <ele>484</ele>
        <time>2019-05-24T07:21:13Z</time>
      </trkpt>
      <trkpt lat="46.06445" lon="6.5797">
        <ele>485</ele>
        <time>2019-05-24T07:21:17Z</time>
      </trkpt>
      <trkpt lat="46.06398" lon="6.57974">
        <ele>485</ele>
        <time>2019-05-24T07:21:25Z</time>
      </trkpt>
      <trkpt lat="46.06337" lon="6.57981">
        <ele>483</ele>
        <time>2019-05-24T07:21:36Z</time>
      </trkpt>
      <trkpt lat="46.06246" lon="6.57999">
        <ele>486</ele>
        <time>2019-05-24T07:21:52Z</time>
      </trkpt>
      <trkpt lat="46.06198" lon="6.58006">
        <ele>486</ele>
        <time>2019-05-24T07:22:01Z</time>
      </trkpt>
      <trkpt lat="46.06187" lon="6.58008">
        <ele>486</ele>
        <time>2019-05-24T07:22:03Z</time>
      </trkpt>
      <trkpt lat="46.0618" lon="6.58005">
        <ele>486</ele>
        <time>2019-05-24T07:22:04Z</time>
      </trkpt>
      <trkpt lat="46.06133" lon="6.58011">
        <ele>487</ele>
        <time>2019-05-24T07:22:13Z</time>
      </trkpt>
      <trkpt lat="46.06127" lon="6.58004">
        <ele>487</ele>
        <time>2019-05-24T07:22:14Z</time>
      </trkpt>
      <trkpt lat="46.06124" lon="6.58004">
        <ele>487</ele>
        <time>2019-05-24T07:22:14Z</time>
      </trkpt>
      <trkpt lat="46.06122" lon="6.58005">
        <ele>487</ele>
        <time>2019-05-24T07:22:15Z</time>
      </trkpt>
      <trkpt lat="46.06118" lon="6.58014">
        <ele>487</ele>
        <time>2019-05-24T07:22:16Z</time>
      </trkpt>
      <trkpt lat="46.06118" lon="6.58018">
        <ele>487</ele>
        <time>2019-05-24T07:22:17Z</time>
      </trkpt>
      <trkpt lat="46.06051" lon="6.58029">
        <ele>488</ele>
        <time>2019-05-24T07:22:29Z</time>
      </trkpt>
      <trkpt lat="46.05788" lon="6.58063">
        <ele>487</ele>
        <time>2019-05-24T07:23:16Z</time>
      </trkpt>
      <trkpt lat="46.05785" lon="6.58054">
        <ele>487</ele>
        <time>2019-05-24T07:23:17Z</time>
      </trkpt>
      <trkpt lat="46.05779" lon="6.58052">
        <ele>487</ele>
        <time>2019-05-24T07:23:18Z</time>
      </trkpt>
      <trkpt lat="46.05774" lon="6.58055">
        <ele>487</ele>
        <time>2019-05-24T07:23:19Z</time>
      </trkpt>
      <trkpt lat="46.05752" lon="6.58029">
        <ele>486</ele>
        <time>2019-05-24T07:23:24Z</time>
      </trkpt>
      <trkpt lat="46.05731" lon="6.58015">
        <ele>486</ele>
        <time>2019-05-24T07:23:28Z</time>
      </trkpt>
      <trkpt lat="46.05724" lon="6.58002">
        <ele>486</ele>
        <time>2019-05-24T07:23:30Z</time>
      </trkpt>
      <trkpt lat="46.05714" lon="6.57996">
        <ele>486</ele>
        <time>2019-05-24T07:23:32Z</time>
      </trkpt>
      <trkpt lat="46.05705" lon="6.57997">
        <ele>486</ele>
        <time>2019-05-24T07:23:34Z</time>
      </trkpt>
      <trkpt lat="46.05696" lon="6.58006">
        <ele>486</ele>
        <time>2019-05-24T07:23:36Z</time>
      </trkpt>
      <trkpt lat="46.05694" lon="6.58011">
        <ele>486</ele>
        <time>2019-05-24T07:23:36Z</time>
      </trkpt>
      <trkpt lat="46.05673" lon="6.58021">
        <ele>486</ele>
        <time>2019-05-24T07:23:40Z</time>
      </trkpt>
      <trkpt lat="46.05661" lon="6.58014">
        <ele>486</ele>
        <time>2019-05-24T07:23:43Z</time>
      </trkpt>
      <trkpt lat="46.05649" lon="6.57969">
        <ele>487</ele>
        <time>2019-05-24T07:23:48Z</time>
      </trkpt>
      <trkpt lat="46.05641" lon="6.57924">
        <ele>490</ele>
        <time>2019-05-24T07:23:54Z</time>
      </trkpt>
      <trkpt lat="46.05652" lon="6.57894">
        <ele>489</ele>
        <time>2019-05-24T07:23:58Z</time>
      </trkpt>
      <trkpt lat="46.05664" lon="6.57877">
        <ele>487</ele>
        <time>2019-05-24T07:24:01Z</time>
      </trkpt>
      <trkpt lat="46.05677" lon="6.57868">
        <ele>487</ele>
        <time>2019-05-24T07:24:04Z</time>
      </trkpt>
      <trkpt lat="46.05682" lon="6.57861">
        <ele>487</ele>
        <time>2019-05-24T07:24:05Z</time>
      </trkpt>
      <trkpt lat="46.0569" lon="6.57841">
        <ele>487</ele>
        <time>2019-05-24T07:24:08Z</time>
      </trkpt>
      <trkpt lat="46.05708" lon="6.57831">
        <ele>486</ele>
        <time>2019-05-24T07:24:12Z</time>
      </trkpt>
      <trkpt lat="46.05712" lon="6.57827">
        <ele>486</ele>
        <time>2019-05-24T07:24:12Z</time>
      </trkpt>
      <trkpt lat="46.05731" lon="6.5779">
        <ele>485</ele>
        <time>2019-05-24T07:24:18Z</time>
      </trkpt>
      <trkpt lat="46.05805" lon="6.57683">
        <ele>483</ele>
        <time>2019-05-24T07:24:37Z</time>
      </trkpt>
      <trkpt lat="46.0589" lon="6.57528">
        <ele>482</ele>
        <time>2019-05-24T07:25:01Z</time>
      </trkpt>
      <trkpt lat="46.0592" lon="6.57494">
        <ele>481</ele>
        <time>2019-05-24T07:25:08Z</time>
      </trkpt>
      <trkpt lat="46.05944" lon="6.57457">
        <ele>482</ele>
        <time>2019-05-24T07:25:14Z</time>
      </trkpt>
      <trkpt lat="46.05947" lon="6.57454">
        <ele>482</ele>
        <time>2019-05-24T07:25:15Z</time>
      </trkpt>
      <trkpt lat="46.05951" lon="6.57454">
        <ele>482</ele>
        <time>2019-05-24T07:25:16Z</time>
      </trkpt>
      <trkpt lat="46.05953" lon="6.5745">
        <ele>482</ele>
        <time>2019-05-24T07:25:16Z</time>
      </trkpt>
      <trkpt lat="46.05945" lon="6.57433">
        <ele>482</ele>
        <time>2019-05-24T07:25:19Z</time>
      </trkpt>
      <trkpt lat="46.05891" lon="6.5734">
        <ele>483</ele>
        <time>2019-05-24T07:25:34Z</time>
      </trkpt>
      <trkpt lat="46.05886" lon="6.57319">
        <ele>483</ele>
        <time>2019-05-24T07:25:36Z</time>
      </trkpt>
      <trkpt lat="46.05885" lon="6.57294">
        <ele>482</ele>
        <time>2019-05-24T07:25:39Z</time>
      </trkpt>
      <trkpt lat="46.05883" lon="6.5728">
        <ele>482</ele>
        <time>2019-05-24T07:25:41Z</time>
      </trkpt>
      <trkpt lat="46.05877" lon="6.5726">
        <ele>482</ele>
        <time>2019-05-24T07:25:44Z</time>
      </trkpt>
      <trkpt lat="46.05878" lon="6.57229">
        <ele>482</ele>
        <time>2019-05-24T07:25:48Z</time>
      </trkpt>
      <trkpt lat="46.05877" lon="6.57215">
        <ele>482</ele>
        <time>2019-05-24T07:25:49Z</time>
      </trkpt>
      <trkpt lat="46.0587" lon="6.57203">
        <ele>482</ele>
        <time>2019-05-24T07:25:51Z</time>
      </trkpt>
      <trkpt lat="46.05859" lon="6.57192">
        <ele>482</ele>
        <time>2019-05-24T07:25:54Z</time>
      </trkpt>
      <trkpt lat="46.05848" lon="6.5719">
        <ele>482</ele>
        <time>2019-05-24T07:25:56Z</time>
      </trkpt>
      <trkpt lat="46.0584" lon="6.57191">
        <ele>482</ele>
        <time>2019-05-24T07:25:57Z</time>
      </trkpt>
      <trkpt lat="46.05827" lon="6.57204">
        <ele>483</ele>
        <time>2019-05-24T07:26:00Z</time>
      </trkpt>
      <trkpt lat="46.05783" lon="6.57209">
        <ele>483</ele>
        <time>2019-05-24T07:26:08Z</time>
      </trkpt>
      <trkpt lat="46.05773" lon="6.57208">
        <ele>484</ele>
        <time>2019-05-24T07:26:10Z</time>
      </trkpt>
      <trkpt lat="46.05672" lon="6.57119">
        <ele>484</ele>
        <time>2019-05-24T07:26:31Z</time>
      </trkpt>
      <trkpt lat="46.05647" lon="6.57078">
        <ele>484</ele>
        <time>2019-05-24T07:26:37Z</time>
      </trkpt>
      <trkpt lat="46.05637" lon="6.57044">
        <ele>483</ele>
        <time>2019-05-24T07:26:42Z</time>
      </trkpt>
      <trkpt lat="46.05633" lon="6.5701">
        <ele>483</ele>
        <time>2019-05-24T07:26:46Z</time>
      </trkpt>
      <trkpt lat="46.05635" lon="6.56972">
        <ele>483</ele>
        <time>2019-05-24T07:26:51Z</time>
      </trkpt>
      <trkpt lat="46.05653" lon="6.56819">
        <ele>482</ele>
        <time>2019-05-24T07:27:10Z</time>
      </trkpt>
      <trkpt lat="46.05651" lon="6.56779">
        <ele>482</ele>
        <time>2019-05-24T07:27:15Z</time>
      </trkpt>
      <trkpt lat="46.05644" lon="6.56735">
        <ele>482</ele>
        <time>2019-05-24T07:27:21Z</time>
      </trkpt>
      <trkpt lat="46.05599" lon="6.56588">
        <ele>481</ele>
        <time>2019-05-24T07:27:41Z</time>
      </trkpt>
      <trkpt lat="46.05602" lon="6.56584">
        <ele>481</ele>
        <time>2019-05-24T07:27:41Z</time>
      </trkpt>
      <trkpt lat="46.05605" lon="6.56578">
        <ele>481</ele>
        <time>2019-05-24T07:27:42Z</time>
      </trkpt>
      <trkpt lat="46.05605" lon="6.56566">
        <ele>482</ele>
        <time>2019-05-24T07:27:44Z</time>
      </trkpt>
      <trkpt lat="46.05601" lon="6.56559">
        <ele>482</ele>
        <time>2019-05-24T07:27:45Z</time>
      </trkpt>
      <trkpt lat="46.05597" lon="6.56556">
        <ele>482</ele>
        <time>2019-05-24T07:27:46Z</time>
      </trkpt>
      <trkpt lat="46.05592" lon="6.56555">
        <ele>482</ele>
        <time>2019-05-24T07:27:46Z</time>
      </trkpt>
      <trkpt lat="46.05588" lon="6.56557">
        <ele>482</ele>
        <time>2019-05-24T07:27:47Z</time>
      </trkpt>
      <trkpt lat="46.05567" lon="6.56492">
        <ele>484</ele>
        <time>2019-05-24T07:27:56Z</time>
      </trkpt>
      <trkpt lat="46.05548" lon="6.56361">
        <ele>485</ele>
        <time>2019-05-24T07:28:13Z</time>
      </trkpt>
      <trkpt lat="46.05544" lon="6.56248">
        <ele>488</ele>
        <time>2019-05-24T07:28:27Z</time>
      </trkpt>
      <trkpt lat="46.05551" lon="6.56243">
        <ele>488</ele>
        <time>2019-05-24T07:28:28Z</time>
      </trkpt>
      <trkpt lat="46.05555" lon="6.56233">
        <ele>488</ele>
        <time>2019-05-24T07:28:29Z</time>
      </trkpt>
      <trkpt lat="46.05555" lon="6.56224">
        <ele>488</ele>
        <time>2019-05-24T07:28:30Z</time>
      </trkpt>
      <trkpt lat="46.05548" lon="6.56206">
        <ele>488</ele>
        <time>2019-05-24T07:28:33Z</time>
      </trkpt>
      <trkpt lat="46.05538" lon="6.56206">
        <ele>488</ele>
        <time>2019-05-24T07:28:35Z</time>
      </trkpt>
      <trkpt lat="46.0553" lon="6.56211">
        <ele>488</ele>
        <time>2019-05-24T07:28:36Z</time>
      </trkpt>
      <trkpt lat="46.05513" lon="6.56179">
        <ele>488</ele>
        <time>2019-05-24T07:28:41Z</time>
      </trkpt>
      <trkpt lat="46.05494" lon="6.56137">
        <ele>488</ele>
        <time>2019-05-24T07:28:48Z</time>
      </trkpt>
      <trkpt lat="46.05408" lon="6.55859">
        <ele>491</ele>
        <time>2019-05-24T07:29:25Z</time>
      </trkpt>
      <trkpt lat="46.05386" lon="6.55802">
        <ele>492</ele>
        <time>2019-05-24T07:29:33Z</time>
      </trkpt>
      <trkpt lat="46.05303" lon="6.55622">
        <ele>497</ele>
        <time>2019-05-24T07:30:00Z</time>
      </trkpt>
      <trkpt lat="46.05299" lon="6.55597">
        <ele>497</ele>
        <time>2019-05-24T07:30:03Z</time>
      </trkpt>
      <trkpt lat="46.05297" lon="6.55517">
        <ele>501</ele>
        <time>2019-05-24T07:30:13Z</time>
      </trkpt>
      <trkpt lat="46.0531" lon="6.55438">
        <ele>501</ele>
        <time>2019-05-24T07:30:23Z</time>
      </trkpt>
      <trkpt lat="46.05308" lon="6.55396">
        <ele>501</ele>
        <time>2019-05-24T07:30:28Z</time>
      </trkpt>
      <trkpt lat="46.053" lon="6.55334">
        <ele>503</ele>
        <time>2019-05-24T07:30:36Z</time>
      </trkpt>
      <trkpt lat="46.05301" lon="6.55296">
        <ele>503</ele>
        <time>2019-05-24T07:30:41Z</time>
      </trkpt>
      <trkpt lat="46.05305" lon="6.55263">
        <ele>503</ele>
        <time>2019-05-24T07:30:45Z</time>
      </trkpt>
      <trkpt lat="46.05303" lon="6.55225">
        <ele>504</ele>
        <time>2019-05-24T07:30:49Z</time>
      </trkpt>
      <trkpt lat="46.05295" lon="6.55173">
        <ele>505</ele>
        <time>2019-05-24T07:30:56Z</time>
      </trkpt>
      <trkpt lat="46.05269" lon="6.55122">
        <ele>504</ele>
        <time>2019-05-24T07:31:04Z</time>
      </trkpt>
      <trkpt lat="46.05264" lon="6.55088">
        <ele>503</ele>
        <time>2019-05-24T07:31:08Z</time>
      </trkpt>
      <trkpt lat="46.05255" lon="6.55048">
        <ele>503</ele>
        <time>2019-05-24T07:31:13Z</time>
      </trkpt>
      <trkpt lat="46.0525" lon="6.54971">
        <ele>502</ele>
        <time>2019-05-24T07:31:23Z</time>
      </trkpt>
      <trkpt lat="46.05225" lon="6.54899">
        <ele>506</ele>
        <time>2019-05-24T07:31:33Z</time>
      </trkpt>
      <trkpt lat="46.05222" lon="6.54857">
        <ele>508</ele>
        <time>2019-05-24T07:31:38Z</time>
      </trkpt>
      <trkpt lat="46.05224" lon="6.54805">
        <ele>509</ele>
        <time>2019-05-24T07:31:44Z</time>
      </trkpt>
      <trkpt lat="46.05203" lon="6.54666">
        <ele>514</ele>
        <time>2019-05-24T07:32:02Z</time>
      </trkpt>
      <trkpt lat="46.05206" lon="6.54633">
        <ele>515</ele>
        <time>2019-05-24T07:32:06Z</time>
      </trkpt>
      <trkpt lat="46.05212" lon="6.5461">
        <ele>514</ele>
        <time>2019-05-24T07:32:09Z</time>
      </trkpt>
      <trkpt lat="46.05263" lon="6.54539">
        <ele>514</ele>
        <time>2019-05-24T07:32:22Z</time>
      </trkpt>
      <trkpt lat="46.05274" lon="6.54509">
        <ele>516</ele>
        <time>2019-05-24T07:32:26Z</time>
      </trkpt>
      <trkpt lat="46.05274" lon="6.54475">
        <ele>518</ele>
        <time>2019-05-24T07:32:30Z</time>
      </trkpt>
      <trkpt lat="46.05261" lon="6.54432">
        <ele>523</ele>
        <time>2019-05-24T07:32:36Z</time>
      </trkpt>
      <trkpt lat="46.05257" lon="6.54394">
        <ele>525</ele>
        <time>2019-05-24T07:32:41Z</time>
      </trkpt>
      <trkpt lat="46.05264" lon="6.54353">
        <ele>524</ele>
        <time>2019-05-24T07:32:46Z</time>
      </trkpt>
      <trkpt lat="46.05277" lon="6.54293">
        <ele>522</ele>
        <time>2019-05-24T07:32:54Z</time>
      </trkpt>
      <trkpt lat="46.05274" lon="6.54247">
        <ele>525</ele>
        <time>2019-05-24T07:32:59Z</time>
      </trkpt>
      <trkpt lat="46.05256" lon="6.54214">
        <ele>528</ele>
        <time>2019-05-24T07:33:05Z</time>
      </trkpt>
      <trkpt lat="46.05219" lon="6.54185">
        <ele>539</ele>
        <time>2019-05-24T07:33:12Z</time>
      </trkpt>
      <trkpt lat="46.05207" lon="6.54156">
        <ele>543</ele>
        <time>2019-05-24T07:33:16Z</time>
      </trkpt>
      <trkpt lat="46.05212" lon="6.54118">
        <ele>544</ele>
        <time>2019-05-24T07:33:21Z</time>
      </trkpt>
      <trkpt lat="46.05232" lon="6.54089">
        <ele>540</ele>
        <time>2019-05-24T07:33:26Z</time>
      </trkpt>
      <trkpt lat="46.05272" lon="6.54074">
        <ele>533</ele>
        <time>2019-05-24T07:33:33Z</time>
      </trkpt>
      <trkpt lat="46.0529" lon="6.54057">
        <ele>531</ele>
        <time>2019-05-24T07:33:37Z</time>
      </trkpt>
      <trkpt lat="46.05297" lon="6.5403">
        <ele>533</ele>
        <time>2019-05-24T07:33:41Z</time>
      </trkpt>
      <trkpt lat="46.0531" lon="6.53928">
        <ele>540</ele>
        <time>2019-05-24T07:33:54Z</time>
      </trkpt>
      <trkpt lat="46.05329" lon="6.53889">
        <ele>540</ele>
        <time>2019-05-24T07:33:59Z</time>
      </trkpt>
      <trkpt lat="46.05353" lon="6.53856">
        <ele>539</ele>
        <time>2019-05-24T07:34:05Z</time>
      </trkpt>
      <trkpt lat="46.05366" lon="6.5382">
        <ele>539</ele>
        <time>2019-05-24T07:34:10Z</time>
      </trkpt>
      <trkpt lat="46.05368" lon="6.53795">
        <ele>541</ele>
        <time>2019-05-24T07:34:14Z</time>
      </trkpt>
      <trkpt lat="46.05365" lon="6.53738">
        <ele>548</ele>
        <time>2019-05-24T07:34:21Z</time>
      </trkpt>
      <trkpt lat="46.05371" lon="6.53709">
        <ele>551</ele>
        <time>2019-05-24T07:34:24Z</time>
      </trkpt>
      <trkpt lat="46.05414" lon="6.53671">
        <ele>549</ele>
        <time>2019-05-24T07:34:33Z</time>
      </trkpt>
      <trkpt lat="46.05429" lon="6.53649">
        <ele>550</ele>
        <time>2019-05-24T07:34:37Z</time>
      </trkpt>
      <trkpt lat="46.05444" lon="6.53613">
        <ele>553</ele>
        <time>2019-05-24T07:34:42Z</time>
      </trkpt>
      <trkpt lat="46.05471" lon="6.5352">
        <ele>556</ele>
        <time>2019-05-24T07:34:55Z</time>
      </trkpt>
      <trkpt lat="46.05475" lon="6.53473">
        <ele>558</ele>
        <time>2019-05-24T07:35:01Z</time>
      </trkpt>
      <trkpt lat="46.05468" lon="6.53381">
        <ele>563</ele>
        <time>2019-05-24T07:35:12Z</time>
      </trkpt>
      <trkpt lat="46.0547" lon="6.53325">
        <ele>564</ele>
        <time>2019-05-24T07:35:19Z</time>
      </trkpt>
      <trkpt lat="46.055" lon="6.53178">
        <ele>574</ele>
        <time>2019-05-24T07:35:38Z</time>
      </trkpt>
      <trkpt lat="46.05539" lon="6.53094">
        <ele>576</ele>
        <time>2019-05-24T07:35:50Z</time>
      </trkpt>
      <trkpt lat="46.05558" lon="6.53027">
        <ele>577</ele>
        <time>2019-05-24T07:35:59Z</time>
      </trkpt>
      <trkpt lat="46.05563" lon="6.52939">
        <ele>579</ele>
        <time>2019-05-24T07:36:10Z</time>
      </trkpt>
      <trkpt lat="46.05535" lon="6.52802">
        <ele>580</ele>
        <time>2019-05-24T07:36:28Z</time>
      </trkpt>
      <trkpt lat="46.05526" lon="6.52787">
        <ele>580</ele>
        <time>2019-05-24T07:36:30Z</time>
      </trkpt>
      <trkpt lat="46.05514" lon="6.52775">
        <ele>581</ele>
        <time>2019-05-24T07:36:33Z</time>
      </trkpt>
      <trkpt lat="46.05499" lon="6.52772">
        <ele>583</ele>
        <time>2019-05-24T07:36:36Z</time>
      </trkpt>
      <trkpt lat="46.05484" lon="6.52776">
        <ele>585</ele>
        <time>2019-05-24T07:36:38Z</time>
      </trkpt>
      <trkpt lat="46.05396" lon="6.5282">
        <ele>598</ele>
        <time>2019-05-24T07:36:55Z</time>
      </trkpt>
      <trkpt lat="46.05388" lon="6.52828">
        <ele>599</ele>
        <time>2019-05-24T07:36:57Z</time>
      </trkpt>
      <trkpt lat="46.05379" lon="6.52798">
        <ele>602</ele>
        <time>2019-05-24T07:37:01Z</time>
      </trkpt>
      <trkpt lat="46.05373" lon="6.52707">
        <ele>606</ele>
        <time>2019-05-24T07:37:12Z</time>
      </trkpt>
      <trkpt lat="46.0535" lon="6.5266">
        <ele>612</ele>
        <time>2019-05-24T07:37:19Z</time>
      </trkpt>
      <trkpt lat="46.05327" lon="6.52615">
        <ele>617</ele>
        <time>2019-05-24T07:37:26Z</time>
      </trkpt>
      <trkpt lat="46.05301" lon="6.52574">
        <ele>624</ele>
        <time>2019-05-24T07:37:33Z</time>
      </trkpt>
      <trkpt lat="46.05222" lon="6.52511">
        <ele>638</ele>
        <time>2019-05-24T07:37:49Z</time>
      </trkpt>
      <trkpt lat="46.05213" lon="6.52485">
        <ele>641</ele>
        <time>2019-05-24T07:37:52Z</time>
      </trkpt>
      <trkpt lat="46.05215" lon="6.52453">
        <ele>645</ele>
        <time>2019-05-24T07:37:56Z</time>
      </trkpt>
      <trkpt lat="46.05221" lon="6.5244">
        <ele>647</ele>
        <time>2019-05-24T07:37:58Z</time>
      </trkpt>
      <trkpt lat="46.05283" lon="6.52421">
        <ele>646</ele>
        <time>2019-05-24T07:38:10Z</time>
      </trkpt>
      <trkpt lat="46.05313" lon="6.52391">
        <ele>653</ele>
        <time>2019-05-24T07:38:16Z</time>
      </trkpt>
      <trkpt lat="46.05339" lon="6.52379">
        <ele>654</ele>
        <time>2019-05-24T07:38:21Z</time>
      </trkpt>
      <trkpt lat="46.05357" lon="6.52386">
        <ele>649</ele>
        <time>2019-05-24T07:38:24Z</time>
      </trkpt>
      <trkpt lat="46.05365" lon="6.52383">
        <ele>649</ele>
        <time>2019-05-24T07:38:26Z</time>
      </trkpt>
      <trkpt lat="46.05375" lon="6.52373">
        <ele>650</ele>
        <time>2019-05-24T07:38:28Z</time>
      </trkpt>
      <trkpt lat="46.05384" lon="6.5233">
        <ele>660</ele>
        <time>2019-05-24T07:38:33Z</time>
      </trkpt>
      <trkpt lat="46.05395" lon="6.52309">
        <ele>664</ele>
        <time>2019-05-24T07:38:37Z</time>
      </trkpt>
      <trkpt lat="46.05417" lon="6.52288">
        <ele>664</ele>
        <time>2019-05-24T07:38:41Z</time>
      </trkpt>
      <trkpt lat="46.05426" lon="6.5226">
        <ele>670</ele>
        <time>2019-05-24T07:38:45Z</time>
      </trkpt>
      <trkpt lat="46.05469" lon="6.52155">
        <ele>683</ele>
        <time>2019-05-24T07:39:00Z</time>
      </trkpt>
      <trkpt lat="46.05499" lon="6.5212">
        <ele>679</ele>
        <time>2019-05-24T07:39:07Z</time>
      </trkpt>
      <trkpt lat="46.05519" lon="6.52074">
        <ele>683</ele>
        <time>2019-05-24T07:39:14Z</time>
      </trkpt>
      <trkpt lat="46.05561" lon="6.51924">
        <ele>694</ele>
        <time>2019-05-24T07:39:34Z</time>
      </trkpt>
      <trkpt lat="46.05551" lon="6.51808">
        <ele>716</ele>
        <time>2019-05-24T07:39:48Z</time>
      </trkpt>
      <trkpt lat="46.05575" lon="6.51764">
        <ele>710</ele>
        <time>2019-05-24T07:39:55Z</time>
      </trkpt>
      <trkpt lat="46.0558" lon="6.51705">
        <ele>711</ele>
        <time>2019-05-24T07:40:02Z</time>
      </trkpt>
      <trkpt lat="46.05569" lon="6.51599">
        <ele>726</ele>
        <time>2019-05-24T07:40:16Z</time>
      </trkpt>
      <trkpt lat="46.05578" lon="6.51529">
        <ele>732</ele>
        <time>2019-05-24T07:40:24Z</time>
      </trkpt>
      <trkpt lat="46.05602" lon="6.5145">
        <ele>737</ele>
        <time>2019-05-24T07:40:35Z</time>
      </trkpt>
      <trkpt lat="46.05645" lon="6.51368">
        <ele>734</ele>
        <time>2019-05-24T07:40:48Z</time>
      </trkpt>
      <trkpt lat="46.05643" lon="6.51322">
        <ele>747</ele>
        <time>2019-05-24T07:40:54Z</time>
      </trkpt>
      <trkpt lat="46.05663" lon="6.51244">
        <ele>757</ele>
        <time>2019-05-24T07:41:04Z</time>
      </trkpt>
      <trkpt lat="46.05703" lon="6.51071">
        <ele>772</ele>
        <time>2019-05-24T07:41:26Z</time>
      </trkpt>
      <trkpt lat="46.05728" lon="6.5095">
        <ele>775</ele>
        <time>2019-05-24T07:41:42Z</time>
      </trkpt>
      <trkpt lat="46.05754" lon="6.50767">
        <ele>782</ele>
        <time>2019-05-24T07:42:05Z</time>
      </trkpt>
      <trkpt lat="46.05745" lon="6.50663">
        <ele>785</ele>
        <time>2019-05-24T07:42:18Z</time>
      </trkpt>
      <trkpt lat="46.05734" lon="6.50635">
        <ele>790</ele>
        <time>2019-05-24T07:42:22Z</time>
      </trkpt>
      <trkpt lat="46.0568" lon="6.50599">
        <ele>816</ele>
        <time>2019-05-24T07:42:32Z</time>
      </trkpt>
      <trkpt lat="46.05665" lon="6.50544">
        <ele>824</ele>
        <time>2019-05-24T07:42:40Z</time>
      </trkpt>
      <trkpt lat="46.05675" lon="6.5049">
        <ele>821</ele>
        <time>2019-05-24T07:42:47Z</time>
      </trkpt>
      <trkpt lat="46.05666" lon="6.5045">
        <ele>824</ele>
        <time>2019-05-24T07:42:52Z</time>
      </trkpt>
      <trkpt lat="46.05649" lon="6.50393">
        <ele>830</ele>
        <time>2019-05-24T07:42:59Z</time>
      </trkpt>
      <trkpt lat="46.05633" lon="6.5037">
        <ele>836</ele>
        <time>2019-05-24T07:43:04Z</time>
      </trkpt>
      <trkpt lat="46.05622" lon="6.50336">
        <ele>838</ele>
        <time>2019-05-24T07:43:08Z</time>
      </trkpt>
      <trkpt lat="46.05642" lon="6.50312">
        <ele>837</ele>
        <time>2019-05-24T07:43:13Z</time>
      </trkpt>
      <trkpt lat="46.05759" lon="6.50279">
        <ele>827</ele>
        <time>2019-05-24T07:43:34Z</time>
      </trkpt>
      <trkpt lat="46.05777" lon="6.50263">
        <ele>827</ele>
        <time>2019-05-24T07:43:38Z</time>
      </trkpt>
      <trkpt lat="46.05791" lon="6.50236">
        <ele>829</ele>
        <time>2019-05-24T07:43:42Z</time>
      </trkpt>
      <trkpt lat="46.05775" lon="6.50079">
        <ele>849</ele>
        <time>2019-05-24T07:44:02Z</time>
      </trkpt>
      <trkpt lat="46.05767" lon="6.50021">
        <ele>853</ele>
        <time>2019-05-24T07:44:09Z</time>
      </trkpt>
      <trkpt lat="46.05758" lon="6.49975">
        <ele>857</ele>
        <time>2019-05-24T07:44:15Z</time>
      </trkpt>
      <trkpt lat="46.05746" lon="6.4984">
        <ele>865</ele>
        <time>2019-05-24T07:44:32Z</time>
      </trkpt>
      <trkpt lat="46.05748" lon="6.49792">
        <ele>866</ele>
        <time>2019-05-24T07:44:37Z</time>
      </trkpt>
      <trkpt lat="46.05763" lon="6.49718">
        <ele>862</ele>
        <time>2019-05-24T07:44:47Z</time>
      </trkpt>
      <trkpt lat="46.05776" lon="6.49681">
        <ele>858</ele>
        <time>2019-05-24T07:44:52Z</time>
      </trkpt>
      <trkpt lat="46.05781" lon="6.4965">
        <ele>857</ele>
        <time>2019-05-24T07:44:56Z</time>
      </trkpt>
      <trkpt lat="46.05776" lon="6.49562">
        <ele>860</ele>
        <time>2019-05-24T07:45:07Z</time>
      </trkpt>
      <trkpt lat="46.05763" lon="6.49498">
        <ele>864</ele>
        <time>2019-05-24T07:45:15Z</time>
      </trkpt>
      <trkpt lat="46.05759" lon="6.49467">
        <ele>868</ele>
        <time>2019-05-24T07:45:19Z</time>
      </trkpt>
      <trkpt lat="46.05759" lon="6.49442">
        <ele>870</ele>
        <time>2019-05-24T07:45:22Z</time>
      </trkpt>
      <trkpt lat="46.05763" lon="6.49425">
        <ele>871</ele>
        <time>2019-05-24T07:45:24Z</time>
      </trkpt>
      <trkpt lat="46.05788" lon="6.49362">
        <ele>873</ele>
        <time>2019-05-24T07:45:33Z</time>
      </trkpt>
      <trkpt lat="46.05792" lon="6.49343">
        <ele>874</ele>
        <time>2019-05-24T07:45:36Z</time>
      </trkpt>
      <trkpt lat="46.058" lon="6.49289">
        <ele>877</ele>
        <time>2019-05-24T07:45:43Z</time>
      </trkpt>
      <trkpt lat="46.05802" lon="6.49267">
        <ele>878</ele>
        <time>2019-05-24T07:45:45Z</time>
      </trkpt>
      <trkpt lat="46.05801" lon="6.49243">
        <ele>879</ele>
        <time>2019-05-24T07:45:48Z</time>
      </trkpt>
      <trkpt lat="46.05796" lon="6.49215">
        <ele>880</ele>
        <time>2019-05-24T07:45:52Z</time>
      </trkpt>
      <trkpt lat="46.0579" lon="6.49193">
        <ele>881</ele>
        <time>2019-05-24T07:45:55Z</time>
      </trkpt>
      <trkpt lat="46.05782" lon="6.49176">
        <ele>882</ele>
        <time>2019-05-24T07:45:57Z</time>
      </trkpt>
      <trkpt lat="46.05773" lon="6.49164">
        <ele>884</ele>
        <time>2019-05-24T07:45:59Z</time>
      </trkpt>
      <trkpt lat="46.05765" lon="6.49157">
        <ele>884</ele>
        <time>2019-05-24T07:46:01Z</time>
      </trkpt>
      <trkpt lat="46.05739" lon="6.49146">
        <ele>888</ele>
        <time>2019-05-24T07:46:06Z</time>
      </trkpt>
      <trkpt lat="46.05704" lon="6.49139">
        <ele>894</ele>
        <time>2019-05-24T07:46:12Z</time>
      </trkpt>
      <trkpt lat="46.05679" lon="6.49124">
        <ele>899</ele>
        <time>2019-05-24T07:46:17Z</time>
      </trkpt>
      <trkpt lat="46.05672" lon="6.49122">
        <ele>900</ele>
        <time>2019-05-24T07:46:18Z</time>
      </trkpt>
      <trkpt lat="46.05654" lon="6.49126">
        <ele>903</ele>
        <time>2019-05-24T07:46:22Z</time>
      </trkpt>
      <trkpt lat="46.05608" lon="6.49156">
        <ele>906</ele>
        <time>2019-05-24T07:46:31Z</time>
      </trkpt>
      <trkpt lat="46.05596" lon="6.49166">
        <ele>906</ele>
        <time>2019-05-24T07:46:33Z</time>
      </trkpt>
      <trkpt lat="46.05578" lon="6.49189">
        <ele>909</ele>
        <time>2019-05-24T07:46:37Z</time>
      </trkpt>
      <trkpt lat="46.05537" lon="6.49276">
        <ele>918</ele>
        <time>2019-05-24T07:46:50Z</time>
      </trkpt>
      <trkpt lat="46.05515" lon="6.4931">
        <ele>922</ele>
        <time>2019-05-24T07:46:56Z</time>
      </trkpt>
      <trkpt lat="46.05501" lon="6.49314">
        <ele>922</ele>
        <time>2019-05-24T07:46:59Z</time>
      </trkpt>
      <trkpt lat="46.05489" lon="6.49314">
        <ele>924</ele>
        <time>2019-05-24T07:47:01Z</time>
      </trkpt>
      <trkpt lat="46.05476" lon="6.49309">
        <ele>926</ele>
        <time>2019-05-24T07:47:03Z</time>
      </trkpt>
      <trkpt lat="46.05464" lon="6.49298">
        <ele>928</ele>
        <time>2019-05-24T07:47:06Z</time>
      </trkpt>
      <trkpt lat="46.05454" lon="6.49283">
        <ele>929</ele>
        <time>2019-05-24T07:47:08Z</time>
      </trkpt>
      <trkpt lat="46.05448" lon="6.49266">
        <ele>930</ele>
        <time>2019-05-24T07:47:11Z</time>
      </trkpt>
      <trkpt lat="46.05445" lon="6.49246">
        <ele>930</ele>
        <time>2019-05-24T07:47:13Z</time>
      </trkpt>
      <trkpt lat="46.05446" lon="6.49114">
        <ele>935</ele>
        <time>2019-05-24T07:47:29Z</time>
      </trkpt>
      <trkpt lat="46.05458" lon="6.49069">
        <ele>934</ele>
        <time>2019-05-24T07:47:35Z</time>
      </trkpt>
      <trkpt lat="46.05457" lon="6.4904">
        <ele>936</ele>
        <time>2019-05-24T07:47:39Z</time>
      </trkpt>
      <trkpt lat="46.05445" lon="6.49025">
        <ele>938</ele>
        <time>2019-05-24T07:47:42Z</time>
      </trkpt>
      <trkpt lat="46.05411" lon="6.49005">
        <ele>944</ele>
        <time>2019-05-24T07:47:48Z</time>
      </trkpt>
      <trkpt lat="46.054" lon="6.4899">
        <ele>946</ele>
        <time>2019-05-24T07:47:51Z</time>
      </trkpt>
      <trkpt lat="46.05394" lon="6.48972">
        <ele>949</ele>
        <time>2019-05-24T07:47:53Z</time>
      </trkpt>
      <trkpt lat="46.05393" lon="6.4895">
        <ele>951</ele>
        <time>2019-05-24T07:47:56Z</time>
      </trkpt>
      <trkpt lat="46.05417" lon="6.48778">
        <ele>961</ele>
        <time>2019-05-24T07:48:18Z</time>
      </trkpt>
      <trkpt lat="46.05417" lon="6.48746">
        <ele>963</ele>
        <time>2019-05-24T07:48:22Z</time>
      </trkpt>
      <trkpt lat="46.05413" lon="6.48715">
        <ele>966</ele>
        <time>2019-05-24T07:48:26Z</time>
      </trkpt>
      <trkpt lat="46.05393" lon="6.4865">
        <ele>973</ele>
        <time>2019-05-24T07:48:34Z</time>
      </trkpt>
      <trkpt lat="46.05377" lon="6.48618">
        <ele>975</ele>
        <time>2019-05-24T07:48:39Z</time>
      </trkpt>
      <trkpt lat="46.0535" lon="6.48581">
        <ele>977</ele>
        <time>2019-05-24T07:48:46Z</time>
      </trkpt>
      <trkpt lat="46.05303" lon="6.4854">
        <ele>978</ele>
        <time>2019-05-24T07:48:56Z</time>
      </trkpt>
      <trkpt lat="46.05292" lon="6.48527">
        <ele>977</ele>
        <time>2019-05-24T07:48:58Z</time>
      </trkpt>
      <trkpt lat="46.05253" lon="6.48497">
        <ele>977</ele>
        <time>2019-05-24T07:49:06Z</time>
      </trkpt>
      <trkpt lat="46.05229" lon="6.4847">
        <ele>977</ele>
        <time>2019-05-24T07:49:12Z</time>
      </trkpt>
      <trkpt lat="46.05149" lon="6.4839">
        <ele>973</ele>
        <time>2019-05-24T07:49:29Z</time>
      </trkpt>
      <trkpt lat="46.05071" lon="6.48285">
        <ele>969</ele>
        <time>2019-05-24T07:49:48Z</time>
      </trkpt>
      <trkpt lat="46.05053" lon="6.48266">
        <ele>968</ele>
        <time>2019-05-24T07:49:52Z</time>
      </trkpt>
      <trkpt lat="46.05" lon="6.48219">
        <ele>969</ele>
        <time>2019-05-24T07:50:03Z</time>
      </trkpt>
      <trkpt lat="46.0499" lon="6.48196">
        <ele>970</ele>
        <time>2019-05-24T07:50:06Z</time>
      </trkpt>
      <trkpt lat="46.04989" lon="6.48167">
        <ele>970</ele>
        <time>2019-05-24T07:50:10Z</time>
      </trkpt>
      <trkpt lat="46.05024" lon="6.48114">
        <ele>966</ele>
        <time>2019-05-24T07:50:19Z</time>
      </trkpt>
      <trkpt lat="46.05031" lon="6.48093">
        <ele>965</ele>
        <time>2019-05-24T07:50:22Z</time>
      </trkpt>
      <trkpt lat="46.05063" lon="6.47962">
        <ele>964</ele>
        <time>2019-05-24T07:50:39Z</time>
      </trkpt>
      <trkpt lat="46.05065" lon="6.47942">
        <ele>964</ele>
        <time>2019-05-24T07:50:41Z</time>
      </trkpt>
      <trkpt lat="46.05062" lon="6.47925">
        <ele>964</ele>
        <time>2019-05-24T07:50:44Z</time>
      </trkpt>
      <trkpt lat="46.05056" lon="6.4791">
        <ele>965</ele>
        <time>2019-05-24T07:50:46Z</time>
      </trkpt>
      <trkpt lat="46.05043" lon="6.47892">
        <ele>965</ele>
        <time>2019-05-24T07:50:49Z</time>
      </trkpt>
      <trkpt lat="46.05032" lon="6.4788">
        <ele>965</ele>
        <time>2019-05-24T07:50:51Z</time>
      </trkpt>
      <trkpt lat="46.05008" lon="6.47851">
        <ele>963</ele>
        <time>2019-05-24T07:50:57Z</time>
      </trkpt>
      <trkpt lat="46.05002" lon="6.47835">
        <ele>961</ele>
        <time>2019-05-24T07:50:59Z</time>
      </trkpt>
      <trkpt lat="46.04973" lon="6.47826">
        <ele>961</ele>
        <time>2019-05-24T07:51:04Z</time>
      </trkpt>
      <trkpt lat="46.04967" lon="6.47819">
        <ele>960</ele>
        <time>2019-05-24T07:51:06Z</time>
      </trkpt>
      <trkpt lat="46.04947" lon="6.47774">
        <ele>959</ele>
        <time>2019-05-24T07:51:12Z</time>
      </trkpt>
      <trkpt lat="46.0494" lon="6.47751">
        <ele>959</ele>
        <time>2019-05-24T07:51:16Z</time>
      </trkpt>
      <trkpt lat="46.04935" lon="6.47722">
        <ele>959</ele>
        <time>2019-05-24T07:51:19Z</time>
      </trkpt>
      <trkpt lat="46.0493" lon="6.47673">
        <ele>958</ele>
        <time>2019-05-24T07:51:25Z</time>
      </trkpt>
      <trkpt lat="46.04925" lon="6.47646">
        <ele>957</ele>
        <time>2019-05-24T07:51:29Z</time>
      </trkpt>
      <trkpt lat="46.04912" lon="6.47592">
        <ele>956</ele>
        <time>2019-05-24T07:51:36Z</time>
      </trkpt>
      <trkpt lat="46.04908" lon="6.47579">
        <ele>955</ele>
        <time>2019-05-24T07:51:38Z</time>
      </trkpt>
      <trkpt lat="46.04904" lon="6.47572">
        <ele>955</ele>
        <time>2019-05-24T07:51:39Z</time>
      </trkpt>
      <trkpt lat="46.04896" lon="6.47566">
        <ele>955</ele>
        <time>2019-05-24T07:51:40Z</time>
      </trkpt>
      <trkpt lat="46.04885" lon="6.47563">
        <ele>955</ele>
        <time>2019-05-24T07:51:42Z</time>
      </trkpt>
      <trkpt lat="46.04865" lon="6.47564">
        <ele>956</ele>
        <time>2019-05-24T07:51:46Z</time>
      </trkpt>
      <trkpt lat="46.04848" lon="6.47549">
        <ele>956</ele>
        <time>2019-05-24T07:51:49Z</time>
      </trkpt>
      <trkpt lat="46.04835" lon="6.47531">
        <ele>956</ele>
        <time>2019-05-24T07:51:53Z</time>
      </trkpt>
      <trkpt lat="46.04826" lon="6.47443">
        <ele>960</ele>
        <time>2019-05-24T07:52:04Z</time>
      </trkpt>
      <trkpt lat="46.04832" lon="6.47092">
        <ele>966</ele>
        <time>2019-05-24T07:52:47Z</time>
      </trkpt>
      <trkpt lat="46.04827" lon="6.46951">
        <ele>966</ele>
        <time>2019-05-24T07:53:04Z</time>
      </trkpt>
      <trkpt lat="46.04829" lon="6.46778">
        <ele>960</ele>
        <time>2019-05-24T07:53:26Z</time>
      </trkpt>
      <trkpt lat="46.04812" lon="6.46728">
        <ele>962</ele>
        <time>2019-05-24T07:53:33Z</time>
      </trkpt>
      <trkpt lat="46.0481" lon="6.46707">
        <ele>961</ele>
        <time>2019-05-24T07:53:35Z</time>
      </trkpt>
      <trkpt lat="46.04809" lon="6.46664">
        <ele>959</ele>
        <time>2019-05-24T07:53:41Z</time>
      </trkpt>
      <trkpt lat="46.04804" lon="6.46597">
        <ele>957</ele>
        <time>2019-05-24T07:53:49Z</time>
      </trkpt>
      <trkpt lat="46.04807" lon="6.46564">
        <ele>954</ele>
        <time>2019-05-24T07:53:53Z</time>
      </trkpt>
      <trkpt lat="46.04806" lon="6.46553">
        <ele>954</ele>
        <time>2019-05-24T07:53:54Z</time>
      </trkpt>
      <trkpt lat="46.04803" lon="6.46543">
        <ele>954</ele>
        <time>2019-05-24T07:53:56Z</time>
      </trkpt>
      <trkpt lat="46.04798" lon="6.46535">
        <ele>955</ele>
        <time>2019-05-24T07:53:57Z</time>
      </trkpt>
      <trkpt lat="46.0479" lon="6.4653">
        <ele>956</ele>
        <time>2019-05-24T07:53:59Z</time>
      </trkpt>
      <trkpt lat="46.04779" lon="6.46528">
        <ele>959</ele>
        <time>2019-05-24T07:54:01Z</time>
      </trkpt>
      <trkpt lat="46.04763" lon="6.46527">
        <ele>963</ele>
        <time>2019-05-24T07:54:03Z</time>
      </trkpt>
      <trkpt lat="46.04743" lon="6.46513">
        <ele>967</ele>
        <time>2019-05-24T07:54:07Z</time>
      </trkpt>
      <trkpt lat="46.04716" lon="6.46509">
        <ele>977</ele>
        <time>2019-05-24T07:54:12Z</time>
      </trkpt>
      <trkpt lat="46.04707" lon="6.46506">
        <ele>979</ele>
        <time>2019-05-24T07:54:14Z</time>
      </trkpt>
      <trkpt lat="46.04711" lon="6.46473">
        <ele>979</ele>
        <time>2019-05-24T07:54:18Z</time>
      </trkpt>
      <trkpt lat="46.04716" lon="6.46458">
        <ele>979</ele>
        <time>2019-05-24T07:54:20Z</time>
      </trkpt>
      <trkpt lat="46.04725" lon="6.46449">
        <ele>976</ele>
        <time>2019-05-24T07:54:22Z</time>
      </trkpt>
      <trkpt lat="46.04739" lon="6.46426">
        <ele>972</ele>
        <time>2019-05-24T07:54:26Z</time>
      </trkpt>
      <trkpt lat="46.04746" lon="6.46418">
        <ele>970</ele>
        <time>2019-05-24T07:54:27Z</time>
      </trkpt>
      <trkpt lat="46.0476" lon="6.46412">
        <ele>966</ele>
        <time>2019-05-24T07:54:30Z</time>
      </trkpt>
      <trkpt lat="46.04771" lon="6.46404">
        <ele>964</ele>
        <time>2019-05-24T07:54:32Z</time>
      </trkpt>
      <trkpt lat="46.04778" lon="6.46376">
        <ele>966</ele>
        <time>2019-05-24T07:54:36Z</time>
      </trkpt>
      <trkpt lat="46.04789" lon="6.46352">
        <ele>967</ele>
        <time>2019-05-24T07:54:39Z</time>
      </trkpt>
      <trkpt lat="46.04794" lon="6.46334">
        <ele>968</ele>
        <time>2019-05-24T07:54:42Z</time>
      </trkpt>
      <trkpt lat="46.048" lon="6.46251">
        <ele>969</ele>
        <time>2019-05-24T07:54:52Z</time>
      </trkpt>
      <trkpt lat="46.04796" lon="6.46228">
        <ele>971</ele>
        <time>2019-05-24T07:54:55Z</time>
      </trkpt>
      <trkpt lat="46.0479" lon="6.46206">
        <ele>973</ele>
        <time>2019-05-24T07:54:58Z</time>
      </trkpt>
      <trkpt lat="46.04788" lon="6.46158">
        <ele>973</ele>
        <time>2019-05-24T07:55:04Z</time>
      </trkpt>
      <trkpt lat="46.04772" lon="6.46091">
        <ele>974</ele>
        <time>2019-05-24T07:55:13Z</time>
      </trkpt>
      <trkpt lat="46.0475" lon="6.46049">
        <ele>976</ele>
        <time>2019-05-24T07:55:19Z</time>
      </trkpt>
      <trkpt lat="46.04741" lon="6.46023">
        <ele>976</ele>
        <time>2019-05-24T07:55:23Z</time>
      </trkpt>
      <trkpt lat="46.04729" lon="6.45968">
        <ele>974</ele>
        <time>2019-05-24T07:55:30Z</time>
      </trkpt>
      <trkpt lat="46.04713" lon="6.45917">
        <ele>971</ele>
        <time>2019-05-24T07:55:37Z</time>
      </trkpt>
      <trkpt lat="46.04699" lon="6.45896">
        <ele>969</ele>
        <time>2019-05-24T07:55:40Z</time>
      </trkpt>
      <trkpt lat="46.04679" lon="6.45892">
        <ele>973</ele>
        <time>2019-05-24T07:55:44Z</time>
      </trkpt>
      <trkpt lat="46.04666" lon="6.45888">
        <ele>975</ele>
        <time>2019-05-24T07:55:46Z</time>
      </trkpt>
      <trkpt lat="46.04643" lon="6.45871">
        <ele>978</ele>
        <time>2019-05-24T07:55:51Z</time>
      </trkpt>
      <trkpt lat="46.04617" lon="6.45868">
        <ele>986</ele>
        <time>2019-05-24T07:55:56Z</time>
      </trkpt>
      <trkpt lat="46.04596" lon="6.45859">
        <ele>989</ele>
        <time>2019-05-24T07:55:59Z</time>
      </trkpt>
      <trkpt lat="46.04569" lon="6.45799">
        <ele>989</ele>
        <time>2019-05-24T07:56:08Z</time>
      </trkpt>
      <trkpt lat="46.04569" lon="6.45786">
        <ele>987</ele>
        <time>2019-05-24T07:56:10Z</time>
      </trkpt>
      <trkpt lat="46.04555" lon="6.45759">
        <ele>992</ele>
        <time>2019-05-24T07:56:14Z</time>
      </trkpt>
      <trkpt lat="46.04556" lon="6.45738">
        <ele>992</ele>
        <time>2019-05-24T07:56:17Z</time>
      </trkpt>
      <trkpt lat="46.04565" lon="6.45709">
        <ele>990</ele>
        <time>2019-05-24T07:56:21Z</time>
      </trkpt>
      <trkpt lat="46.0459" lon="6.45659">
        <ele>984</ele>
        <time>2019-05-24T07:56:28Z</time>
      </trkpt>
      <trkpt lat="46.04605" lon="6.4565">
        <ele>980</ele>
        <time>2019-05-24T07:56:31Z</time>
      </trkpt>
      <trkpt lat="46.04626" lon="6.45644">
        <ele>972</ele>
        <time>2019-05-24T07:56:35Z</time>
      </trkpt>
      <trkpt lat="46.04633" lon="6.45637">
        <ele>970</ele>
        <time>2019-05-24T07:56:36Z</time>
      </trkpt>
      <trkpt lat="46.04634" lon="6.45599">
        <ele>975</ele>
        <time>2019-05-24T07:56:41Z</time>
      </trkpt>
      <trkpt lat="46.04632" lon="6.45576">
        <ele>979</ele>
        <time>2019-05-24T07:56:44Z</time>
      </trkpt>
      <trkpt lat="46.04642" lon="6.45441">
        <ele>982</ele>
        <time>2019-05-24T07:57:01Z</time>
      </trkpt>
      <trkpt lat="46.0464" lon="6.45359">
        <ele>985</ele>
        <time>2019-05-24T07:57:11Z</time>
      </trkpt>
      <trkpt lat="46.04642" lon="6.4532">
        <ele>984</ele>
        <time>2019-05-24T07:57:16Z</time>
      </trkpt>
      <trkpt lat="46.04661" lon="6.45258">
        <ele>973</ele>
        <time>2019-05-24T07:57:24Z</time>
      </trkpt>
      <trkpt lat="46.04663" lon="6.45196">
        <ele>974</ele>
        <time>2019-05-24T07:57:32Z</time>
      </trkpt>
      <trkpt lat="46.04701" lon="6.45056">
        <ele>978</ele>
        <time>2019-05-24T07:57:50Z</time>
      </trkpt>
      <trkpt lat="46.04706" lon="6.45">
        <ele>982</ele>
        <time>2019-05-24T07:57:57Z</time>
      </trkpt>
      <trkpt lat="46.04719" lon="6.44971">
        <ele>982</ele>
        <time>2019-05-24T07:58:02Z</time>
      </trkpt>
      <trkpt lat="46.04734" lon="6.44898">
        <ele>987</ele>
        <time>2019-05-24T07:58:11Z</time>
      </trkpt>
      <trkpt lat="46.0474" lon="6.44884">
        <ele>987</ele>
        <time>2019-05-24T07:58:13Z</time>
      </trkpt>
      <trkpt lat="46.04747" lon="6.44874">
        <ele>985</ele>
        <time>2019-05-24T07:58:15Z</time>
      </trkpt>
      <trkpt lat="46.04759" lon="6.44861">
        <ele>984</ele>
        <time>2019-05-24T07:58:17Z</time>
      </trkpt>
      <trkpt lat="46.0478" lon="6.44842">
        <ele>982</ele>
        <time>2019-05-24T07:58:22Z</time>
      </trkpt>
      <trkpt lat="46.04789" lon="6.44838">
        <ele>981</ele>
        <time>2019-05-24T07:58:23Z</time>
      </trkpt>
      <trkpt lat="46.04794" lon="6.44832">
        <ele>981</ele>
        <time>2019-05-24T07:58:25Z</time>
      </trkpt>
      <trkpt lat="46.04799" lon="6.44815">
        <ele>981</ele>
        <time>2019-05-24T07:58:27Z</time>
      </trkpt>
      <trkpt lat="46.04797" lon="6.44781">
        <ele>984</ele>
        <time>2019-05-24T07:58:31Z</time>
      </trkpt>
      <trkpt lat="46.04812" lon="6.44745">
        <ele>982</ele>
        <time>2019-05-24T07:58:36Z</time>
      </trkpt>
      <trkpt lat="46.04815" lon="6.44703">
        <ele>982</ele>
        <time>2019-05-24T07:58:42Z</time>
      </trkpt>
      <trkpt lat="46.04811" lon="6.44689">
        <ele>984</ele>
        <time>2019-05-24T07:58:43Z</time>
      </trkpt>
      <trkpt lat="46.04799" lon="6.44671">
        <ele>986</ele>
        <time>2019-05-24T07:58:46Z</time>
      </trkpt>
      <trkpt lat="46.04785" lon="6.44656">
        <ele>989</ele>
        <time>2019-05-24T07:58:50Z</time>
      </trkpt>
      <trkpt lat="46.04754" lon="6.44647">
        <ele>994</ele>
        <time>2019-05-24T07:58:55Z</time>
      </trkpt>
      <trkpt lat="46.04734" lon="6.44634">
        <ele>998</ele>
        <time>2019-05-24T07:58:59Z</time>
      </trkpt>
      <trkpt lat="46.04718" lon="6.44618">
        <ele>1000</ele>
        <time>2019-05-24T07:59:03Z</time>
      </trkpt>
      <trkpt lat="46.04705" lon="6.4461">
        <ele>1002</ele>
        <time>2019-05-24T07:59:05Z</time>
      </trkpt>
      <trkpt lat="46.047" lon="6.44602">
        <ele>1003</ele>
        <time>2019-05-24T07:59:06Z</time>
      </trkpt>
      <trkpt lat="46.04698" lon="6.4459">
        <ele>1002</ele>
        <time>2019-05-24T07:59:08Z</time>
      </trkpt>
      <trkpt lat="46.04701" lon="6.44575">
        <ele>1003</ele>
        <time>2019-05-24T07:59:10Z</time>
      </trkpt>
      <trkpt lat="46.04709" lon="6.44566">
        <ele>1003</ele>
        <time>2019-05-24T07:59:12Z</time>
      </trkpt>
      <trkpt lat="46.04719" lon="6.44564">
        <ele>1002</ele>
        <time>2019-05-24T07:59:13Z</time>
      </trkpt>
      <trkpt lat="46.04731" lon="6.44565">
        <ele>1001</ele>
        <time>2019-05-24T07:59:16Z</time>
      </trkpt>
      <trkpt lat="46.04745" lon="6.44562">
        <ele>999</ele>
        <time>2019-05-24T07:59:18Z</time>
      </trkpt>
      <trkpt lat="46.04755" lon="6.44557">
        <ele>1000</ele>
        <time>2019-05-24T07:59:20Z</time>
      </trkpt>
      <trkpt lat="46.04767" lon="6.44557">
        <ele>999</ele>
        <time>2019-05-24T07:59:22Z</time>
      </trkpt>
      <trkpt lat="46.04784" lon="6.44565">
        <ele>996</ele>
        <time>2019-05-24T07:59:25Z</time>
      </trkpt>
      <trkpt lat="46.04798" lon="6.44565">
        <ele>995</ele>
        <time>2019-05-24T07:59:28Z</time>
      </trkpt>
      <trkpt lat="46.04812" lon="6.4456">
        <ele>995</ele>
        <time>2019-05-24T07:59:30Z</time>
      </trkpt>
      <trkpt lat="46.04829" lon="6.44562">
        <ele>994</ele>
        <time>2019-05-24T07:59:33Z</time>
      </trkpt>
      <trkpt lat="46.04862" lon="6.44559">
        <ele>993</ele>
        <time>2019-05-24T07:59:39Z</time>
      </trkpt>
      <trkpt lat="46.0487" lon="6.44561">
        <ele>992</ele>
        <time>2019-05-24T07:59:41Z</time>
      </trkpt>
      <trkpt lat="46.04865" lon="6.44552">
        <ele>993</ele>
        <time>2019-05-24T07:59:42Z</time>
      </trkpt>
      <trkpt lat="46.04883" lon="6.44528">
        <ele>996</ele>
        <time>2019-05-24T07:59:47Z</time>
      </trkpt>
      <trkpt lat="46.04889" lon="6.44518">
        <ele>997</ele>
        <time>2019-05-24T07:59:48Z</time>
      </trkpt>
      <trkpt lat="46.04885" lon="6.44504">
        <ele>1000</ele>
        <time>2019-05-24T07:59:50Z</time>
      </trkpt>
      <trkpt lat="46.04881" lon="6.44495">
        <ele>1001</ele>
        <time>2019-05-24T07:59:51Z</time>
      </trkpt>
      <trkpt lat="46.04876" lon="6.4449">
        <ele>1002</ele>
        <time>2019-05-24T07:59:52Z</time>
      </trkpt>
      <trkpt lat="46.04873" lon="6.44483">
        <ele>1004</ele>
        <time>2019-05-24T07:59:53Z</time>
      </trkpt>
      <trkpt lat="46.04867" lon="6.44446">
        <ele>1009</ele>
        <time>2019-05-24T07:59:58Z</time>
      </trkpt>
      <trkpt lat="46.04852" lon="6.44445">
        <ele>1011</ele>
        <time>2019-05-24T08:00:01Z</time>
      </trkpt>
      <trkpt lat="46.04827" lon="6.44458">
        <ele>1011</ele>
        <time>2019-05-24T08:00:06Z</time>
      </trkpt>
      <trkpt lat="46.04796" lon="6.44476">
        <ele>1012</ele>
        <time>2019-05-24T08:00:12Z</time>
      </trkpt>
      <trkpt lat="46.0477" lon="6.44501">
        <ele>1011</ele>
        <time>2019-05-24T08:00:17Z</time>
      </trkpt>
      <trkpt lat="46.04756" lon="6.44506">
        <ele>1011</ele>
        <time>2019-05-24T08:00:20Z</time>
      </trkpt>
      <trkpt lat="46.04739" lon="6.44484">
        <ele>1016</ele>
        <time>2019-05-24T08:00:24Z</time>
      </trkpt>
      <trkpt lat="46.04712" lon="6.44486">
        <ele>1016</ele>
        <time>2019-05-24T08:00:29Z</time>
      </trkpt>
      <trkpt lat="46.04679" lon="6.44461">
        <ele>1022</ele>
        <time>2019-05-24T08:00:35Z</time>
      </trkpt>
      <trkpt lat="46.04676" lon="6.44451">
        <ele>1023</ele>
        <time>2019-05-24T08:00:36Z</time>
      </trkpt>
      <trkpt lat="46.0468" lon="6.44437">
        <ele>1025</ele>
        <time>2019-05-24T08:00:38Z</time>
      </trkpt>
      <trkpt lat="46.04746" lon="6.444">
        <ele>1029</ele>
        <time>2019-05-24T08:00:51Z</time>
      </trkpt>
      <trkpt lat="46.04762" lon="6.44388">
        <ele>1030</ele>
        <time>2019-05-24T08:00:54Z</time>
      </trkpt>
      <trkpt lat="46.04781" lon="6.44379">
        <ele>1030</ele>
        <time>2019-05-24T08:00:58Z</time>
      </trkpt>
      <trkpt lat="46.04825" lon="6.44353">
        <ele>1031</ele>
        <time>2019-05-24T08:01:06Z</time>
      </trkpt>
      <trkpt lat="46.04849" lon="6.44331">
        <ele>1034</ele>
        <time>2019-05-24T08:01:11Z</time>
      </trkpt>
      <trkpt lat="46.04866" lon="6.44309">
        <ele>1038</ele>
        <time>2019-05-24T08:01:15Z</time>
      </trkpt>
      <trkpt lat="46.04899" lon="6.44293">
        <ele>1039</ele>
        <time>2019-05-24T08:01:22Z</time>
      </trkpt>
      <trkpt lat="46.04922" lon="6.44263">
        <ele>1046</ele>
        <time>2019-05-24T08:01:27Z</time>
      </trkpt>
      <trkpt lat="46.04972" lon="6.44252">
        <ele>1048</ele>
        <time>2019-05-24T08:01:36Z</time>
      </trkpt>
      <trkpt lat="46.04983" lon="6.44247">
        <ele>1050</ele>
        <time>2019-05-24T08:01:38Z</time>
      </trkpt>
      <trkpt lat="46.04999" lon="6.44235">
        <ele>1054</ele>
        <time>2019-05-24T08:01:41Z</time>
      </trkpt>
      <trkpt lat="46.05023" lon="6.44211">
        <ele>1063</ele>
        <time>2019-05-24T08:01:46Z</time>
      </trkpt>
      <trkpt lat="46.05031" lon="6.44205">
        <ele>1065</ele>
        <time>2019-05-24T08:01:48Z</time>
      </trkpt>
      <trkpt lat="46.05049" lon="6.44205">
        <ele>1066</ele>
        <time>2019-05-24T08:01:51Z</time>
      </trkpt>
      <trkpt lat="46.05058" lon="6.44209">
        <ele>1066</ele>
        <time>2019-05-24T08:01:53Z</time>
      </trkpt>
      <trkpt lat="46.05089" lon="6.44251">
        <ele>1060</ele>
        <time>2019-05-24T08:02:01Z</time>
      </trkpt>
      <trkpt lat="46.05101" lon="6.44261">
        <ele>1060</ele>
        <time>2019-05-24T08:02:03Z</time>
      </trkpt>
      <trkpt lat="46.05113" lon="6.44269">
        <ele>1060</ele>
        <time>2019-05-24T08:02:05Z</time>
      </trkpt>
      <trkpt lat="46.05124" lon="6.44273">
        <ele>1062</ele>
        <time>2019-05-24T08:02:07Z</time>
      </trkpt>
      <trkpt lat="46.05134" lon="6.44273">
        <ele>1063</ele>
        <time>2019-05-24T08:02:09Z</time>
      </trkpt>
      <trkpt lat="46.05142" lon="6.44271">
        <ele>1065</ele>
        <time>2019-05-24T08:02:11Z</time>
      </trkpt>
      <trkpt lat="46.05163" lon="6.4426">
        <ele>1070</ele>
        <time>2019-05-24T08:02:15Z</time>
      </trkpt>
      <trkpt lat="46.05175" lon="6.4426">
        <ele>1073</ele>
        <time>2019-05-24T08:02:17Z</time>
      </trkpt>
      <trkpt lat="46.05182" lon="6.44265">
        <ele>1074</ele>
        <time>2019-05-24T08:02:18Z</time>
      </trkpt>
      <trkpt lat="46.05195" lon="6.4428">
        <ele>1076</ele>
        <time>2019-05-24T08:02:21Z</time>
      </trkpt>
      <trkpt lat="46.05205" lon="6.44297">
        <ele>1076</ele>
        <time>2019-05-24T08:02:24Z</time>
      </trkpt>
      <trkpt lat="46.05217" lon="6.44327">
        <ele>1077</ele>
        <time>2019-05-24T08:02:28Z</time>
      </trkpt>
      <trkpt lat="46.05227" lon="6.44362">
        <ele>1078</ele>
        <time>2019-05-24T08:02:33Z</time>
      </trkpt>
      <trkpt lat="46.05235" lon="6.44381">
        <ele>1080</ele>
        <time>2019-05-24T08:02:36Z</time>
      </trkpt>
      <trkpt lat="46.05241" lon="6.44391">
        <ele>1081</ele>
        <time>2019-05-24T08:02:37Z</time>
      </trkpt>
      <trkpt lat="46.05245" lon="6.44395">
        <ele>1083</ele>
        <time>2019-05-24T08:02:38Z</time>
      </trkpt>
      <trkpt lat="46.05258" lon="6.44397">
        <ele>1086</ele>
        <time>2019-05-24T08:02:40Z</time>
      </trkpt>
      <trkpt lat="46.05265" lon="6.4439">
        <ele>1087</ele>
        <time>2019-05-24T08:02:42Z</time>
      </trkpt>
      <trkpt lat="46.05268" lon="6.44379">
        <ele>1087</ele>
        <time>2019-05-24T08:02:43Z</time>
      </trkpt>
      <trkpt lat="46.05269" lon="6.44327">
        <ele>1086</ele>
        <time>2019-05-24T08:02:50Z</time>
      </trkpt>
      <trkpt lat="46.05267" lon="6.44299">
        <ele>1087</ele>
        <time>2019-05-24T08:02:53Z</time>
      </trkpt>
      <trkpt lat="46.05261" lon="6.44276">
        <ele>1088</ele>
        <time>2019-05-24T08:02:56Z</time>
      </trkpt>
      <trkpt lat="46.05242" lon="6.44224">
        <ele>1091</ele>
        <time>2019-05-24T08:03:04Z</time>
      </trkpt>
      <trkpt lat="46.05235" lon="6.44181">
        <ele>1093</ele>
        <time>2019-05-24T08:03:09Z</time>
      </trkpt>
      <trkpt lat="46.05227" lon="6.44157">
        <ele>1097</ele>
        <time>2019-05-24T08:03:12Z</time>
      </trkpt>
      <trkpt lat="46.05214" lon="6.44138">
        <ele>1102</ele>
        <time>2019-05-24T08:03:16Z</time>
      </trkpt>
      <trkpt lat="46.05201" lon="6.44124">
        <ele>1105</ele>
        <time>2019-05-24T08:03:18Z</time>
      </trkpt>
      <trkpt lat="46.05182" lon="6.4411">
        <ele>1108</ele>
        <time>2019-05-24T08:03:22Z</time>
      </trkpt>
      <trkpt lat="46.05133" lon="6.44086">
        <ele>1111</ele>
        <time>2019-05-24T08:03:31Z</time>
      </trkpt>
      <trkpt lat="46.0509" lon="6.44061">
        <ele>1116</ele>
        <time>2019-05-24T08:03:40Z</time>
      </trkpt>
      <trkpt lat="46.04979" lon="6.4397">
        <ele>1142</ele>
        <time>2019-05-24T08:04:02Z</time>
      </trkpt>
      <trkpt lat="46.04961" lon="6.43962">
        <ele>1143</ele>
        <time>2019-05-24T08:04:06Z</time>
      </trkpt>
      <trkpt lat="46.04937" lon="6.43961">
        <ele>1140</ele>
        <time>2019-05-24T08:04:10Z</time>
      </trkpt>
      <trkpt lat="46.04924" lon="6.43967">
        <ele>1136</ele>
        <time>2019-05-24T08:04:12Z</time>
      </trkpt>
      <trkpt lat="46.0491" lon="6.43976">
        <ele>1132</ele>
        <time>2019-05-24T08:04:15Z</time>
      </trkpt>
      <trkpt lat="46.04898" lon="6.4398">
        <ele>1131</ele>
        <time>2019-05-24T08:04:17Z</time>
      </trkpt>
      <trkpt lat="46.04892" lon="6.43978">
        <ele>1131</ele>
        <time>2019-05-24T08:04:18Z</time>
      </trkpt>
      <trkpt lat="46.04834" lon="6.43933">
        <ele>1141</ele>
        <time>2019-05-24T08:04:30Z</time>
      </trkpt>
      <trkpt lat="46.0482" lon="6.43924">
        <ele>1146</ele>
        <time>2019-05-24T08:04:33Z</time>
      </trkpt>
      <trkpt lat="46.04808" lon="6.4392">
        <ele>1149</ele>
        <time>2019-05-24T08:04:35Z</time>
      </trkpt>
      <trkpt lat="46.04748" lon="6.43921">
        <ele>1160</ele>
        <time>2019-05-24T08:04:46Z</time>
      </trkpt>
      <trkpt lat="46.04727" lon="6.43939">
        <ele>1161</ele>
        <time>2019-05-24T08:04:50Z</time>
      </trkpt>
      <trkpt lat="46.04703" lon="6.43956">
        <ele>1162</ele>
        <time>2019-05-24T08:04:55Z</time>
      </trkpt>
      <trkpt lat="46.04695" lon="6.43957">
        <ele>1163</ele>
        <time>2019-05-24T08:04:56Z</time>
      </trkpt>
      <trkpt lat="46.0462" lon="6.43933">
        <ele>1172</ele>
        <time>2019-05-24T08:05:10Z</time>
      </trkpt>
      <trkpt lat="46.04539" lon="6.43899">
        <ele>1177</ele>
        <time>2019-05-24T08:05:25Z</time>
      </trkpt>
      <trkpt lat="46.0451" lon="6.43891">
        <ele>1177</ele>
        <time>2019-05-24T08:05:30Z</time>
      </trkpt>
      <trkpt lat="46.04486" lon="6.43889">
        <ele>1176</ele>
        <time>2019-05-24T08:05:35Z</time>
      </trkpt>
      <trkpt lat="46.04462" lon="6.43881">
        <ele>1177</ele>
        <time>2019-05-24T08:05:39Z</time>
      </trkpt>
      <trkpt lat="46.04448" lon="6.43871">
        <ele>1179</ele>
        <time>2019-05-24T08:05:42Z</time>
      </trkpt>
      <trkpt lat="46.04421" lon="6.43837">
        <ele>1186</ele>
        <time>2019-05-24T08:05:48Z</time>
      </trkpt>
      <trkpt lat="46.04406" lon="6.43821">
        <ele>1191</ele>
        <time>2019-05-24T08:05:51Z</time>
      </trkpt>
      <trkpt lat="46.04352" lon="6.43787">
        <ele>1198</ele>
        <time>2019-05-24T08:06:02Z</time>
      </trkpt>
      <trkpt lat="46.04334" lon="6.43768">
        <ele>1203</ele>
        <time>2019-05-24T08:06:06Z</time>
      </trkpt>
      <trkpt lat="46.04288" lon="6.43743">
        <ele>1207</ele>
        <time>2019-05-24T08:06:15Z</time>
      </trkpt>
      <trkpt lat="46.04214" lon="6.43694">
        <ele>1220</ele>
        <time>2019-05-24T08:06:29Z</time>
      </trkpt>
      <trkpt lat="46.04171" lon="6.43677">
        <ele>1225</ele>
        <time>2019-05-24T08:06:37Z</time>
      </trkpt>
      <trkpt lat="46.04151" lon="6.43674">
        <ele>1233</ele>
        <time>2019-05-24T08:06:41Z</time>
      </trkpt>
      <trkpt lat="46.04145" lon="6.43679">
        <ele>1235</ele>
        <time>2019-05-24T08:06:42Z</time>
      </trkpt>
      <trkpt lat="46.04134" lon="6.43712">
        <ele>1237</ele>
        <time>2019-05-24T08:06:46Z</time>
      </trkpt>
      <trkpt lat="46.04102" lon="6.43776">
        <ele>1249</ele>
        <time>2019-05-24T08:06:56Z</time>
      </trkpt>
      <trkpt lat="46.04094" lon="6.43771">
        <ele>1254</ele>
        <time>2019-05-24T08:06:58Z</time>
      </trkpt>
      <trkpt lat="46.04094" lon="6.43759">
        <ele>1255</ele>
        <time>2019-05-24T08:06:59Z</time>
      </trkpt>
      <trkpt lat="46.04113" lon="6.43712">
        <ele>1248</ele>
        <time>2019-05-24T08:07:06Z</time>
      </trkpt>
      <trkpt lat="46.04123" lon="6.43682">
        <ele>1246</ele>
        <time>2019-05-24T08:07:10Z</time>
      </trkpt>
      <trkpt lat="46.04126" lon="6.43665">
        <ele>1246</ele>
        <time>2019-05-24T08:07:12Z</time>
      </trkpt>
      <trkpt lat="46.04124" lon="6.43648">
        <ele>1249</ele>
        <time>2019-05-24T08:07:14Z</time>
      </trkpt>
      <trkpt lat="46.04133" lon="6.43625">
        <ele>1248</ele>
        <time>2019-05-24T08:07:18Z</time>
      </trkpt>
      <trkpt lat="46.04142" lon="6.43613">
        <ele>1247</ele>
        <time>2019-05-24T08:07:20Z</time>
      </trkpt>
      <trkpt lat="46.04159" lon="6.4361">
        <ele>1242</ele>
        <time>2019-05-24T08:07:23Z</time>
      </trkpt>
      <trkpt lat="46.04172" lon="6.43604">
        <ele>1242</ele>
        <time>2019-05-24T08:07:25Z</time>
      </trkpt>
      <trkpt lat="46.04173" lon="6.43601">
        <ele>1242</ele>
        <time>2019-05-24T08:07:26Z</time>
      </trkpt>
      <trkpt lat="46.04174" lon="6.43587">
        <ele>1246</ele>
        <time>2019-05-24T08:07:27Z</time>
      </trkpt>
      <trkpt lat="46.04166" lon="6.43581">
        <ele>1247</ele>
        <time>2019-05-24T08:07:29Z</time>
      </trkpt>
      <trkpt lat="46.04113" lon="6.4358">
        <ele>1260</ele>
        <time>2019-05-24T08:07:38Z</time>
      </trkpt>
      <trkpt lat="46.04104" lon="6.43587">
        <ele>1261</ele>
        <time>2019-05-24T08:07:40Z</time>
      </trkpt>
      <trkpt lat="46.04097" lon="6.43604">
        <ele>1262</ele>
        <time>2019-05-24T08:07:43Z</time>
      </trkpt>
      <trkpt lat="46.0409" lon="6.43644">
        <ele>1264</ele>
        <time>2019-05-24T08:07:48Z</time>
      </trkpt>
      <trkpt lat="46.04071" lon="6.4369">
        <ele>1273</ele>
        <time>2019-05-24T08:07:54Z</time>
      </trkpt>
      <trkpt lat="46.04054" lon="6.4375">
        <ele>1279</ele>
        <time>2019-05-24T08:08:02Z</time>
      </trkpt>
      <trkpt lat="46.04036" lon="6.43834">
        <ele>1286</ele>
        <time>2019-05-24T08:08:13Z</time>
      </trkpt>
      <trkpt lat="46.04033" lon="6.43857">
        <ele>1287</ele>
        <time>2019-05-24T08:08:16Z</time>
      </trkpt>
      <trkpt lat="46.04037" lon="6.43952">
        <ele>1286</ele>
        <time>2019-05-24T08:08:28Z</time>
      </trkpt>
      <trkpt lat="46.04037" lon="6.44002">
        <ele>1288</ele>
        <time>2019-05-24T08:08:34Z</time>
      </trkpt>
      <trkpt lat="46.04029" lon="6.44076">
        <ele>1296</ele>
        <time>2019-05-24T08:08:43Z</time>
      </trkpt>
      <trkpt lat="46.04026" lon="6.44153">
        <ele>1298</ele>
        <time>2019-05-24T08:08:53Z</time>
      </trkpt>
      <trkpt lat="46.0402" lon="6.44202">
        <ele>1301</ele>
        <time>2019-05-24T08:08:59Z</time>
      </trkpt>
      <trkpt lat="46.04018" lon="6.44237">
        <ele>1302</ele>
        <time>2019-05-24T08:09:03Z</time>
      </trkpt>
      <trkpt lat="46.04013" lon="6.44257">
        <ele>1303</ele>
        <time>2019-05-24T08:09:06Z</time>
      </trkpt>
      <trkpt lat="46.03986" lon="6.44292">
        <ele>1305</ele>
        <time>2019-05-24T08:09:12Z</time>
      </trkpt>
      <trkpt lat="46.03962" lon="6.44333">
        <ele>1301</ele>
        <time>2019-05-24T08:09:19Z</time>
      </trkpt>
      <trkpt lat="46.03957" lon="6.44339">
        <ele>1301</ele>
        <time>2019-05-24T08:09:20Z</time>
      </trkpt>
      <trkpt lat="46.03946" lon="6.44341">
        <ele>1303</ele>
        <time>2019-05-24T08:09:22Z</time>
      </trkpt>
      <trkpt lat="46.03941" lon="6.44337">
        <ele>1304</ele>
        <time>2019-05-24T08:09:23Z</time>
      </trkpt>
      <trkpt lat="46.03902" lon="6.44283">
        <ele>1318</ele>
        <time>2019-05-24T08:09:33Z</time>
      </trkpt>
      <trkpt lat="46.03875" lon="6.44258">
        <ele>1318</ele>
        <time>2019-05-24T08:09:38Z</time>
      </trkpt>
      <trkpt lat="46.03867" lon="6.4425">
        <ele>1318</ele>
        <time>2019-05-24T08:09:40Z</time>
      </trkpt>
      <trkpt lat="46.03811" lon="6.44217">
        <ele>1320</ele>
        <time>2019-05-24T08:09:51Z</time>
      </trkpt>
      <trkpt lat="46.03785" lon="6.44181">
        <ele>1324</ele>
        <time>2019-05-24T08:09:57Z</time>
      </trkpt>
      <trkpt lat="46.03766" lon="6.44164">
        <ele>1323</ele>
        <time>2019-05-24T08:10:01Z</time>
      </trkpt>
      <trkpt lat="46.03727" lon="6.44105">
        <ele>1331</ele>
        <time>2019-05-24T08:10:11Z</time>
      </trkpt>
      <trkpt lat="46.03702" lon="6.44078">
        <ele>1333</ele>
        <time>2019-05-24T08:10:17Z</time>
      </trkpt>
      <trkpt lat="46.03667" lon="6.44033">
        <ele>1335</ele>
        <time>2019-05-24T08:10:25Z</time>
      </trkpt>
      <trkpt lat="46.0365" lon="6.43998">
        <ele>1338</ele>
        <time>2019-05-24T08:10:31Z</time>
      </trkpt>
      <trkpt lat="46.0364" lon="6.43986">
        <ele>1339</ele>
        <time>2019-05-24T08:10:33Z</time>
      </trkpt>
      <trkpt lat="46.03587" lon="6.43908">
        <ele>1343</ele>
        <time>2019-05-24T08:10:46Z</time>
      </trkpt>
      <trkpt lat="46.03558" lon="6.43877">
        <ele>1348</ele>
        <time>2019-05-24T08:10:53Z</time>
      </trkpt>
      <trkpt lat="46.03552" lon="6.43862">
        <ele>1350</ele>
        <time>2019-05-24T08:10:55Z</time>
      </trkpt>
      <trkpt lat="46.03545" lon="6.43809">
        <ele>1359</ele>
        <time>2019-05-24T08:11:02Z</time>
      </trkpt>
      <trkpt lat="46.03541" lon="6.43796">
        <ele>1361</ele>
        <time>2019-05-24T08:11:03Z</time>
      </trkpt>
      <trkpt lat="46.03535" lon="6.43787">
        <ele>1362</ele>
        <time>2019-05-24T08:11:05Z</time>
      </trkpt>
      <trkpt lat="46.03528" lon="6.4378">
        <ele>1362</ele>
        <time>2019-05-24T08:11:06Z</time>
      </trkpt>
      <trkpt lat="46.03503" lon="6.43763">
        <ele>1361</ele>
        <time>2019-05-24T08:11:11Z</time>
      </trkpt>
      <trkpt lat="46.03484" lon="6.43742">
        <ele>1365</ele>
        <time>2019-05-24T08:11:16Z</time>
      </trkpt>
      <trkpt lat="46.03458" lon="6.43706">
        <ele>1370</ele>
        <time>2019-05-24T08:11:22Z</time>
      </trkpt>
      <trkpt lat="46.03445" lon="6.43694">
        <ele>1371</ele>
        <time>2019-05-24T08:11:25Z</time>
      </trkpt>
      <trkpt lat="46.03406" lon="6.4367">
        <ele>1371</ele>
        <time>2019-05-24T08:11:32Z</time>
      </trkpt>
      <trkpt lat="46.0338" lon="6.4366">
        <ele>1371</ele>
        <time>2019-05-24T08:11:37Z</time>
      </trkpt>
      <trkpt lat="46.03371" lon="6.43651">
        <ele>1372</ele>
        <time>2019-05-24T08:11:39Z</time>
      </trkpt>
      <trkpt lat="46.03371" lon="6.43639">
        <ele>1373</ele>
        <time>2019-05-24T08:11:41Z</time>
      </trkpt>
      <trkpt lat="46.03375" lon="6.43632">
        <ele>1375</ele>
        <time>2019-05-24T08:11:42Z</time>
      </trkpt>
      <trkpt lat="46.03381" lon="6.43627">
        <ele>1376</ele>
        <time>2019-05-24T08:11:43Z</time>
      </trkpt>
      <trkpt lat="46.03415" lon="6.43622">
        <ele>1379</ele>
        <time>2019-05-24T08:11:49Z</time>
      </trkpt>
      <trkpt lat="46.03441" lon="6.43613">
        <ele>1384</ele>
        <time>2019-05-24T08:11:54Z</time>
      </trkpt>
      <trkpt lat="46.03449" lon="6.43614">
        <ele>1385</ele>
        <time>2019-05-24T08:11:55Z</time>
      </trkpt>
      <trkpt lat="46.03485" lon="6.43634">
        <ele>1385</ele>
        <time>2019-05-24T08:12:02Z</time>
      </trkpt>
      <trkpt lat="46.03506" lon="6.43651">
        <ele>1385</ele>
        <time>2019-05-24T08:12:06Z</time>
      </trkpt>
      <trkpt lat="46.03514" lon="6.43656">
        <ele>1385</ele>
        <time>2019-05-24T08:12:08Z</time>
      </trkpt>
      <trkpt lat="46.03568" lon="6.43679">
        <ele>1390</ele>
        <time>2019-05-24T08:12:18Z</time>
      </trkpt>
      <trkpt lat="46.03575" lon="6.43681">
        <ele>1391</ele>
        <time>2019-05-24T08:12:19Z</time>
      </trkpt>
      <trkpt lat="46.03581" lon="6.43677">
        <ele>1393</ele>
        <time>2019-05-24T08:12:20Z</time>
      </trkpt>
      <trkpt lat="46.03584" lon="6.43666">
        <ele>1396</ele>
        <time>2019-05-24T08:12:22Z</time>
      </trkpt>
      <trkpt lat="46.03582" lon="6.43657">
        <ele>1398</ele>
        <time>2019-05-24T08:12:23Z</time>
      </trkpt>
      <trkpt lat="46.03579" lon="6.43654">
        <ele>1398</ele>
        <time>2019-05-24T08:12:24Z</time>
      </trkpt>
      <trkpt lat="46.03553" lon="6.43637">
        <ele>1397</ele>
        <time>2019-05-24T08:12:29Z</time>
      </trkpt>
      <trkpt lat="46.03535" lon="6.43611">
        <ele>1399</ele>
        <time>2019-05-24T08:12:33Z</time>
      </trkpt>
      <trkpt lat="46.03523" lon="6.43597">
        <ele>1399</ele>
        <time>2019-05-24T08:12:36Z</time>
      </trkpt>
      <trkpt lat="46.03496" lon="6.43552">
        <ele>1404</ele>
        <time>2019-05-24T08:12:43Z</time>
      </trkpt>
      <trkpt lat="46.03492" lon="6.43542">
        <ele>1406</ele>
        <time>2019-05-24T08:12:45Z</time>
      </trkpt>
      <trkpt lat="46.03492" lon="6.43531">
        <ele>1408</ele>
        <time>2019-05-24T08:12:46Z</time>
      </trkpt>
      <trkpt lat="46.03494" lon="6.43519">
        <ele>1411</ele>
        <time>2019-05-24T08:12:48Z</time>
      </trkpt>
      <trkpt lat="46.03491" lon="6.43502">
        <ele>1415</ele>
        <time>2019-05-24T08:12:50Z</time>
      </trkpt>
      <trkpt lat="46.0347" lon="6.43479">
        <ele>1418</ele>
        <time>2019-05-24T08:12:55Z</time>
      </trkpt>
      <trkpt lat="46.03449" lon="6.43471">
        <ele>1417</ele>
        <time>2019-05-24T08:12:58Z</time>
      </trkpt>
      <trkpt lat="46.03442" lon="6.43466">
        <ele>1418</ele>
        <time>2019-05-24T08:13:00Z</time>
      </trkpt>
      <trkpt lat="46.03395" lon="6.43409">
        <ele>1424</ele>
        <time>2019-05-24T08:13:11Z</time>
      </trkpt>
      <trkpt lat="46.03366" lon="6.43382">
        <ele>1426</ele>
        <time>2019-05-24T08:13:17Z</time>
      </trkpt>
      <trkpt lat="46.03349" lon="6.43351">
        <ele>1429</ele>
        <time>2019-05-24T08:13:22Z</time>
      </trkpt>
      <trkpt lat="46.03341" lon="6.43338">
        <ele>1430</ele>
        <time>2019-05-24T08:13:24Z</time>
      </trkpt>
      <trkpt lat="46.03328" lon="6.43322">
        <ele>1432</ele>
        <time>2019-05-24T08:13:27Z</time>
      </trkpt>
      <trkpt lat="46.03312" lon="6.43291">
        <ele>1436</ele>
        <time>2019-05-24T08:13:32Z</time>
      </trkpt>
      <trkpt lat="46.03279" lon="6.43239">
        <ele>1441</ele>
        <time>2019-05-24T08:13:40Z</time>
      </trkpt>
      <trkpt lat="46.03253" lon="6.43202">
        <ele>1443</ele>
        <time>2019-05-24T08:13:47Z</time>
      </trkpt>
      <trkpt lat="46.03236" lon="6.43171">
        <ele>1446</ele>
        <time>2019-05-24T08:13:52Z</time>
      </trkpt>
      <trkpt lat="46.03213" lon="6.43138">
        <ele>1447</ele>
        <time>2019-05-24T08:13:58Z</time>
      </trkpt>
      <trkpt lat="46.03207" lon="6.43128">
        <ele>1448</ele>
        <time>2019-05-24T08:13:59Z</time>
      </trkpt>
      <trkpt lat="46.03188" lon="6.43079">
        <ele>1455</ele>
        <time>2019-05-24T08:14:06Z</time>
      </trkpt>
      <trkpt lat="46.03165" lon="6.43043">
        <ele>1457</ele>
        <time>2019-05-24T08:14:12Z</time>
      </trkpt>
      <trkpt lat="46.03158" lon="6.43028">
        <ele>1458</ele>
        <time>2019-05-24T08:14:14Z</time>
      </trkpt>
      <trkpt lat="46.03155" lon="6.43012">
        <ele>1460</ele>
        <time>2019-05-24T08:14:16Z</time>
      </trkpt>
      <trkpt lat="46.03153" lon="6.42966">
        <ele>1465</ele>
        <time>2019-05-24T08:14:22Z</time>
      </trkpt>
      <trkpt lat="46.03149" lon="6.4294">
        <ele>1467</ele>
        <time>2019-05-24T08:14:25Z</time>
      </trkpt>
      <trkpt lat="46.03128" lon="6.42861">
        <ele>1472</ele>
        <time>2019-05-24T08:14:36Z</time>
      </trkpt>
      <trkpt lat="46.03121" lon="6.42851">
        <ele>1472</ele>
        <time>2019-05-24T08:14:38Z</time>
      </trkpt>
      <trkpt lat="46.03108" lon="6.42842">
        <ele>1472</ele>
        <time>2019-05-24T08:14:40Z</time>
      </trkpt>
      <trkpt lat="46.03103" lon="6.42833">
        <ele>1472</ele>
        <time>2019-05-24T08:14:42Z</time>
      </trkpt>
      <trkpt lat="46.03091" lon="6.42803">
        <ele>1474</ele>
        <time>2019-05-24T08:14:46Z</time>
      </trkpt>
      <trkpt lat="46.03078" lon="6.42748">
        <ele>1479</ele>
        <time>2019-05-24T08:14:53Z</time>
      </trkpt>
      <trkpt lat="46.03065" lon="6.42722">
        <ele>1481</ele>
        <time>2019-05-24T08:14:57Z</time>
      </trkpt>
      <trkpt lat="46.03043" lon="6.42693">
        <ele>1484</ele>
        <time>2019-05-24T08:15:02Z</time>
      </trkpt>
      <trkpt lat="46.03015" lon="6.42677">
        <ele>1485</ele>
        <time>2019-05-24T08:15:08Z</time>
      </trkpt>
      <trkpt lat="46.03004" lon="6.42662">
        <ele>1485</ele>
        <time>2019-05-24T08:15:10Z</time>
      </trkpt>
      <trkpt lat="46.02999" lon="6.42651">
        <ele>1486</ele>
        <time>2019-05-24T08:15:12Z</time>
      </trkpt>
      <trkpt lat="46.02997" lon="6.42639">
        <ele>1487</ele>
        <time>2019-05-24T08:15:14Z</time>
      </trkpt>
      <trkpt lat="46.02999" lon="6.42629">
        <ele>1487</ele>
        <time>2019-05-24T08:15:15Z</time>
      </trkpt>
      <trkpt lat="46.03003" lon="6.42621">
        <ele>1488</ele>
        <time>2019-05-24T08:15:16Z</time>
      </trkpt>
      <trkpt lat="46.03008" lon="6.42619">
        <ele>1488</ele>
        <time>2019-05-24T08:15:17Z</time>
      </trkpt>
      <trkpt lat="46.03016" lon="6.42622">
        <ele>1488</ele>
        <time>2019-05-24T08:15:18Z</time>
      </trkpt>
      <trkpt lat="46.03043" lon="6.42646">
        <ele>1487</ele>
        <time>2019-05-24T08:15:24Z</time>
      </trkpt>
      <trkpt lat="46.03056" lon="6.42652">
        <ele>1487</ele>
        <time>2019-05-24T08:15:27Z</time>
      </trkpt>
      <trkpt lat="46.03093" lon="6.42659">
        <ele>1488</ele>
        <time>2019-05-24T08:15:33Z</time>
      </trkpt>
      <trkpt lat="46.03107" lon="6.42658">
        <ele>1489</ele>
        <time>2019-05-24T08:15:36Z</time>
      </trkpt>
      <trkpt lat="46.03124" lon="6.42654">
        <ele>1492</ele>
        <time>2019-05-24T08:15:39Z</time>
      </trkpt>
      <trkpt lat="46.03138" lon="6.42653">
        <ele>1493</ele>
        <time>2019-05-24T08:15:41Z</time>
      </trkpt>
      <trkpt lat="46.03184" lon="6.42663">
        <ele>1497</ele>
        <time>2019-05-24T08:15:49Z</time>
      </trkpt>
      <trkpt lat="46.03206" lon="6.42674">
        <ele>1498</ele>
        <time>2019-05-24T08:15:54Z</time>
      </trkpt>
      <trkpt lat="46.0323" lon="6.42693">
        <ele>1499</ele>
        <time>2019-05-24T08:15:58Z</time>
      </trkpt>
      <trkpt lat="46.03247" lon="6.427">
        <ele>1500</ele>
        <time>2019-05-24T08:16:02Z</time>
      </trkpt>
      <trkpt lat="46.03259" lon="6.42703">
        <ele>1500</ele>
        <time>2019-05-24T08:16:04Z</time>
      </trkpt>
      <trkpt lat="46.03268" lon="6.42708">
        <ele>1501</ele>
        <time>2019-05-24T08:16:06Z</time>
      </trkpt>
      <trkpt lat="46.03289" lon="6.42723">
        <ele>1502</ele>
        <time>2019-05-24T08:16:10Z</time>
      </trkpt>
      <trkpt lat="46.03299" lon="6.42738">
        <ele>1503</ele>
        <time>2019-05-24T08:16:12Z</time>
      </trkpt>
      <trkpt lat="46.03318" lon="6.42754">
        <ele>1504</ele>
        <time>2019-05-24T08:16:16Z</time>
      </trkpt>
      <trkpt lat="46.03318" lon="6.4276">
        <ele>1504</ele>
        <time>2019-05-24T08:16:17Z</time>
      </trkpt>
      <trkpt lat="46.03321" lon="6.42764">
        <ele>1505</ele>
        <time>2019-05-24T08:16:18Z</time>
      </trkpt>
      <trkpt lat="46.03324" lon="6.42764">
        <ele>1505</ele>
        <time>2019-05-24T08:16:18Z</time>
      </trkpt>
      <trkpt lat="46.03327" lon="6.42762">
        <ele>1505</ele>
        <time>2019-05-24T08:16:19Z</time>
      </trkpt>
      <trkpt lat="46.03328" lon="6.42758">
        <ele>1506</ele>
        <time>2019-05-24T08:16:19Z</time>
      </trkpt>
      <trkpt lat="46.03328" lon="6.42754">
        <ele>1505</ele>
        <time>2019-05-24T08:16:20Z</time>
      </trkpt>
      <trkpt lat="46.03343" lon="6.42739">
        <ele>1507</ele>
        <time>2019-05-24T08:16:23Z</time>
      </trkpt>
      <trkpt lat="46.0335" lon="6.4273">
        <ele>1507</ele>
        <time>2019-05-24T08:16:25Z</time>
      </trkpt>
      <trkpt lat="46.03366" lon="6.42705">
        <ele>1508</ele>
        <time>2019-05-24T08:16:29Z</time>
      </trkpt>
      <trkpt lat="46.03375" lon="6.42688">
        <ele>1508</ele>
        <time>2019-05-24T08:16:32Z</time>
      </trkpt>
      <trkpt lat="46.0338" lon="6.42664">
        <ele>1509</ele>
        <time>2019-05-24T08:16:35Z</time>
      </trkpt>
      <trkpt lat="46.03384" lon="6.42624">
        <ele>1509</ele>
        <time>2019-05-24T08:16:40Z</time>
      </trkpt>
      <trkpt lat="46.03388" lon="6.42609">
        <ele>1509</ele>
        <time>2019-05-24T08:16:42Z</time>
      </trkpt>
      <trkpt lat="46.03394" lon="6.42596">
        <ele>1509</ele>
        <time>2019-05-24T08:16:44Z</time>
      </trkpt>
      <trkpt lat="46.03407" lon="6.42579">
        <ele>1509</ele>
        <time>2019-05-24T08:16:47Z</time>
      </trkpt>
      <trkpt lat="46.03414" lon="6.42575">
        <ele>1510</ele>
        <time>2019-05-24T08:16:48Z</time>
      </trkpt>
      <trkpt lat="46.03441" lon="6.42568">
        <ele>1511</ele>
        <time>2019-05-24T08:16:53Z</time>
      </trkpt>
      <trkpt lat="46.03449" lon="6.42564">
        <ele>1512</ele>
        <time>2019-05-24T08:16:54Z</time>
      </trkpt>
      <trkpt lat="46.03454" lon="6.4256">
        <ele>1512</ele>
        <time>2019-05-24T08:16:55Z</time>
      </trkpt>
      <trkpt lat="46.03461" lon="6.42546">
        <ele>1512</ele>
        <time>2019-05-24T08:16:58Z</time>
      </trkpt>
      <trkpt lat="46.03468" lon="6.42507">
        <ele>1513</ele>
        <time>2019-05-24T08:17:03Z</time>
      </trkpt>
      <trkpt lat="46.03471" lon="6.42461">
        <ele>1514</ele>
        <time>2019-05-24T08:17:08Z</time>
      </trkpt>
      <trkpt lat="46.03469" lon="6.42438">
        <ele>1513</ele>
        <time>2019-05-24T08:17:11Z</time>
      </trkpt>
      <trkpt lat="46.03465" lon="6.42418">
        <ele>1513</ele>
        <time>2019-05-24T08:17:14Z</time>
      </trkpt>
      <trkpt lat="46.03457" lon="6.42394">
        <ele>1514</ele>
        <time>2019-05-24T08:17:17Z</time>
      </trkpt>
      <trkpt lat="46.03448" lon="6.42378">
        <ele>1514</ele>
        <time>2019-05-24T08:17:20Z</time>
      </trkpt>
      <trkpt lat="46.03444" lon="6.42372">
        <ele>1514</ele>
        <time>2019-05-24T08:17:21Z</time>
      </trkpt>
      <trkpt lat="46.03308" lon="6.42261">
        <ele>1512</ele>
        <time>2019-05-24T08:17:48Z</time>
      </trkpt>
      <trkpt lat="46.03277" lon="6.42242">
        <ele>1511</ele>
        <time>2019-05-24T08:17:54Z</time>
      </trkpt>
      <trkpt lat="46.03239" lon="6.42228">
        <ele>1510</ele>
        <time>2019-05-24T08:18:01Z</time>
      </trkpt>
      <trkpt lat="46.0323" lon="6.42223">
        <ele>1510</ele>
        <time>2019-05-24T08:18:03Z</time>
      </trkpt>
      <trkpt lat="46.03222" lon="6.42215">
        <ele>1510</ele>
        <time>2019-05-24T08:18:05Z</time>
      </trkpt>
      <trkpt lat="46.0323" lon="6.42223">
        <ele>1510</ele>
        <time>2019-05-24T08:18:06Z</time>
      </trkpt>
      <trkpt lat="46.03239" lon="6.42228">
        <ele>1510</ele>
        <time>2019-05-24T08:18:08Z</time>
      </trkpt>
      <trkpt lat="46.03277" lon="6.42242">
        <ele>1511</ele>
        <time>2019-05-24T08:18:15Z</time>
      </trkpt>
      <trkpt lat="46.03308" lon="6.42261">
        <ele>1512</ele>
        <time>2019-05-24T08:18:21Z</time>
      </trkpt>
      <trkpt lat="46.03444" lon="6.42372">
        <ele>1514</ele>
        <time>2019-05-24T08:18:49Z</time>
      </trkpt>
      <trkpt lat="46.03448" lon="6.42378">
        <ele>1514</ele>
        <time>2019-05-24T08:18:50Z</time>
      </trkpt>
      <trkpt lat="46.03457" lon="6.42394">
        <ele>1514</ele>
        <time>2019-05-24T08:18:53Z</time>
      </trkpt>
      <trkpt lat="46.03465" lon="6.42418">
        <ele>1513</ele>
        <time>2019-05-24T08:18:56Z</time>
      </trkpt>
      <trkpt lat="46.03469" lon="6.42438">
        <ele>1513</ele>
        <time>2019-05-24T08:18:58Z</time>
      </trkpt>
      <trkpt lat="46.03471" lon="6.42461">
        <ele>1514</ele>
        <time>2019-05-24T08:19:01Z</time>
      </trkpt>
      <trkpt lat="46.03468" lon="6.42507">
        <ele>1513</ele>
        <time>2019-05-24T08:19:07Z</time>
      </trkpt>
      <trkpt lat="46.03461" lon="6.42546">
        <ele>1512</ele>
        <time>2019-05-24T08:19:12Z</time>
      </trkpt>
      <trkpt lat="46.03454" lon="6.4256">
        <ele>1512</ele>
        <time>2019-05-24T08:19:14Z</time>
      </trkpt>
      <trkpt lat="46.03449" lon="6.42564">
        <ele>1512</ele>
        <time>2019-05-24T08:19:15Z</time>
      </trkpt>
      <trkpt lat="46.03441" lon="6.42568">
        <ele>1511</ele>
        <time>2019-05-24T08:19:17Z</time>
      </trkpt>
      <trkpt lat="46.03414" lon="6.42575">
        <ele>1510</ele>
        <time>2019-05-24T08:19:22Z</time>
      </trkpt>
      <trkpt lat="46.03407" lon="6.42579">
        <ele>1509</ele>
        <time>2019-05-24T08:19:23Z</time>
      </trkpt>
      <trkpt lat="46.03394" lon="6.42596">
        <ele>1509</ele>
        <time>2019-05-24T08:19:26Z</time>
      </trkpt>
      <trkpt lat="46.03388" lon="6.42609">
        <ele>1509</ele>
        <time>2019-05-24T08:19:28Z</time>
      </trkpt>
      <trkpt lat="46.03384" lon="6.42624">
        <ele>1509</ele>
        <time>2019-05-24T08:19:30Z</time>
      </trkpt>
      <trkpt lat="46.0338" lon="6.42664">
        <ele>1509</ele>
        <time>2019-05-24T08:19:35Z</time>
      </trkpt>
      <trkpt lat="46.03375" lon="6.42688">
        <ele>1508</ele>
        <time>2019-05-24T08:19:38Z</time>
      </trkpt>
      <trkpt lat="46.03366" lon="6.42705">
        <ele>1508</ele>
        <time>2019-05-24T08:19:41Z</time>
      </trkpt>
      <trkpt lat="46.0335" lon="6.4273">
        <ele>1507</ele>
        <time>2019-05-24T08:19:45Z</time>
      </trkpt>
      <trkpt lat="46.03343" lon="6.42739">
        <ele>1507</ele>
        <time>2019-05-24T08:19:46Z</time>
      </trkpt>
      <trkpt lat="46.03328" lon="6.42754">
        <ele>1505</ele>
        <time>2019-05-24T08:19:50Z</time>
      </trkpt>
      <trkpt lat="46.03325" lon="6.4275">
        <ele>1505</ele>
        <time>2019-05-24T08:19:50Z</time>
      </trkpt>
      <trkpt lat="46.03321" lon="6.4275">
        <ele>1505</ele>
        <time>2019-05-24T08:19:51Z</time>
      </trkpt>
      <trkpt lat="46.03318" lon="6.42754">
        <ele>1504</ele>
        <time>2019-05-24T08:19:52Z</time>
      </trkpt>
      <trkpt lat="46.03299" lon="6.42738">
        <ele>1503</ele>
        <time>2019-05-24T08:19:56Z</time>
      </trkpt>
      <trkpt lat="46.03289" lon="6.42723">
        <ele>1502</ele>
        <time>2019-05-24T08:19:58Z</time>
      </trkpt>
      <trkpt lat="46.03268" lon="6.42708">
        <ele>1501</ele>
        <time>2019-05-24T08:20:03Z</time>
      </trkpt>
      <trkpt lat="46.03259" lon="6.42703">
        <ele>1500</ele>
        <time>2019-05-24T08:20:04Z</time>
      </trkpt>
      <trkpt lat="46.03247" lon="6.427">
        <ele>1500</ele>
        <time>2019-05-24T08:20:06Z</time>
      </trkpt>
      <trkpt lat="46.0323" lon="6.42693">
        <ele>1499</ele>
        <time>2019-05-24T08:20:10Z</time>
      </trkpt>
      <trkpt lat="46.03206" lon="6.42674">
        <ele>1498</ele>
        <time>2019-05-24T08:20:14Z</time>
      </trkpt>
      <trkpt lat="46.03184" lon="6.42663">
        <ele>1497</ele>
        <time>2019-05-24T08:20:19Z</time>
      </trkpt>
      <trkpt lat="46.03138" lon="6.42653">
        <ele>1493</ele>
        <time>2019-05-24T08:20:27Z</time>
      </trkpt>
      <trkpt lat="46.03124" lon="6.42654">
        <ele>1492</ele>
        <time>2019-05-24T08:20:29Z</time>
      </trkpt>
      <trkpt lat="46.03107" lon="6.42658">
        <ele>1489</ele>
        <time>2019-05-24T08:20:32Z</time>
      </trkpt>
      <trkpt lat="46.03093" lon="6.42659">
        <ele>1488</ele>
        <time>2019-05-24T08:20:35Z</time>
      </trkpt>
      <trkpt lat="46.03056" lon="6.42652">
        <ele>1487</ele>
        <time>2019-05-24T08:20:42Z</time>
      </trkpt>
      <trkpt lat="46.03043" lon="6.42646">
        <ele>1487</ele>
        <time>2019-05-24T08:20:44Z</time>
      </trkpt>
      <trkpt lat="46.03016" lon="6.42622">
        <ele>1488</ele>
        <time>2019-05-24T08:20:50Z</time>
      </trkpt>
      <trkpt lat="46.03008" lon="6.42619">
        <ele>1488</ele>
        <time>2019-05-24T08:20:51Z</time>
      </trkpt>
      <trkpt lat="46.03003" lon="6.42621">
        <ele>1488</ele>
        <time>2019-05-24T08:20:52Z</time>
      </trkpt>
      <trkpt lat="46.02999" lon="6.42629">
        <ele>1487</ele>
        <time>2019-05-24T08:20:53Z</time>
      </trkpt>
      <trkpt lat="46.02997" lon="6.42639">
        <ele>1487</ele>
        <time>2019-05-24T08:20:55Z</time>
      </trkpt>
      <trkpt lat="46.02999" lon="6.42651">
        <ele>1486</ele>
        <time>2019-05-24T08:20:56Z</time>
      </trkpt>
      <trkpt lat="46.03004" lon="6.42662">
        <ele>1485</ele>
        <time>2019-05-24T08:20:58Z</time>
      </trkpt>
      <trkpt lat="46.03015" lon="6.42677">
        <ele>1485</ele>
        <time>2019-05-24T08:21:00Z</time>
      </trkpt>
      <trkpt lat="46.03043" lon="6.42693">
        <ele>1484</ele>
        <time>2019-05-24T08:21:06Z</time>
      </trkpt>
      <trkpt lat="46.03065" lon="6.42722">
        <ele>1481</ele>
        <time>2019-05-24T08:21:11Z</time>
      </trkpt>
      <trkpt lat="46.03078" lon="6.42748">
        <ele>1479</ele>
        <time>2019-05-24T08:21:15Z</time>
      </trkpt>
      <trkpt lat="46.03091" lon="6.42803">
        <ele>1474</ele>
        <time>2019-05-24T08:21:22Z</time>
      </trkpt>
      <trkpt lat="46.03103" lon="6.42833">
        <ele>1472</ele>
        <time>2019-05-24T08:21:26Z</time>
      </trkpt>
      <trkpt lat="46.03108" lon="6.42842">
        <ele>1472</ele>
        <time>2019-05-24T08:21:28Z</time>
      </trkpt>
      <trkpt lat="46.03121" lon="6.42851">
        <ele>1472</ele>
        <time>2019-05-24T08:21:30Z</time>
      </trkpt>
      <trkpt lat="46.03128" lon="6.42861">
        <ele>1472</ele>
        <time>2019-05-24T08:21:32Z</time>
      </trkpt>
      <trkpt lat="46.03149" lon="6.4294">
        <ele>1467</ele>
        <time>2019-05-24T08:21:43Z</time>
      </trkpt>
      <trkpt lat="46.03153" lon="6.42966">
        <ele>1465</ele>
        <time>2019-05-24T08:21:46Z</time>
      </trkpt>
      <trkpt lat="46.03155" lon="6.43012">
        <ele>1460</ele>
        <time>2019-05-24T08:21:52Z</time>
      </trkpt>
      <trkpt lat="46.03158" lon="6.43028">
        <ele>1458</ele>
        <time>2019-05-24T08:21:54Z</time>
      </trkpt>
      <trkpt lat="46.03165" lon="6.43043">
        <ele>1457</ele>
        <time>2019-05-24T08:21:56Z</time>
      </trkpt>
      <trkpt lat="46.03188" lon="6.43079">
        <ele>1455</ele>
        <time>2019-05-24T08:22:02Z</time>
      </trkpt>
      <trkpt lat="46.03207" lon="6.43128">
        <ele>1448</ele>
        <time>2019-05-24T08:22:09Z</time>
      </trkpt>
      <trkpt lat="46.03213" lon="6.43138">
        <ele>1447</ele>
        <time>2019-05-24T08:22:11Z</time>
      </trkpt>
      <trkpt lat="46.03236" lon="6.43171">
        <ele>1446</ele>
        <time>2019-05-24T08:22:16Z</time>
      </trkpt>
      <trkpt lat="46.03253" lon="6.43202">
        <ele>1443</ele>
        <time>2019-05-24T08:22:21Z</time>
      </trkpt>
      <trkpt lat="46.03279" lon="6.43239">
        <ele>1441</ele>
        <time>2019-05-24T08:22:28Z</time>
      </trkpt>
      <trkpt lat="46.03312" lon="6.43291">
        <ele>1436</ele>
        <time>2019-05-24T08:22:36Z</time>
      </trkpt>
      <trkpt lat="46.03328" lon="6.43322">
        <ele>1432</ele>
        <time>2019-05-24T08:22:41Z</time>
      </trkpt>
      <trkpt lat="46.03341" lon="6.43338">
        <ele>1430</ele>
        <time>2019-05-24T08:22:44Z</time>
      </trkpt>
      <trkpt lat="46.03349" lon="6.43351">
        <ele>1429</ele>
        <time>2019-05-24T08:22:46Z</time>
      </trkpt>
      <trkpt lat="46.03366" lon="6.43382">
        <ele>1426</ele>
        <time>2019-05-24T08:22:51Z</time>
      </trkpt>
      <trkpt lat="46.03395" lon="6.43409">
        <ele>1424</ele>
        <time>2019-05-24T08:22:57Z</time>
      </trkpt>
      <trkpt lat="46.03442" lon="6.43466">
        <ele>1418</ele>
        <time>2019-05-24T08:23:08Z</time>
      </trkpt>
      <trkpt lat="46.03449" lon="6.43471">
        <ele>1417</ele>
        <time>2019-05-24T08:23:10Z</time>
      </trkpt>
      <trkpt lat="46.0347" lon="6.43479">
        <ele>1418</ele>
        <time>2019-05-24T08:23:14Z</time>
      </trkpt>
      <trkpt lat="46.03491" lon="6.43502">
        <ele>1415</ele>
        <time>2019-05-24T08:23:18Z</time>
      </trkpt>
      <trkpt lat="46.03494" lon="6.43519">
        <ele>1411</ele>
        <time>2019-05-24T08:23:20Z</time>
      </trkpt>
      <trkpt lat="46.03492" lon="6.43531">
        <ele>1408</ele>
        <time>2019-05-24T08:23:22Z</time>
      </trkpt>
      <trkpt lat="46.03492" lon="6.43542">
        <ele>1406</ele>
        <time>2019-05-24T08:23:23Z</time>
      </trkpt>
      <trkpt lat="46.03496" lon="6.43552">
        <ele>1404</ele>
        <time>2019-05-24T08:23:25Z</time>
      </trkpt>
      <trkpt lat="46.03523" lon="6.43597">
        <ele>1399</ele>
        <time>2019-05-24T08:23:32Z</time>
      </trkpt>
      <trkpt lat="46.03535" lon="6.43611">
        <ele>1399</ele>
        <time>2019-05-24T08:23:35Z</time>
      </trkpt>
      <trkpt lat="46.03553" lon="6.43637">
        <ele>1397</ele>
        <time>2019-05-24T08:23:39Z</time>
      </trkpt>
      <trkpt lat="46.03579" lon="6.43654">
        <ele>1398</ele>
        <time>2019-05-24T08:23:44Z</time>
      </trkpt>
      <trkpt lat="46.03582" lon="6.43657">
        <ele>1398</ele>
        <time>2019-05-24T08:23:45Z</time>
      </trkpt>
      <trkpt lat="46.03584" lon="6.43666">
        <ele>1396</ele>
        <time>2019-05-24T08:23:46Z</time>
      </trkpt>
      <trkpt lat="46.03581" lon="6.43677">
        <ele>1393</ele>
        <time>2019-05-24T08:23:48Z</time>
      </trkpt>
      <trkpt lat="46.03575" lon="6.43681">
        <ele>1391</ele>
        <time>2019-05-24T08:23:49Z</time>
      </trkpt>
      <trkpt lat="46.03568" lon="6.43679">
        <ele>1390</ele>
        <time>2019-05-24T08:23:50Z</time>
      </trkpt>
      <trkpt lat="46.03514" lon="6.43656">
        <ele>1385</ele>
        <time>2019-05-24T08:24:00Z</time>
      </trkpt>
      <trkpt lat="46.03506" lon="6.43651">
        <ele>1385</ele>
        <time>2019-05-24T08:24:02Z</time>
      </trkpt>
      <trkpt lat="46.03485" lon="6.43634">
        <ele>1385</ele>
        <time>2019-05-24T08:24:06Z</time>
      </trkpt>
      <trkpt lat="46.03449" lon="6.43614">
        <ele>1385</ele>
        <time>2019-05-24T08:24:13Z</time>
      </trkpt>
      <trkpt lat="46.03441" lon="6.43613">
        <ele>1384</ele>
        <time>2019-05-24T08:24:14Z</time>
      </trkpt>
      <trkpt lat="46.03415" lon="6.43622">
        <ele>1379</ele>
        <time>2019-05-24T08:24:19Z</time>
      </trkpt>
      <trkpt lat="46.03381" lon="6.43627">
        <ele>1376</ele>
        <time>2019-05-24T08:24:25Z</time>
      </trkpt>
      <trkpt lat="46.03375" lon="6.43632">
        <ele>1375</ele>
        <time>2019-05-24T08:24:26Z</time>
      </trkpt>
      <trkpt lat="46.03371" lon="6.43639">
        <ele>1373</ele>
        <time>2019-05-24T08:24:28Z</time>
      </trkpt>
      <trkpt lat="46.03371" lon="6.43651">
        <ele>1372</ele>
        <time>2019-05-24T08:24:29Z</time>
      </trkpt>
      <trkpt lat="46.0338" lon="6.4366">
        <ele>1371</ele>
        <time>2019-05-24T08:24:31Z</time>
      </trkpt>
      <trkpt lat="46.03406" lon="6.4367">
        <ele>1371</ele>
        <time>2019-05-24T08:24:36Z</time>
      </trkpt>
      <trkpt lat="46.03445" lon="6.43694">
        <ele>1371</ele>
        <time>2019-05-24T08:24:43Z</time>
      </trkpt>
      <trkpt lat="46.03458" lon="6.43706">
        <ele>1370</ele>
        <time>2019-05-24T08:24:46Z</time>
      </trkpt>
      <trkpt lat="46.03484" lon="6.43742">
        <ele>1365</ele>
        <time>2019-05-24T08:24:52Z</time>
      </trkpt>
      <trkpt lat="46.03503" lon="6.43763">
        <ele>1361</ele>
        <time>2019-05-24T08:24:57Z</time>
      </trkpt>
      <trkpt lat="46.03528" lon="6.4378">
        <ele>1362</ele>
        <time>2019-05-24T08:25:02Z</time>
      </trkpt>
      <trkpt lat="46.03535" lon="6.43787">
        <ele>1362</ele>
        <time>2019-05-24T08:25:03Z</time>
      </trkpt>
      <trkpt lat="46.03541" lon="6.43796">
        <ele>1361</ele>
        <time>2019-05-24T08:25:05Z</time>
      </trkpt>
      <trkpt lat="46.03545" lon="6.43809">
        <ele>1359</ele>
        <time>2019-05-24T08:25:06Z</time>
      </trkpt>
      <trkpt lat="46.03552" lon="6.43862">
        <ele>1350</ele>
        <time>2019-05-24T08:25:13Z</time>
      </trkpt>
      <trkpt lat="46.03558" lon="6.43877">
        <ele>1348</ele>
        <time>2019-05-24T08:25:15Z</time>
      </trkpt>
      <trkpt lat="46.03587" lon="6.43908">
        <ele>1343</ele>
        <time>2019-05-24T08:25:22Z</time>
      </trkpt>
      <trkpt lat="46.0364" lon="6.43986">
        <ele>1339</ele>
        <time>2019-05-24T08:25:35Z</time>
      </trkpt>
      <trkpt lat="46.0365" lon="6.43998">
        <ele>1338</ele>
        <time>2019-05-24T08:25:37Z</time>
      </trkpt>
      <trkpt lat="46.03667" lon="6.44033">
        <ele>1335</ele>
        <time>2019-05-24T08:25:43Z</time>
      </trkpt>
      <trkpt lat="46.03702" lon="6.44078">
        <ele>1333</ele>
        <time>2019-05-24T08:25:51Z</time>
      </trkpt>
      <trkpt lat="46.03727" lon="6.44105">
        <ele>1331</ele>
        <time>2019-05-24T08:25:57Z</time>
      </trkpt>
      <trkpt lat="46.03766" lon="6.44164">
        <ele>1323</ele>
        <time>2019-05-24T08:26:07Z</time>
      </trkpt>
      <trkpt lat="46.03785" lon="6.44181">
        <ele>1324</ele>
        <time>2019-05-24T08:26:11Z</time>
      </trkpt>
      <trkpt lat="46.03811" lon="6.44217">
        <ele>1320</ele>
        <time>2019-05-24T08:26:17Z</time>
      </trkpt>
      <trkpt lat="46.03867" lon="6.4425">
        <ele>1318</ele>
        <time>2019-05-24T08:26:28Z</time>
      </trkpt>
      <trkpt lat="46.03875" lon="6.44258">
        <ele>1318</ele>
        <time>2019-05-24T08:26:30Z</time>
      </trkpt>
      <trkpt lat="46.03902" lon="6.44283">
        <ele>1318</ele>
        <time>2019-05-24T08:26:35Z</time>
      </trkpt>
      <trkpt lat="46.03941" lon="6.44337">
        <ele>1304</ele>
        <time>2019-05-24T08:26:45Z</time>
      </trkpt>
      <trkpt lat="46.03946" lon="6.44341">
        <ele>1303</ele>
        <time>2019-05-24T08:26:46Z</time>
      </trkpt>
      <trkpt lat="46.03957" lon="6.44339">
        <ele>1301</ele>
        <time>2019-05-24T08:26:48Z</time>
      </trkpt>
      <trkpt lat="46.03962" lon="6.44333">
        <ele>1301</ele>
        <time>2019-05-24T08:26:49Z</time>
      </trkpt>
      <trkpt lat="46.03986" lon="6.44292">
        <ele>1305</ele>
        <time>2019-05-24T08:26:56Z</time>
      </trkpt>
      <trkpt lat="46.04013" lon="6.44257">
        <ele>1303</ele>
        <time>2019-05-24T08:27:02Z</time>
      </trkpt>
      <trkpt lat="46.04018" lon="6.44237">
        <ele>1302</ele>
        <time>2019-05-24T08:27:05Z</time>
      </trkpt>
      <trkpt lat="46.0402" lon="6.44202">
        <ele>1301</ele>
        <time>2019-05-24T08:27:09Z</time>
      </trkpt>
      <trkpt lat="46.04026" lon="6.44153">
        <ele>1298</ele>
        <time>2019-05-24T08:27:15Z</time>
      </trkpt>
      <trkpt lat="46.04029" lon="6.44076">
        <ele>1296</ele>
        <time>2019-05-24T08:27:25Z</time>
      </trkpt>
      <trkpt lat="46.04037" lon="6.44002">
        <ele>1288</ele>
        <time>2019-05-24T08:27:34Z</time>
      </trkpt>
      <trkpt lat="46.04037" lon="6.43952">
        <ele>1286</ele>
        <time>2019-05-24T08:27:40Z</time>
      </trkpt>
      <trkpt lat="46.04033" lon="6.43857">
        <ele>1287</ele>
        <time>2019-05-24T08:27:52Z</time>
      </trkpt>
      <trkpt lat="46.04036" lon="6.43834">
        <ele>1286</ele>
        <time>2019-05-24T08:27:55Z</time>
      </trkpt>
      <trkpt lat="46.04054" lon="6.4375">
        <ele>1279</ele>
        <time>2019-05-24T08:28:06Z</time>
      </trkpt>
      <trkpt lat="46.04071" lon="6.4369">
        <ele>1273</ele>
        <time>2019-05-24T08:28:14Z</time>
      </trkpt>
      <trkpt lat="46.0409" lon="6.43644">
        <ele>1264</ele>
        <time>2019-05-24T08:28:20Z</time>
      </trkpt>
      <trkpt lat="46.04097" lon="6.43604">
        <ele>1262</ele>
        <time>2019-05-24T08:28:25Z</time>
      </trkpt>
      <trkpt lat="46.04104" lon="6.43587">
        <ele>1261</ele>
        <time>2019-05-24T08:28:28Z</time>
      </trkpt>
      <trkpt lat="46.04113" lon="6.4358">
        <ele>1260</ele>
        <time>2019-05-24T08:28:30Z</time>
      </trkpt>
      <trkpt lat="46.04166" lon="6.43581">
        <ele>1247</ele>
        <time>2019-05-24T08:28:39Z</time>
      </trkpt>
      <trkpt lat="46.04174" lon="6.43587">
        <ele>1246</ele>
        <time>2019-05-24T08:28:41Z</time>
      </trkpt>
      <trkpt lat="46.04173" lon="6.43601">
        <ele>1242</ele>
        <time>2019-05-24T08:28:42Z</time>
      </trkpt>
      <trkpt lat="46.04172" lon="6.43604">
        <ele>1242</ele>
        <time>2019-05-24T08:28:43Z</time>
      </trkpt>
      <trkpt lat="46.04159" lon="6.4361">
        <ele>1242</ele>
        <time>2019-05-24T08:28:45Z</time>
      </trkpt>
      <trkpt lat="46.04142" lon="6.43613">
        <ele>1247</ele>
        <time>2019-05-24T08:28:48Z</time>
      </trkpt>
      <trkpt lat="46.04133" lon="6.43625">
        <ele>1248</ele>
        <time>2019-05-24T08:28:51Z</time>
      </trkpt>
      <trkpt lat="46.04124" lon="6.43648">
        <ele>1249</ele>
        <time>2019-05-24T08:28:54Z</time>
      </trkpt>
      <trkpt lat="46.04126" lon="6.43665">
        <ele>1246</ele>
        <time>2019-05-24T08:28:56Z</time>
      </trkpt>
      <trkpt lat="46.04123" lon="6.43682">
        <ele>1246</ele>
        <time>2019-05-24T08:28:58Z</time>
      </trkpt>
      <trkpt lat="46.04113" lon="6.43712">
        <ele>1248</ele>
        <time>2019-05-24T08:29:02Z</time>
      </trkpt>
      <trkpt lat="46.04094" lon="6.43759">
        <ele>1255</ele>
        <time>2019-05-24T08:29:09Z</time>
      </trkpt>
      <trkpt lat="46.04094" lon="6.43771">
        <ele>1254</ele>
        <time>2019-05-24T08:29:10Z</time>
      </trkpt>
      <trkpt lat="46.04102" lon="6.43776">
        <ele>1249</ele>
        <time>2019-05-24T08:29:12Z</time>
      </trkpt>
      <trkpt lat="46.04134" lon="6.43712">
        <ele>1237</ele>
        <time>2019-05-24T08:29:22Z</time>
      </trkpt>
      <trkpt lat="46.04145" lon="6.43679">
        <ele>1235</ele>
        <time>2019-05-24T08:29:26Z</time>
      </trkpt>
      <trkpt lat="46.04151" lon="6.43674">
        <ele>1233</ele>
        <time>2019-05-24T08:29:27Z</time>
      </trkpt>
      <trkpt lat="46.04171" lon="6.43677">
        <ele>1225</ele>
        <time>2019-05-24T08:29:31Z</time>
      </trkpt>
      <trkpt lat="46.04214" lon="6.43694">
        <ele>1220</ele>
        <time>2019-05-24T08:29:39Z</time>
      </trkpt>
      <trkpt lat="46.04288" lon="6.43743">
        <ele>1207</ele>
        <time>2019-05-24T08:29:53Z</time>
      </trkpt>
      <trkpt lat="46.04334" lon="6.43768">
        <ele>1203</ele>
        <time>2019-05-24T08:30:02Z</time>
      </trkpt>
      <trkpt lat="46.04352" lon="6.43787">
        <ele>1198</ele>
        <time>2019-05-24T08:30:06Z</time>
      </trkpt>
      <trkpt lat="46.04406" lon="6.43821">
        <ele>1191</ele>
        <time>2019-05-24T08:30:17Z</time>
      </trkpt>
      <trkpt lat="46.04421" lon="6.43837">
        <ele>1186</ele>
        <time>2019-05-24T08:30:20Z</time>
      </trkpt>
      <trkpt lat="46.04448" lon="6.43871">
        <ele>1179</ele>
        <time>2019-05-24T08:30:26Z</time>
      </trkpt>
      <trkpt lat="46.04462" lon="6.43881">
        <ele>1177</ele>
        <time>2019-05-24T08:30:29Z</time>
      </trkpt>
      <trkpt lat="46.04486" lon="6.43889">
        <ele>1176</ele>
        <time>2019-05-24T08:30:34Z</time>
      </trkpt>
      <trkpt lat="46.0451" lon="6.43891">
        <ele>1177</ele>
        <time>2019-05-24T08:30:38Z</time>
      </trkpt>
      <trkpt lat="46.04539" lon="6.43899">
        <ele>1177</ele>
        <time>2019-05-24T08:30:43Z</time>
      </trkpt>
      <trkpt lat="46.0462" lon="6.43933">
        <ele>1172</ele>
        <time>2019-05-24T08:30:58Z</time>
      </trkpt>
      <trkpt lat="46.04695" lon="6.43957">
        <ele>1163</ele>
        <time>2019-05-24T08:31:12Z</time>
      </trkpt>
      <trkpt lat="46.04703" lon="6.43956">
        <ele>1162</ele>
        <time>2019-05-24T08:31:13Z</time>
      </trkpt>
      <trkpt lat="46.04727" lon="6.43939">
        <ele>1161</ele>
        <time>2019-05-24T08:31:18Z</time>
      </trkpt>
      <trkpt lat="46.04748" lon="6.43921">
        <ele>1160</ele>
        <time>2019-05-24T08:31:22Z</time>
      </trkpt>
      <trkpt lat="46.04808" lon="6.4392">
        <ele>1149</ele>
        <time>2019-05-24T08:31:33Z</time>
      </trkpt>
      <trkpt lat="46.0482" lon="6.43924">
        <ele>1146</ele>
        <time>2019-05-24T08:31:35Z</time>
      </trkpt>
      <trkpt lat="46.04834" lon="6.43933">
        <ele>1141</ele>
        <time>2019-05-24T08:31:38Z</time>
      </trkpt>
      <trkpt lat="46.04892" lon="6.43978">
        <ele>1131</ele>
        <time>2019-05-24T08:31:50Z</time>
      </trkpt>
      <trkpt lat="46.04898" lon="6.4398">
        <ele>1131</ele>
        <time>2019-05-24T08:31:51Z</time>
      </trkpt>
      <trkpt lat="46.0491" lon="6.43976">
        <ele>1132</ele>
        <time>2019-05-24T08:31:53Z</time>
      </trkpt>
      <trkpt lat="46.04924" lon="6.43967">
        <ele>1136</ele>
        <time>2019-05-24T08:31:56Z</time>
      </trkpt>
      <trkpt lat="46.04937" lon="6.43961">
        <ele>1140</ele>
        <time>2019-05-24T08:31:58Z</time>
      </trkpt>
      <trkpt lat="46.04961" lon="6.43962">
        <ele>1143</ele>
        <time>2019-05-24T08:32:02Z</time>
      </trkpt>
      <trkpt lat="46.04979" lon="6.4397">
        <ele>1142</ele>
        <time>2019-05-24T08:32:06Z</time>
      </trkpt>
      <trkpt lat="46.0509" lon="6.44061">
        <ele>1116</ele>
        <time>2019-05-24T08:32:28Z</time>
      </trkpt>
      <trkpt lat="46.05133" lon="6.44086">
        <ele>1111</ele>
        <time>2019-05-24T08:32:37Z</time>
      </trkpt>
      <trkpt lat="46.05182" lon="6.4411">
        <ele>1108</ele>
        <time>2019-05-24T08:32:46Z</time>
      </trkpt>
      <trkpt lat="46.05201" lon="6.44124">
        <ele>1105</ele>
        <time>2019-05-24T08:32:50Z</time>
      </trkpt>
      <trkpt lat="46.05214" lon="6.44138">
        <ele>1102</ele>
        <time>2019-05-24T08:32:53Z</time>
      </trkpt>
      <trkpt lat="46.05227" lon="6.44157">
        <ele>1097</ele>
        <time>2019-05-24T08:32:56Z</time>
      </trkpt>
      <trkpt lat="46.05235" lon="6.44181">
        <ele>1093</ele>
        <time>2019-05-24T08:32:59Z</time>
      </trkpt>
      <trkpt lat="46.05242" lon="6.44224">
        <ele>1091</ele>
        <time>2019-05-24T08:33:05Z</time>
      </trkpt>
      <trkpt lat="46.05261" lon="6.44276">
        <ele>1088</ele>
        <time>2019-05-24T08:33:12Z</time>
      </trkpt>
      <trkpt lat="46.05267" lon="6.44299">
        <ele>1087</ele>
        <time>2019-05-24T08:33:15Z</time>
      </trkpt>
      <trkpt lat="46.05269" lon="6.44327">
        <ele>1086</ele>
        <time>2019-05-24T08:33:18Z</time>
      </trkpt>
      <trkpt lat="46.05268" lon="6.44379">
        <ele>1087</ele>
        <time>2019-05-24T08:33:25Z</time>
      </trkpt>
      <trkpt lat="46.05265" lon="6.4439">
        <ele>1087</ele>
        <time>2019-05-24T08:33:26Z</time>
      </trkpt>
      <trkpt lat="46.05258" lon="6.44397">
        <ele>1086</ele>
        <time>2019-05-24T08:33:28Z</time>
      </trkpt>
      <trkpt lat="46.05245" lon="6.44395">
        <ele>1083</ele>
        <time>2019-05-24T08:33:30Z</time>
      </trkpt>
      <trkpt lat="46.05241" lon="6.44391">
        <ele>1081</ele>
        <time>2019-05-24T08:33:31Z</time>
      </trkpt>
      <trkpt lat="46.05235" lon="6.44381">
        <ele>1080</ele>
        <time>2019-05-24T08:33:33Z</time>
      </trkpt>
      <trkpt lat="46.05227" lon="6.44362">
        <ele>1078</ele>
        <time>2019-05-24T08:33:35Z</time>
      </trkpt>
      <trkpt lat="46.05217" lon="6.44327">
        <ele>1077</ele>
        <time>2019-05-24T08:33:40Z</time>
      </trkpt>
      <trkpt lat="46.05205" lon="6.44297">
        <ele>1076</ele>
        <time>2019-05-24T08:33:44Z</time>
      </trkpt>
      <trkpt lat="46.05195" lon="6.4428">
        <ele>1076</ele>
        <time>2019-05-24T08:33:47Z</time>
      </trkpt>
      <trkpt lat="46.05182" lon="6.44265">
        <ele>1074</ele>
        <time>2019-05-24T08:33:50Z</time>
      </trkpt>
      <trkpt lat="46.05175" lon="6.4426">
        <ele>1073</ele>
        <time>2019-05-24T08:33:51Z</time>
      </trkpt>
      <trkpt lat="46.05163" lon="6.4426">
        <ele>1070</ele>
        <time>2019-05-24T08:33:53Z</time>
      </trkpt>
      <trkpt lat="46.05142" lon="6.44271">
        <ele>1065</ele>
        <time>2019-05-24T08:33:57Z</time>
      </trkpt>
      <trkpt lat="46.05134" lon="6.44273">
        <ele>1063</ele>
        <time>2019-05-24T08:33:59Z</time>
      </trkpt>
      <trkpt lat="46.05124" lon="6.44273">
        <ele>1062</ele>
        <time>2019-05-24T08:34:01Z</time>
      </trkpt>
      <trkpt lat="46.05113" lon="6.44269">
        <ele>1060</ele>
        <time>2019-05-24T08:34:03Z</time>
      </trkpt>
      <trkpt lat="46.05101" lon="6.44261">
        <ele>1060</ele>
        <time>2019-05-24T08:34:05Z</time>
      </trkpt>
      <trkpt lat="46.05089" lon="6.44251">
        <ele>1060</ele>
        <time>2019-05-24T08:34:08Z</time>
      </trkpt>
      <trkpt lat="46.05058" lon="6.44209">
        <ele>1066</ele>
        <time>2019-05-24T08:34:15Z</time>
      </trkpt>
      <trkpt lat="46.05049" lon="6.44205">
        <ele>1066</ele>
        <time>2019-05-24T08:34:17Z</time>
      </trkpt>
      <trkpt lat="46.05031" lon="6.44205">
        <ele>1065</ele>
        <time>2019-05-24T08:34:20Z</time>
      </trkpt>
      <trkpt lat="46.05023" lon="6.44211">
        <ele>1063</ele>
        <time>2019-05-24T08:34:22Z</time>
      </trkpt>
      <trkpt lat="46.04999" lon="6.44235">
        <ele>1054</ele>
        <time>2019-05-24T08:34:27Z</time>
      </trkpt>
      <trkpt lat="46.04983" lon="6.44247">
        <ele>1050</ele>
        <time>2019-05-24T08:34:30Z</time>
      </trkpt>
      <trkpt lat="46.04972" lon="6.44252">
        <ele>1048</ele>
        <time>2019-05-24T08:34:32Z</time>
      </trkpt>
      <trkpt lat="46.04922" lon="6.44263">
        <ele>1046</ele>
        <time>2019-05-24T08:34:41Z</time>
      </trkpt>
      <trkpt lat="46.04899" lon="6.44293">
        <ele>1039</ele>
        <time>2019-05-24T08:34:47Z</time>
      </trkpt>
      <trkpt lat="46.04866" lon="6.44309">
        <ele>1038</ele>
        <time>2019-05-24T08:34:53Z</time>
      </trkpt>
      <trkpt lat="46.04849" lon="6.44331">
        <ele>1034</ele>
        <time>2019-05-24T08:34:57Z</time>
      </trkpt>
      <trkpt lat="46.04825" lon="6.44353">
        <ele>1031</ele>
        <time>2019-05-24T08:35:02Z</time>
      </trkpt>
      <trkpt lat="46.04781" lon="6.44379">
        <ele>1030</ele>
        <time>2019-05-24T08:35:10Z</time>
      </trkpt>
      <trkpt lat="46.04762" lon="6.44388">
        <ele>1030</ele>
        <time>2019-05-24T08:35:14Z</time>
      </trkpt>
      <trkpt lat="46.04746" lon="6.444">
        <ele>1029</ele>
        <time>2019-05-24T08:35:17Z</time>
      </trkpt>
      <trkpt lat="46.0468" lon="6.44437">
        <ele>1025</ele>
        <time>2019-05-24T08:35:30Z</time>
      </trkpt>
      <trkpt lat="46.04676" lon="6.44451">
        <ele>1023</ele>
        <time>2019-05-24T08:35:32Z</time>
      </trkpt>
      <trkpt lat="46.04679" lon="6.44461">
        <ele>1022</ele>
        <time>2019-05-24T08:35:33Z</time>
      </trkpt>
      <trkpt lat="46.04712" lon="6.44486">
        <ele>1016</ele>
        <time>2019-05-24T08:35:40Z</time>
      </trkpt>
      <trkpt lat="46.04739" lon="6.44484">
        <ele>1016</ele>
        <time>2019-05-24T08:35:44Z</time>
      </trkpt>
      <trkpt lat="46.04756" lon="6.44506">
        <ele>1011</ele>
        <time>2019-05-24T08:35:48Z</time>
      </trkpt>
      <trkpt lat="46.0477" lon="6.44501">
        <ele>1011</ele>
        <time>2019-05-24T08:35:51Z</time>
      </trkpt>
      <trkpt lat="46.04796" lon="6.44476">
        <ele>1012</ele>
        <time>2019-05-24T08:35:57Z</time>
      </trkpt>
      <trkpt lat="46.04827" lon="6.44458">
        <ele>1011</ele>
        <time>2019-05-24T08:36:03Z</time>
      </trkpt>
      <trkpt lat="46.04852" lon="6.44445">
        <ele>1011</ele>
        <time>2019-05-24T08:36:07Z</time>
      </trkpt>
      <trkpt lat="46.04867" lon="6.44446">
        <ele>1009</ele>
        <time>2019-05-24T08:36:10Z</time>
      </trkpt>
      <trkpt lat="46.04873" lon="6.44483">
        <ele>1004</ele>
        <time>2019-05-24T08:36:15Z</time>
      </trkpt>
      <trkpt lat="46.04876" lon="6.4449">
        <ele>1002</ele>
        <time>2019-05-24T08:36:16Z</time>
      </trkpt>
      <trkpt lat="46.04881" lon="6.44495">
        <ele>1001</ele>
        <time>2019-05-24T08:36:17Z</time>
      </trkpt>
      <trkpt lat="46.04885" lon="6.44504">
        <ele>1000</ele>
        <time>2019-05-24T08:36:18Z</time>
      </trkpt>
      <trkpt lat="46.04889" lon="6.44518">
        <ele>997</ele>
        <time>2019-05-24T08:36:20Z</time>
      </trkpt>
      <trkpt lat="46.04883" lon="6.44528">
        <ele>996</ele>
        <time>2019-05-24T08:36:22Z</time>
      </trkpt>
      <trkpt lat="46.04865" lon="6.44552">
        <ele>993</ele>
        <time>2019-05-24T08:36:26Z</time>
      </trkpt>
      <trkpt lat="46.0487" lon="6.44561">
        <ele>992</ele>
        <time>2019-05-24T08:36:27Z</time>
      </trkpt>
      <trkpt lat="46.04885" lon="6.4457">
        <ele>990</ele>
        <time>2019-05-24T08:36:30Z</time>
      </trkpt>
      <trkpt lat="46.04894" lon="6.44572">
        <ele>989</ele>
        <time>2019-05-24T08:36:32Z</time>
      </trkpt>
      <trkpt lat="46.04917" lon="6.44566">
        <ele>988</ele>
        <time>2019-05-24T08:36:36Z</time>
      </trkpt>
      <trkpt lat="46.04931" lon="6.44567">
        <ele>988</ele>
        <time>2019-05-24T08:36:38Z</time>
      </trkpt>
      <trkpt lat="46.04964" lon="6.44583">
        <ele>984</ele>
        <time>2019-05-24T08:36:45Z</time>
      </trkpt>
      <trkpt lat="46.04993" lon="6.44603">
        <ele>980</ele>
        <time>2019-05-24T08:36:50Z</time>
      </trkpt>
      <trkpt lat="46.05008" lon="6.44611">
        <ele>980</ele>
        <time>2019-05-24T08:36:53Z</time>
      </trkpt>
      <trkpt lat="46.05021" lon="6.44622">
        <ele>980</ele>
        <time>2019-05-24T08:36:56Z</time>
      </trkpt>
      <trkpt lat="46.05029" lon="6.44641">
        <ele>978</ele>
        <time>2019-05-24T08:36:59Z</time>
      </trkpt>
      <trkpt lat="46.05037" lon="6.44673">
        <ele>974</ele>
        <time>2019-05-24T08:37:03Z</time>
      </trkpt>
      <trkpt lat="46.05045" lon="6.44688">
        <ele>972</ele>
        <time>2019-05-24T08:37:05Z</time>
      </trkpt>
      <trkpt lat="46.05073" lon="6.44709">
        <ele>971</ele>
        <time>2019-05-24T08:37:11Z</time>
      </trkpt>
      <trkpt lat="46.05092" lon="6.4474">
        <ele>968</ele>
        <time>2019-05-24T08:37:16Z</time>
      </trkpt>
      <trkpt lat="46.05105" lon="6.44767">
        <ele>965</ele>
        <time>2019-05-24T08:37:20Z</time>
      </trkpt>
      <trkpt lat="46.05135" lon="6.44817">
        <ele>960</ele>
        <time>2019-05-24T08:37:28Z</time>
      </trkpt>
      <trkpt lat="46.05156" lon="6.44844">
        <ele>958</ele>
        <time>2019-05-24T08:37:33Z</time>
      </trkpt>
      <trkpt lat="46.05184" lon="6.44871">
        <ele>962</ele>
        <time>2019-05-24T08:37:39Z</time>
      </trkpt>
      <trkpt lat="46.05196" lon="6.44888">
        <ele>964</ele>
        <time>2019-05-24T08:37:42Z</time>
      </trkpt>
      <trkpt lat="46.05205" lon="6.44927">
        <ele>959</ele>
        <time>2019-05-24T08:37:47Z</time>
      </trkpt>
      <trkpt lat="46.05208" lon="6.44958">
        <ele>951</ele>
        <time>2019-05-24T08:37:51Z</time>
      </trkpt>
      <trkpt lat="46.05242" lon="6.45003">
        <ele>948</ele>
        <time>2019-05-24T08:37:59Z</time>
      </trkpt>
      <trkpt lat="46.05271" lon="6.45028">
        <ele>948</ele>
        <time>2019-05-24T08:38:05Z</time>
      </trkpt>
      <trkpt lat="46.0532" lon="6.45106">
        <ele>933</ele>
        <time>2019-05-24T08:38:18Z</time>
      </trkpt>
      <trkpt lat="46.05331" lon="6.45143">
        <ele>925</ele>
        <time>2019-05-24T08:38:23Z</time>
      </trkpt>
      <trkpt lat="46.05337" lon="6.4518">
        <ele>912</ele>
        <time>2019-05-24T08:38:28Z</time>
      </trkpt>
      <trkpt lat="46.05348" lon="6.45203">
        <ele>904</ele>
        <time>2019-05-24T08:38:31Z</time>
      </trkpt>
      <trkpt lat="46.05368" lon="6.45215">
        <ele>904</ele>
        <time>2019-05-24T08:38:35Z</time>
      </trkpt>
      <trkpt lat="46.05394" lon="6.45208">
        <ele>914</ele>
        <time>2019-05-24T08:38:40Z</time>
      </trkpt>
      <trkpt lat="46.05432" lon="6.45182">
        <ele>911</ele>
        <time>2019-05-24T08:38:47Z</time>
      </trkpt>
      <trkpt lat="46.05446" lon="6.45179">
        <ele>897</ele>
        <time>2019-05-24T08:38:50Z</time>
      </trkpt>
      <trkpt lat="46.05461" lon="6.4519">
        <ele>877</ele>
        <time>2019-05-24T08:38:53Z</time>
      </trkpt>
      <trkpt lat="46.05475" lon="6.4519">
        <ele>862</ele>
        <time>2019-05-24T08:38:55Z</time>
      </trkpt>
      <trkpt lat="46.05494" lon="6.4516">
        <ele>855</ele>
        <time>2019-05-24T08:39:00Z</time>
      </trkpt>
      <trkpt lat="46.05502" lon="6.45123">
        <ele>862</ele>
        <time>2019-05-24T08:39:05Z</time>
      </trkpt>
      <trkpt lat="46.05514" lon="6.45102">
        <ele>851</ele>
        <time>2019-05-24T08:39:09Z</time>
      </trkpt>
      <trkpt lat="46.05528" lon="6.45068">
        <ele>840</ele>
        <time>2019-05-24T08:39:14Z</time>
      </trkpt>
      <trkpt lat="46.05536" lon="6.45037">
        <ele>843</ele>
        <time>2019-05-24T08:39:18Z</time>
      </trkpt>
      <trkpt lat="46.05548" lon="6.44967">
        <ele>864</ele>
        <time>2019-05-24T08:39:26Z</time>
      </trkpt>
      <trkpt lat="46.05551" lon="6.44917">
        <ele>893</ele>
        <time>2019-05-24T08:39:33Z</time>
      </trkpt>
      <trkpt lat="46.05548" lon="6.44877">
        <ele>903</ele>
        <time>2019-05-24T08:39:38Z</time>
      </trkpt>
      <trkpt lat="46.05553" lon="6.44824">
        <ele>903</ele>
        <time>2019-05-24T08:39:44Z</time>
      </trkpt>
      <trkpt lat="46.05565" lon="6.448">
        <ele>890</ele>
        <time>2019-05-24T08:39:48Z</time>
      </trkpt>
      <trkpt lat="46.05583" lon="6.44779">
        <ele>871</ele>
        <time>2019-05-24T08:39:52Z</time>
      </trkpt>
      <trkpt lat="46.05603" lon="6.44691">
        <ele>861</ele>
        <time>2019-05-24T08:40:03Z</time>
      </trkpt>
      <trkpt lat="46.05604" lon="6.44589">
        <ele>858</ele>
        <time>2019-05-24T08:40:16Z</time>
      </trkpt>
      <trkpt lat="46.05597" lon="6.44481">
        <ele>855</ele>
        <time>2019-05-24T08:40:29Z</time>
      </trkpt>
      <trkpt lat="46.05587" lon="6.44414">
        <ele>854</ele>
        <time>2019-05-24T08:40:38Z</time>
      </trkpt>
      <trkpt lat="46.05581" lon="6.4433">
        <ele>847</ele>
        <time>2019-05-24T08:40:48Z</time>
      </trkpt>
      <trkpt lat="46.05582" lon="6.44295">
        <ele>838</ele>
        <time>2019-05-24T08:40:53Z</time>
      </trkpt>
      <trkpt lat="46.05577" lon="6.44266">
        <ele>839</ele>
        <time>2019-05-24T08:40:56Z</time>
      </trkpt>
      <trkpt lat="46.05568" lon="6.44252">
        <ele>848</ele>
        <time>2019-05-24T08:40:59Z</time>
      </trkpt>
      <trkpt lat="46.05562" lon="6.4418">
        <ele>839</ele>
        <time>2019-05-24T08:41:08Z</time>
      </trkpt>
      <trkpt lat="46.05565" lon="6.44144">
        <ele>829</ele>
        <time>2019-05-24T08:41:12Z</time>
      </trkpt>
      <trkpt lat="46.05556" lon="6.4405">
        <ele>828</ele>
        <time>2019-05-24T08:41:24Z</time>
      </trkpt>
      <trkpt lat="46.0556" lon="6.43972">
        <ele>797</ele>
        <time>2019-05-24T08:41:34Z</time>
      </trkpt>
      <trkpt lat="46.05544" lon="6.4391">
        <ele>800</ele>
        <time>2019-05-24T08:41:42Z</time>
      </trkpt>
      <trkpt lat="46.05534" lon="6.439">
        <ele>807</ele>
        <time>2019-05-24T08:41:44Z</time>
      </trkpt>
      <trkpt lat="46.05527" lon="6.43881">
        <ele>810</ele>
        <time>2019-05-24T08:41:47Z</time>
      </trkpt>
      <trkpt lat="46.05523" lon="6.4385">
        <ele>807</ele>
        <time>2019-05-24T08:41:50Z</time>
      </trkpt>
      <trkpt lat="46.05513" lon="6.4383">
        <ele>811</ele>
        <time>2019-05-24T08:41:53Z</time>
      </trkpt>
      <trkpt lat="46.05512" lon="6.43806">
        <ele>815</ele>
        <time>2019-05-24T08:41:56Z</time>
      </trkpt>
      <trkpt lat="46.05531" lon="6.43758">
        <ele>810</ele>
        <time>2019-05-24T08:42:03Z</time>
      </trkpt>
      <trkpt lat="46.05554" lon="6.43748">
        <ele>797</ele>
        <time>2019-05-24T08:42:08Z</time>
      </trkpt>
      <trkpt lat="46.05582" lon="6.43657">
        <ele>792</ele>
        <time>2019-05-24T08:42:20Z</time>
      </trkpt>
      <trkpt lat="46.05605" lon="6.43623">
        <ele>777</ele>
        <time>2019-05-24T08:42:26Z</time>
      </trkpt>
      <trkpt lat="46.05608" lon="6.43592">
        <ele>778</ele>
        <time>2019-05-24T08:42:30Z</time>
      </trkpt>
      <trkpt lat="46.05595" lon="6.43536">
        <ele>795</ele>
        <time>2019-05-24T08:42:37Z</time>
      </trkpt>
      <trkpt lat="46.056" lon="6.43509">
        <ele>795</ele>
        <time>2019-05-24T08:42:40Z</time>
      </trkpt>
      <trkpt lat="46.05612" lon="6.43497">
        <ele>788</ele>
        <time>2019-05-24T08:42:43Z</time>
      </trkpt>
      <trkpt lat="46.0563" lon="6.43502">
        <ele>775</ele>
        <time>2019-05-24T08:42:46Z</time>
      </trkpt>
      <trkpt lat="46.05653" lon="6.43485">
        <ele>761</ele>
        <time>2019-05-24T08:42:51Z</time>
      </trkpt>
      <trkpt lat="46.05656" lon="6.43454">
        <ele>760</ele>
        <time>2019-05-24T08:42:55Z</time>
      </trkpt>
      <trkpt lat="46.0566" lon="6.43438">
        <ele>758</ele>
        <time>2019-05-24T08:42:57Z</time>
      </trkpt>
      <trkpt lat="46.05673" lon="6.43412">
        <ele>750</ele>
        <time>2019-05-24T08:43:01Z</time>
      </trkpt>
      <trkpt lat="46.05672" lon="6.43386">
        <ele>749</ele>
        <time>2019-05-24T08:43:04Z</time>
      </trkpt>
      <trkpt lat="46.05674" lon="6.43374">
        <ele>747</ele>
        <time>2019-05-24T08:43:05Z</time>
      </trkpt>
      <trkpt lat="46.05677" lon="6.43368">
        <ele>745</ele>
        <time>2019-05-24T08:43:06Z</time>
      </trkpt>
      <trkpt lat="46.05683" lon="6.43366">
        <ele>741</ele>
        <time>2019-05-24T08:43:07Z</time>
      </trkpt>
      <trkpt lat="46.05687" lon="6.43367">
        <ele>739</ele>
        <time>2019-05-24T08:43:08Z</time>
      </trkpt>
      <trkpt lat="46.05691" lon="6.43374">
        <ele>737</ele>
        <time>2019-05-24T08:43:09Z</time>
      </trkpt>
      <trkpt lat="46.05692" lon="6.43387">
        <ele>737</ele>
        <time>2019-05-24T08:43:11Z</time>
      </trkpt>
      <trkpt lat="46.05681" lon="6.43438">
        <ele>745</ele>
        <time>2019-05-24T08:43:17Z</time>
      </trkpt>
      <trkpt lat="46.0569" lon="6.43483">
        <ele>738</ele>
        <time>2019-05-24T08:43:23Z</time>
      </trkpt>
      <trkpt lat="46.05678" lon="6.4351">
        <ele>742</ele>
        <time>2019-05-24T08:43:27Z</time>
      </trkpt>
      <trkpt lat="46.05663" lon="6.43531">
        <ele>746</ele>
        <time>2019-05-24T08:43:31Z</time>
      </trkpt>
      <trkpt lat="46.05655" lon="6.43557">
        <ele>746</ele>
        <time>2019-05-24T08:43:34Z</time>
      </trkpt>
      <trkpt lat="46.05638" lon="6.43568">
        <ele>757</ele>
        <time>2019-05-24T08:43:38Z</time>
      </trkpt>
      <trkpt lat="46.05649" lon="6.43657">
        <ele>735</ele>
        <time>2019-05-24T08:43:49Z</time>
      </trkpt>
      <trkpt lat="46.05644" lon="6.43709">
        <ele>733</ele>
        <time>2019-05-24T08:43:55Z</time>
      </trkpt>
      <trkpt lat="46.05646" lon="6.43757">
        <ele>727</ele>
        <time>2019-05-24T08:44:01Z</time>
      </trkpt>
      <trkpt lat="46.05642" lon="6.43786">
        <ele>726</ele>
        <time>2019-05-24T08:44:05Z</time>
      </trkpt>
      <trkpt lat="46.0563" lon="6.43812">
        <ele>732</ele>
        <time>2019-05-24T08:44:09Z</time>
      </trkpt>
      <trkpt lat="46.05635" lon="6.43839">
        <ele>726</ele>
        <time>2019-05-24T08:44:12Z</time>
      </trkpt>
      <trkpt lat="46.05653" lon="6.43872">
        <ele>713</ele>
        <time>2019-05-24T08:44:17Z</time>
      </trkpt>
      <trkpt lat="46.05662" lon="6.43924">
        <ele>707</ele>
        <time>2019-05-24T08:44:24Z</time>
      </trkpt>
      <trkpt lat="46.05651" lon="6.43963">
        <ele>713</ele>
        <time>2019-05-24T08:44:29Z</time>
      </trkpt>
      <trkpt lat="46.05655" lon="6.44012">
        <ele>706</ele>
        <time>2019-05-24T08:44:35Z</time>
      </trkpt>
      <trkpt lat="46.05649" lon="6.44041">
        <ele>711</ele>
        <time>2019-05-24T08:44:39Z</time>
      </trkpt>
      <trkpt lat="46.05656" lon="6.4417">
        <ele>697</ele>
        <time>2019-05-24T08:44:55Z</time>
      </trkpt>
      <trkpt lat="46.05672" lon="6.44235">
        <ele>687</ele>
        <time>2019-05-24T08:45:04Z</time>
      </trkpt>
      <trkpt lat="46.057" lon="6.44324">
        <ele>691</ele>
        <time>2019-05-24T08:45:16Z</time>
      </trkpt>
      <trkpt lat="46.05761" lon="6.444">
        <ele>671</ele>
        <time>2019-05-24T08:45:30Z</time>
      </trkpt>
      <trkpt lat="46.05793" lon="6.44455">
        <ele>657</ele>
        <time>2019-05-24T08:45:39Z</time>
      </trkpt>
      <trkpt lat="46.05806" lon="6.44509">
        <ele>653</ele>
        <time>2019-05-24T08:45:46Z</time>
      </trkpt>
      <trkpt lat="46.0581" lon="6.44595">
        <ele>658</ele>
        <time>2019-05-24T08:45:57Z</time>
      </trkpt>
      <trkpt lat="46.05823" lon="6.4463">
        <ele>653</ele>
        <time>2019-05-24T08:46:01Z</time>
      </trkpt>
      <trkpt lat="46.05865" lon="6.44717">
        <ele>646</ele>
        <time>2019-05-24T08:46:15Z</time>
      </trkpt>
      <trkpt lat="46.05883" lon="6.44712">
        <ele>636</ele>
        <time>2019-05-24T08:46:18Z</time>
      </trkpt>
      <trkpt lat="46.05871" lon="6.44683">
        <ele>637</ele>
        <time>2019-05-24T08:46:22Z</time>
      </trkpt>
      <trkpt lat="46.05858" lon="6.44658">
        <ele>639</ele>
        <time>2019-05-24T08:46:26Z</time>
      </trkpt>
      <trkpt lat="46.0585" lon="6.44623">
        <ele>637</ele>
        <time>2019-05-24T08:46:30Z</time>
      </trkpt>
      <trkpt lat="46.05836" lon="6.44586">
        <ele>640</ele>
        <time>2019-05-24T08:46:36Z</time>
      </trkpt>
      <trkpt lat="46.05836" lon="6.44572">
        <ele>638</ele>
        <time>2019-05-24T08:46:37Z</time>
      </trkpt>
      <trkpt lat="46.05845" lon="6.44536">
        <ele>629</ele>
        <time>2019-05-24T08:46:42Z</time>
      </trkpt>
      <trkpt lat="46.05849" lon="6.44494">
        <ele>622</ele>
        <time>2019-05-24T08:46:47Z</time>
      </trkpt>
      <trkpt lat="46.05849" lon="6.44468">
        <ele>621</ele>
        <time>2019-05-24T08:46:51Z</time>
      </trkpt>
      <trkpt lat="46.0584" lon="6.44393">
        <ele>620</ele>
        <time>2019-05-24T08:47:00Z</time>
      </trkpt>
      <trkpt lat="46.05832" lon="6.4435">
        <ele>618</ele>
        <time>2019-05-24T08:47:05Z</time>
      </trkpt>
      <trkpt lat="46.05823" lon="6.44315">
        <ele>617</ele>
        <time>2019-05-24T08:47:10Z</time>
      </trkpt>
      <trkpt lat="46.05808" lon="6.44278">
        <ele>616</ele>
        <time>2019-05-24T08:47:15Z</time>
      </trkpt>
      <trkpt lat="46.05797" lon="6.44243">
        <ele>614</ele>
        <time>2019-05-24T08:47:20Z</time>
      </trkpt>
      <trkpt lat="46.05793" lon="6.44225">
        <ele>612</ele>
        <time>2019-05-24T08:47:22Z</time>
      </trkpt>
      <trkpt lat="46.0579" lon="6.4413">
        <ele>601</ele>
        <time>2019-05-24T08:47:34Z</time>
      </trkpt>
      <trkpt lat="46.05794" lon="6.44028">
        <ele>599</ele>
        <time>2019-05-24T08:47:47Z</time>
      </trkpt>
      <trkpt lat="46.05816" lon="6.43974">
        <ele>591</ele>
        <time>2019-05-24T08:47:54Z</time>
      </trkpt>
      <trkpt lat="46.05843" lon="6.43958">
        <ele>579</ele>
        <time>2019-05-24T08:48:00Z</time>
      </trkpt>
      <trkpt lat="46.05856" lon="6.43948">
        <ele>575</ele>
        <time>2019-05-24T08:48:02Z</time>
      </trkpt>
      <trkpt lat="46.05904" lon="6.43867">
        <ele>564</ele>
        <time>2019-05-24T08:48:15Z</time>
      </trkpt>
      <trkpt lat="46.05924" lon="6.43791">
        <ele>564</ele>
        <time>2019-05-24T08:48:25Z</time>
      </trkpt>
      <trkpt lat="46.05949" lon="6.43757">
        <ele>558</ele>
        <time>2019-05-24T08:48:32Z</time>
      </trkpt>
      <trkpt lat="46.05974" lon="6.43694">
        <ele>555</ele>
        <time>2019-05-24T08:48:41Z</time>
      </trkpt>
      <trkpt lat="46.05985" lon="6.4366">
        <ele>552</ele>
        <time>2019-05-24T08:48:45Z</time>
      </trkpt>
      <trkpt lat="46.05999" lon="6.43635">
        <ele>545</ele>
        <time>2019-05-24T08:48:49Z</time>
      </trkpt>
      <trkpt lat="46.06015" lon="6.43618">
        <ele>541</ele>
        <time>2019-05-24T08:48:53Z</time>
      </trkpt>
      <trkpt lat="46.06035" lon="6.43606">
        <ele>536</ele>
        <time>2019-05-24T08:48:57Z</time>
      </trkpt>
      <trkpt lat="46.06043" lon="6.43617">
        <ele>533</ele>
        <time>2019-05-24T08:48:59Z</time>
      </trkpt>
      <trkpt lat="46.06041" lon="6.43632">
        <ele>532</ele>
        <time>2019-05-24T08:49:00Z</time>
      </trkpt>
      <trkpt lat="46.06023" lon="6.4365">
        <ele>537</ele>
        <time>2019-05-24T08:49:04Z</time>
      </trkpt>
      <trkpt lat="46.06011" lon="6.4368">
        <ele>538</ele>
        <time>2019-05-24T08:49:09Z</time>
      </trkpt>
      <trkpt lat="46.0601" lon="6.4369">
        <ele>537</ele>
        <time>2019-05-24T08:49:10Z</time>
      </trkpt>
      <trkpt lat="46.06017" lon="6.43773">
        <ele>528</ele>
        <time>2019-05-24T08:49:20Z</time>
      </trkpt>
      <trkpt lat="46.06029" lon="6.43823">
        <ele>521</ele>
        <time>2019-05-24T08:49:27Z</time>
      </trkpt>
      <trkpt lat="46.06041" lon="6.43855">
        <ele>516</ele>
        <time>2019-05-24T08:49:31Z</time>
      </trkpt>
      <trkpt lat="46.06057" lon="6.43965">
        <ele>506</ele>
        <time>2019-05-24T08:49:45Z</time>
      </trkpt>
      <trkpt lat="46.06052" lon="6.43995">
        <ele>505</ele>
        <time>2019-05-24T08:49:49Z</time>
      </trkpt>
      <trkpt lat="46.06044" lon="6.44096">
        <ele>494</ele>
        <time>2019-05-24T08:50:01Z</time>
      </trkpt>
      <trkpt lat="46.0604" lon="6.44124">
        <ele>494</ele>
        <time>2019-05-24T08:50:05Z</time>
      </trkpt>
      <trkpt lat="46.06042" lon="6.44148">
        <ele>493</ele>
        <time>2019-05-24T08:50:08Z</time>
      </trkpt>
      <trkpt lat="46.06046" lon="6.44156">
        <ele>492</ele>
        <time>2019-05-24T08:50:09Z</time>
      </trkpt>
      <trkpt lat="46.06054" lon="6.44164">
        <ele>489</ele>
        <time>2019-05-24T08:50:11Z</time>
      </trkpt>
      <trkpt lat="46.0608" lon="6.44181">
        <ele>481</ele>
        <time>2019-05-24T08:50:16Z</time>
      </trkpt>
      <trkpt lat="46.06164" lon="6.44226">
        <ele>475</ele>
        <time>2019-05-24T08:50:32Z</time>
      </trkpt>
      <trkpt lat="46.0619" lon="6.44232">
        <ele>474</ele>
        <time>2019-05-24T08:50:37Z</time>
      </trkpt>
      <trkpt lat="46.06224" lon="6.44219">
        <ele>472</ele>
        <time>2019-05-24T08:50:43Z</time>
      </trkpt>
      <trkpt lat="46.06243" lon="6.44216">
        <ele>471</ele>
        <time>2019-05-24T08:50:46Z</time>
      </trkpt>
      <trkpt lat="46.06255" lon="6.44208">
        <ele>470</ele>
        <time>2019-05-24T08:50:49Z</time>
      </trkpt>
      <trkpt lat="46.06276" lon="6.44163">
        <ele>468</ele>
        <time>2019-05-24T08:50:55Z</time>
      </trkpt>
      <trkpt lat="46.063" lon="6.44167">
        <ele>467</ele>
        <time>2019-05-24T08:51:00Z</time>
      </trkpt>
      <trkpt lat="46.06345" lon="6.44195">
        <ele>466</ele>
        <time>2019-05-24T08:51:08Z</time>
      </trkpt>
      <trkpt lat="46.06387" lon="6.44212">
        <ele>465</ele>
        <time>2019-05-24T08:51:16Z</time>
      </trkpt>
      <trkpt lat="46.06401" lon="6.44211">
        <ele>464</ele>
        <time>2019-05-24T08:51:19Z</time>
      </trkpt>
      <trkpt lat="46.06462" lon="6.4418">
        <ele>463</ele>
        <time>2019-05-24T08:51:30Z</time>
      </trkpt>
      <trkpt lat="46.06522" lon="6.44168">
        <ele>461</ele>
        <time>2019-05-24T08:51:41Z</time>
      </trkpt>
      <trkpt lat="46.06544" lon="6.44172">
        <ele>461</ele>
        <time>2019-05-24T08:51:45Z</time>
      </trkpt>
      <trkpt lat="46.0659" lon="6.44174">
        <ele>460</ele>
        <time>2019-05-24T08:51:53Z</time>
      </trkpt>
      <trkpt lat="46.06642" lon="6.44187">
        <ele>457</ele>
        <time>2019-05-24T08:52:02Z</time>
      </trkpt>
      <trkpt lat="46.06681" lon="6.44191">
        <ele>457</ele>
        <time>2019-05-24T08:52:09Z</time>
      </trkpt>
      <trkpt lat="46.06719" lon="6.44188">
        <ele>456</ele>
        <time>2019-05-24T08:52:16Z</time>
      </trkpt>
      <trkpt lat="46.06772" lon="6.44193">
        <ele>456</ele>
        <time>2019-05-24T08:52:26Z</time>
      </trkpt>
      <trkpt lat="46.06799" lon="6.44201">
        <ele>456</ele>
        <time>2019-05-24T08:52:30Z</time>
      </trkpt>
      <trkpt lat="46.06818" lon="6.44203">
        <ele>455</ele>
        <time>2019-05-24T08:52:34Z</time>
      </trkpt>
      <trkpt lat="46.06855" lon="6.44191">
        <ele>455</ele>
        <time>2019-05-24T08:52:41Z</time>
      </trkpt>
      <trkpt lat="46.06903" lon="6.44191">
        <ele>454</ele>
        <time>2019-05-24T08:52:49Z</time>
      </trkpt>
      <trkpt lat="46.06929" lon="6.44181">
        <ele>454</ele>
        <time>2019-05-24T08:52:54Z</time>
      </trkpt>
      <trkpt lat="46.06957" lon="6.43976">
        <ele>452</ele>
        <time>2019-05-24T08:53:20Z</time>
      </trkpt>
      <trkpt lat="46.06991" lon="6.43711">
        <ele>451</ele>
        <time>2019-05-24T08:53:53Z</time>
      </trkpt>
      <trkpt lat="46.07003" lon="6.43599">
        <ele>452</ele>
        <time>2019-05-24T08:54:07Z</time>
      </trkpt>
      <trkpt lat="46.07005" lon="6.43558">
        <ele>452</ele>
        <time>2019-05-24T08:54:12Z</time>
      </trkpt>
      <trkpt lat="46.07005" lon="6.43507">
        <ele>451</ele>
        <time>2019-05-24T08:54:18Z</time>
      </trkpt>
      <trkpt lat="46.06991" lon="6.43389">
        <ele>449</ele>
        <time>2019-05-24T08:54:33Z</time>
      </trkpt>
      <trkpt lat="46.06988" lon="6.43345">
        <ele>449</ele>
        <time>2019-05-24T08:54:39Z</time>
      </trkpt>
      <trkpt lat="46.06991" lon="6.43311">
        <ele>450</ele>
        <time>2019-05-24T08:54:43Z</time>
      </trkpt>
      <trkpt lat="46.06997" lon="6.43265">
        <ele>451</ele>
        <time>2019-05-24T08:54:49Z</time>
      </trkpt>
      <trkpt lat="46.07013" lon="6.43194">
        <ele>452</ele>
        <time>2019-05-24T08:54:58Z</time>
      </trkpt>
      <trkpt lat="46.07072" lon="6.42981">
        <ele>450</ele>
        <time>2019-05-24T08:55:26Z</time>
      </trkpt>
      <trkpt lat="46.071" lon="6.42837">
        <ele>450</ele>
        <time>2019-05-24T08:55:45Z</time>
      </trkpt>
      <trkpt lat="46.07125" lon="6.42653">
        <ele>447</ele>
        <time>2019-05-24T08:56:08Z</time>
      </trkpt>
      <trkpt lat="46.07135" lon="6.42621">
        <ele>447</ele>
        <time>2019-05-24T08:56:12Z</time>
      </trkpt>
      <trkpt lat="46.07141" lon="6.42617">
        <ele>447</ele>
        <time>2019-05-24T08:56:13Z</time>
      </trkpt>
      <trkpt lat="46.07146" lon="6.42609">
        <ele>447</ele>
        <time>2019-05-24T08:56:15Z</time>
      </trkpt>
      <trkpt lat="46.07176" lon="6.42606">
        <ele>448</ele>
        <time>2019-05-24T08:56:20Z</time>
      </trkpt>
      <trkpt lat="46.07248" lon="6.42633">
        <ele>447</ele>
        <time>2019-05-24T08:56:33Z</time>
      </trkpt>
      <trkpt lat="46.07283" lon="6.42652">
        <ele>448</ele>
        <time>2019-05-24T08:56:40Z</time>
      </trkpt>
      <trkpt lat="46.07313" lon="6.42679">
        <ele>449</ele>
        <time>2019-05-24T08:56:46Z</time>
      </trkpt>
      <trkpt lat="46.07316" lon="6.42692">
        <ele>449</ele>
        <time>2019-05-24T08:56:48Z</time>
      </trkpt>
      <trkpt lat="46.0732" lon="6.42699">
        <ele>449</ele>
        <time>2019-05-24T08:56:49Z</time>
      </trkpt>
      <trkpt lat="46.07326" lon="6.42704">
        <ele>449</ele>
        <time>2019-05-24T08:56:50Z</time>
      </trkpt>
      <trkpt lat="46.07338" lon="6.42704">
        <ele>449</ele>
        <time>2019-05-24T08:56:52Z</time>
      </trkpt>
      <trkpt lat="46.07345" lon="6.42698">
        <ele>449</ele>
        <time>2019-05-24T08:56:54Z</time>
      </trkpt>
      <trkpt lat="46.07354" lon="6.42698">
        <ele>449</ele>
        <time>2019-05-24T08:56:55Z</time>
      </trkpt>
      <trkpt lat="46.07376" lon="6.42703">
        <ele>449</ele>
        <time>2019-05-24T08:56:59Z</time>
      </trkpt>
      <trkpt lat="46.07454" lon="6.42743">
        <ele>450</ele>
        <time>2019-05-24T08:57:14Z</time>
      </trkpt>
      <trkpt lat="46.07489" lon="6.42754">
        <ele>450</ele>
        <time>2019-05-24T08:57:20Z</time>
      </trkpt>
      <trkpt lat="46.07627" lon="6.42777">
        <ele>450</ele>
        <time>2019-05-24T08:57:45Z</time>
      </trkpt>
      <trkpt lat="46.07649" lon="6.4279">
        <ele>450</ele>
        <time>2019-05-24T08:57:49Z</time>
      </trkpt>
      <trkpt lat="46.07653" lon="6.42775">
        <ele>450</ele>
        <time>2019-05-24T08:57:51Z</time>
      </trkpt>
      <trkpt lat="46.07668" lon="6.42758">
        <ele>450</ele>
        <time>2019-05-24T08:57:55Z</time>
      </trkpt>
      <trkpt lat="46.0768" lon="6.42755">
        <ele>450</ele>
        <time>2019-05-24T08:57:57Z</time>
      </trkpt>
      <trkpt lat="46.07674" lon="6.42712">
        <ele>450</ele>
        <time>2019-05-24T08:58:02Z</time>
      </trkpt>
      <trkpt lat="46.07672" lon="6.42679">
        <ele>450</ele>
        <time>2019-05-24T08:58:06Z</time>
      </trkpt>
      <trkpt lat="46.07682" lon="6.42572">
        <ele>450</ele>
        <time>2019-05-24T08:58:20Z</time>
      </trkpt>
      <trkpt lat="46.07684" lon="6.42536">
        <ele>450</ele>
        <time>2019-05-24T08:58:24Z</time>
      </trkpt>
      <trkpt lat="46.07677" lon="6.42568">
        <ele>450</ele>
        <time>2019-05-24T08:58:28Z</time>
      </trkpt>
      <trkpt lat="46.07671" lon="6.42622">
        <ele>450</ele>
        <time>2019-05-24T08:58:35Z</time>
      </trkpt>
      <trkpt lat="46.07677" lon="6.42624">
        <ele>450</ele>
        <time>2019-05-24T08:58:36Z</time>
      </trkpt>
      <trkpt lat="46.07682" lon="6.42572">
        <ele>450</ele>
        <time>2019-05-24T08:58:43Z</time>
      </trkpt>
      <trkpt lat="46.07684" lon="6.42536">
        <ele>450</ele>
        <time>2019-05-24T08:58:47Z</time>
      </trkpt>
      <trkpt lat="46.07687" lon="6.42512">
        <ele>450</ele>
        <time>2019-05-24T08:58:50Z</time>
      </trkpt>
      <trkpt lat="46.07693" lon="6.42483">
        <ele>450</ele>
        <time>2019-05-24T08:58:54Z</time>
      </trkpt>
      <trkpt lat="46.07707" lon="6.42439">
        <ele>450</ele>
        <time>2019-05-24T08:59:00Z</time>
      </trkpt>
      <trkpt lat="46.07721" lon="6.42411">
        <ele>450</ele>
        <time>2019-05-24T08:59:04Z</time>
      </trkpt>
      <trkpt lat="46.07854" lon="6.42178">
        <ele>451</ele>
        <time>2019-05-24T08:59:41Z</time>
      </trkpt>
      <trkpt lat="46.07884" lon="6.42136">
        <ele>451</ele>
        <time>2019-05-24T08:59:49Z</time>
      </trkpt>
      <trkpt lat="46.0789" lon="6.42125">
        <ele>451</ele>
        <time>2019-05-24T08:59:50Z</time>
      </trkpt>
      <trkpt lat="46.079" lon="6.42096">
        <ele>451</ele>
        <time>2019-05-24T08:59:54Z</time>
      </trkpt>
      <trkpt lat="46.07901" lon="6.42088">
        <ele>451</ele>
        <time>2019-05-24T08:59:55Z</time>
      </trkpt>
      <trkpt lat="46.07934" lon="6.42102">
        <ele>452</ele>
        <time>2019-05-24T09:00:02Z</time>
      </trkpt>
      <trkpt lat="46.07942" lon="6.42108">
        <ele>453</ele>
        <time>2019-05-24T09:00:03Z</time>
      </trkpt>
      <trkpt lat="46.0795" lon="6.42115">
        <ele>454</ele>
        <time>2019-05-24T09:00:05Z</time>
      </trkpt>
      <trkpt lat="46.07962" lon="6.4213">
        <ele>455</ele>
        <time>2019-05-24T09:00:08Z</time>
      </trkpt>
      <trkpt lat="46.07972" lon="6.42152">
        <ele>456</ele>
        <time>2019-05-24T09:00:11Z</time>
      </trkpt>
      <trkpt lat="46.08027" lon="6.42311">
        <ele>455</ele>
        <time>2019-05-24T09:00:33Z</time>
      </trkpt>
      <trkpt lat="46.08035" lon="6.42342">
        <ele>455</ele>
        <time>2019-05-24T09:00:37Z</time>
      </trkpt>
      <trkpt lat="46.08038" lon="6.42367">
        <ele>454</ele>
        <time>2019-05-24T09:00:40Z</time>
      </trkpt>
      <trkpt lat="46.08068" lon="6.4266">
        <ele>453</ele>
        <time>2019-05-24T09:01:17Z</time>
      </trkpt>
      <trkpt lat="46.08078" lon="6.4271">
        <ele>452</ele>
        <time>2019-05-24T09:01:23Z</time>
      </trkpt>
      <trkpt lat="46.081" lon="6.42794">
        <ele>454</ele>
        <time>2019-05-24T09:01:34Z</time>
      </trkpt>
      <trkpt lat="46.08133" lon="6.4291">
        <ele>454</ele>
        <time>2019-05-24T09:01:50Z</time>
      </trkpt>
      <trkpt lat="46.08163" lon="6.42981">
        <ele>454</ele>
        <time>2019-05-24T09:02:00Z</time>
      </trkpt>
      <trkpt lat="46.08192" lon="6.43003">
        <ele>456</ele>
        <time>2019-05-24T09:02:06Z</time>
      </trkpt>
      <trkpt lat="46.08225" lon="6.43017">
        <ele>460</ele>
        <time>2019-05-24T09:02:12Z</time>
      </trkpt>
      <trkpt lat="46.08274" lon="6.43033">
        <ele>466</ele>
        <time>2019-05-24T09:02:21Z</time>
      </trkpt>
      <trkpt lat="46.08287" lon="6.43044">
        <ele>468</ele>
        <time>2019-05-24T09:02:23Z</time>
      </trkpt>
      <trkpt lat="46.08299" lon="6.43069">
        <ele>469</ele>
        <time>2019-05-24T09:02:27Z</time>
      </trkpt>
      <trkpt lat="46.08352" lon="6.43222">
        <ele>472</ele>
        <time>2019-05-24T09:02:48Z</time>
      </trkpt>
      <trkpt lat="46.08381" lon="6.43278">
        <ele>474</ele>
        <time>2019-05-24T09:02:57Z</time>
      </trkpt>
      <trkpt lat="46.08387" lon="6.43397">
        <ele>472</ele>
        <time>2019-05-24T09:03:12Z</time>
      </trkpt>
      <trkpt lat="46.08373" lon="6.43481">
        <ele>474</ele>
        <time>2019-05-24T09:03:22Z</time>
      </trkpt>
      <trkpt lat="46.08332" lon="6.43608">
        <ele>479</ele>
        <time>2019-05-24T09:03:40Z</time>
      </trkpt>
      <trkpt lat="46.08264" lon="6.43688">
        <ele>484</ele>
        <time>2019-05-24T09:03:55Z</time>
      </trkpt>
      <trkpt lat="46.08255" lon="6.43695">
        <ele>484</ele>
        <time>2019-05-24T09:03:57Z</time>
      </trkpt>
      <trkpt lat="46.08246" lon="6.4372">
        <ele>485</ele>
        <time>2019-05-24T09:04:01Z</time>
      </trkpt>
      <trkpt lat="46.08213" lon="6.43913">
        <ele>482</ele>
        <time>2019-05-24T09:04:25Z</time>
      </trkpt>
      <trkpt lat="46.08203" lon="6.4395">
        <ele>481</ele>
        <time>2019-05-24T09:04:30Z</time>
      </trkpt>
      <trkpt lat="46.08149" lon="6.44112">
        <ele>483</ele>
        <time>2019-05-24T09:04:52Z</time>
      </trkpt>
      <trkpt lat="46.08147" lon="6.44142">
        <ele>484</ele>
        <time>2019-05-24T09:04:56Z</time>
      </trkpt>
      <trkpt lat="46.0815" lon="6.4419">
        <ele>487</ele>
        <time>2019-05-24T09:05:02Z</time>
      </trkpt>
      <trkpt lat="46.08146" lon="6.44258">
        <ele>491</ele>
        <time>2019-05-24T09:05:10Z</time>
      </trkpt>
      <trkpt lat="46.08179" lon="6.4438">
        <ele>498</ele>
        <time>2019-05-24T09:05:26Z</time>
      </trkpt>
      <trkpt lat="46.0818" lon="6.44404">
        <ele>499</ele>
        <time>2019-05-24T09:05:29Z</time>
      </trkpt>
      <trkpt lat="46.08109" lon="6.44731">
        <ele>514</ele>
        <time>2019-05-24T09:06:12Z</time>
      </trkpt>
      <trkpt lat="46.08166" lon="6.4475">
        <ele>520</ele>
        <time>2019-05-24T09:06:22Z</time>
      </trkpt>
      <trkpt lat="46.08206" lon="6.4474">
        <ele>524</ele>
        <time>2019-05-24T09:06:29Z</time>
      </trkpt>
      <trkpt lat="46.08268" lon="6.44734">
        <ele>530</ele>
        <time>2019-05-24T09:06:40Z</time>
      </trkpt>
      <trkpt lat="46.08288" lon="6.4474">
        <ele>533</ele>
        <time>2019-05-24T09:06:44Z</time>
      </trkpt>
      <trkpt lat="46.08322" lon="6.44745">
        <ele>537</ele>
        <time>2019-05-24T09:06:50Z</time>
      </trkpt>
      <trkpt lat="46.08356" lon="6.44738">
        <ele>542</ele>
        <time>2019-05-24T09:06:56Z</time>
      </trkpt>
      <trkpt lat="46.08393" lon="6.44716">
        <ele>549</ele>
        <time>2019-05-24T09:07:03Z</time>
      </trkpt>
      <trkpt lat="46.08416" lon="6.44697">
        <ele>553</ele>
        <time>2019-05-24T09:07:08Z</time>
      </trkpt>
      <trkpt lat="46.0842" lon="6.4468">
        <ele>554</ele>
        <time>2019-05-24T09:07:10Z</time>
      </trkpt>
      <trkpt lat="46.08421" lon="6.4461">
        <ele>554</ele>
        <time>2019-05-24T09:07:19Z</time>
      </trkpt>
      <trkpt lat="46.08426" lon="6.44571">
        <ele>555</ele>
        <time>2019-05-24T09:07:24Z</time>
      </trkpt>
      <trkpt lat="46.08442" lon="6.44497">
        <ele>555</ele>
        <time>2019-05-24T09:07:33Z</time>
      </trkpt>
      <trkpt lat="46.08457" lon="6.44461">
        <ele>557</ele>
        <time>2019-05-24T09:07:38Z</time>
      </trkpt>
      <trkpt lat="46.08467" lon="6.44457">
        <ele>560</ele>
        <time>2019-05-24T09:07:40Z</time>
      </trkpt>
      <trkpt lat="46.08479" lon="6.4447">
        <ele>566</ele>
        <time>2019-05-24T09:07:43Z</time>
      </trkpt>
      <trkpt lat="46.08466" lon="6.44592">
        <ele>568</ele>
        <time>2019-05-24T09:07:58Z</time>
      </trkpt>
      <trkpt lat="46.0847" lon="6.44616">
        <ele>570</ele>
        <time>2019-05-24T09:08:01Z</time>
      </trkpt>
      <trkpt lat="46.08486" lon="6.44653">
        <ele>575</ele>
        <time>2019-05-24T09:08:07Z</time>
      </trkpt>
      <trkpt lat="46.08497" lon="6.44726">
        <ele>577</ele>
        <time>2019-05-24T09:08:16Z</time>
      </trkpt>
      <trkpt lat="46.08518" lon="6.44807">
        <ele>586</ele>
        <time>2019-05-24T09:08:27Z</time>
      </trkpt>
      <trkpt lat="46.08545" lon="6.44835">
        <ele>596</ele>
        <time>2019-05-24T09:08:32Z</time>
      </trkpt>
      <trkpt lat="46.08524" lon="6.44922">
        <ele>599</ele>
        <time>2019-05-24T09:08:44Z</time>
      </trkpt>
      <trkpt lat="46.0851" lon="6.45043">
        <ele>605</ele>
        <time>2019-05-24T09:08:59Z</time>
      </trkpt>
      <trkpt lat="46.08503" lon="6.45073">
        <ele>605</ele>
        <time>2019-05-24T09:09:03Z</time>
      </trkpt>
      <trkpt lat="46.08476" lon="6.45144">
        <ele>609</ele>
        <time>2019-05-24T09:09:13Z</time>
      </trkpt>
      <trkpt lat="46.08467" lon="6.45175">
        <ele>612</ele>
        <time>2019-05-24T09:09:17Z</time>
      </trkpt>
      <trkpt lat="46.08469" lon="6.45197">
        <ele>617</ele>
        <time>2019-05-24T09:09:20Z</time>
      </trkpt>
      <trkpt lat="46.08465" lon="6.45226">
        <ele>623</ele>
        <time>2019-05-24T09:09:23Z</time>
      </trkpt>
      <trkpt lat="46.08455" lon="6.45246">
        <ele>627</ele>
        <time>2019-05-24T09:09:26Z</time>
      </trkpt>
      <trkpt lat="46.08448" lon="6.45252">
        <ele>628</ele>
        <time>2019-05-24T09:09:28Z</time>
      </trkpt>
      <trkpt lat="46.08423" lon="6.45245">
        <ele>625</ele>
        <time>2019-05-24T09:09:32Z</time>
      </trkpt>
      <trkpt lat="46.0839" lon="6.45246">
        <ele>621</ele>
        <time>2019-05-24T09:09:38Z</time>
      </trkpt>
      <trkpt lat="46.0836" lon="6.45262">
        <ele>622</ele>
        <time>2019-05-24T09:09:44Z</time>
      </trkpt>
      <trkpt lat="46.08296" lon="6.45312">
        <ele>631</ele>
        <time>2019-05-24T09:09:57Z</time>
      </trkpt>
      <trkpt lat="46.08284" lon="6.45337">
        <ele>635</ele>
        <time>2019-05-24T09:10:01Z</time>
      </trkpt>
      <trkpt lat="46.08269" lon="6.45383">
        <ele>636</ele>
        <time>2019-05-24T09:10:07Z</time>
      </trkpt>
      <trkpt lat="46.0827" lon="6.45404">
        <ele>637</ele>
        <time>2019-05-24T09:10:10Z</time>
      </trkpt>
      <trkpt lat="46.08278" lon="6.45424">
        <ele>640</ele>
        <time>2019-05-24T09:10:12Z</time>
      </trkpt>
      <trkpt lat="46.08313" lon="6.45455">
        <ele>646</ele>
        <time>2019-05-24T09:10:20Z</time>
      </trkpt>
      <trkpt lat="46.08349" lon="6.45502">
        <ele>654</ele>
        <time>2019-05-24T09:10:28Z</time>
      </trkpt>
      <trkpt lat="46.08356" lon="6.45528">
        <ele>659</ele>
        <time>2019-05-24T09:10:32Z</time>
      </trkpt>
      <trkpt lat="46.08357" lon="6.45556">
        <ele>662</ele>
        <time>2019-05-24T09:10:35Z</time>
      </trkpt>
      <trkpt lat="46.08357" lon="6.45591">
        <ele>666</ele>
        <time>2019-05-24T09:10:40Z</time>
      </trkpt>
      <trkpt lat="46.08331" lon="6.45649">
        <ele>663</ele>
        <time>2019-05-24T09:10:48Z</time>
      </trkpt>
      <trkpt lat="46.08319" lon="6.45754">
        <ele>673</ele>
        <time>2019-05-24T09:11:01Z</time>
      </trkpt>
      <trkpt lat="46.08285" lon="6.45837">
        <ele>673</ele>
        <time>2019-05-24T09:11:13Z</time>
      </trkpt>
      <trkpt lat="46.08278" lon="6.45883">
        <ele>673</ele>
        <time>2019-05-24T09:11:19Z</time>
      </trkpt>
      <trkpt lat="46.08285" lon="6.45908">
        <ele>677</ele>
        <time>2019-05-24T09:11:22Z</time>
      </trkpt>
      <trkpt lat="46.08332" lon="6.45962">
        <ele>693</ele>
        <time>2019-05-24T09:11:33Z</time>
      </trkpt>
      <trkpt lat="46.08347" lon="6.45958">
        <ele>699</ele>
        <time>2019-05-24T09:11:36Z</time>
      </trkpt>
      <trkpt lat="46.08358" lon="6.45949">
        <ele>703</ele>
        <time>2019-05-24T09:11:38Z</time>
      </trkpt>
      <trkpt lat="46.08426" lon="6.45738">
        <ele>709</ele>
        <time>2019-05-24T09:12:07Z</time>
      </trkpt>
      <trkpt lat="46.08449" lon="6.45686">
        <ele>707</ele>
        <time>2019-05-24T09:12:14Z</time>
      </trkpt>
      <trkpt lat="46.08462" lon="6.45684">
        <ele>709</ele>
        <time>2019-05-24T09:12:17Z</time>
      </trkpt>
      <trkpt lat="46.08513" lon="6.4575">
        <ele>721</ele>
        <time>2019-05-24T09:12:29Z</time>
      </trkpt>
      <trkpt lat="46.08531" lon="6.4577">
        <ele>725</ele>
        <time>2019-05-24T09:12:33Z</time>
      </trkpt>
      <trkpt lat="46.08559" lon="6.45786">
        <ele>730</ele>
        <time>2019-05-24T09:12:38Z</time>
      </trkpt>
      <trkpt lat="46.08577" lon="6.45787">
        <ele>733</ele>
        <time>2019-05-24T09:12:41Z</time>
      </trkpt>
      <trkpt lat="46.08635" lon="6.45752">
        <ele>733</ele>
        <time>2019-05-24T09:12:53Z</time>
      </trkpt>
      <trkpt lat="46.0866" lon="6.45759">
        <ele>735</ele>
        <time>2019-05-24T09:12:57Z</time>
      </trkpt>
      <trkpt lat="46.08674" lon="6.45788">
        <ele>740</ele>
        <time>2019-05-24T09:13:01Z</time>
      </trkpt>
      <trkpt lat="46.08689" lon="6.45848">
        <ele>747</ele>
        <time>2019-05-24T09:13:09Z</time>
      </trkpt>
      <trkpt lat="46.08665" lon="6.46013">
        <ele>748</ele>
        <time>2019-05-24T09:13:30Z</time>
      </trkpt>
      <trkpt lat="46.08602" lon="6.4624">
        <ele>762</ele>
        <time>2019-05-24T09:14:00Z</time>
      </trkpt>
      <trkpt lat="46.08595" lon="6.46273">
        <ele>763</ele>
        <time>2019-05-24T09:14:05Z</time>
      </trkpt>
      <trkpt lat="46.08591" lon="6.46296">
        <ele>763</ele>
        <time>2019-05-24T09:14:08Z</time>
      </trkpt>
      <trkpt lat="46.08592" lon="6.46349">
        <ele>766</ele>
        <time>2019-05-24T09:14:14Z</time>
      </trkpt>
      <trkpt lat="46.0859" lon="6.46372">
        <ele>766</ele>
        <time>2019-05-24T09:14:17Z</time>
      </trkpt>
      <trkpt lat="46.08584" lon="6.46405">
        <ele>766</ele>
        <time>2019-05-24T09:14:21Z</time>
      </trkpt>
      <trkpt lat="46.08581" lon="6.46443">
        <ele>768</ele>
        <time>2019-05-24T09:14:26Z</time>
      </trkpt>
      <trkpt lat="46.08607" lon="6.46652">
        <ele>779</ele>
        <time>2019-05-24T09:14:52Z</time>
      </trkpt>
      <trkpt lat="46.08614" lon="6.46722">
        <ele>778</ele>
        <time>2019-05-24T09:15:01Z</time>
      </trkpt>
      <trkpt lat="46.08619" lon="6.4675">
        <ele>778</ele>
        <time>2019-05-24T09:15:04Z</time>
      </trkpt>
      <trkpt lat="46.08611" lon="6.46784">
        <ele>775</ele>
        <time>2019-05-24T09:15:09Z</time>
      </trkpt>
      <trkpt lat="46.08607" lon="6.46815">
        <ele>774</ele>
        <time>2019-05-24T09:15:13Z</time>
      </trkpt>
      <trkpt lat="46.08606" lon="6.46841">
        <ele>772</ele>
        <time>2019-05-24T09:15:16Z</time>
      </trkpt>
      <trkpt lat="46.08645" lon="6.46971">
        <ele>770</ele>
        <time>2019-05-24T09:15:33Z</time>
      </trkpt>
      <trkpt lat="46.08643" lon="6.46985">
        <ele>769</ele>
        <time>2019-05-24T09:15:35Z</time>
      </trkpt>
      <trkpt lat="46.08635" lon="6.46993">
        <ele>765</ele>
        <time>2019-05-24T09:15:37Z</time>
      </trkpt>
      <trkpt lat="46.0863" lon="6.46993">
        <ele>764</ele>
        <time>2019-05-24T09:15:38Z</time>
      </trkpt>
      <trkpt lat="46.0862" lon="6.46985">
        <ele>761</ele>
        <time>2019-05-24T09:15:40Z</time>
      </trkpt>
      <trkpt lat="46.08611" lon="6.46944">
        <ele>762</ele>
        <time>2019-05-24T09:15:45Z</time>
      </trkpt>
      <trkpt lat="46.08601" lon="6.46927">
        <ele>761</ele>
        <time>2019-05-24T09:15:48Z</time>
      </trkpt>
      <trkpt lat="46.08582" lon="6.46913">
        <ele>757</ele>
        <time>2019-05-24T09:15:52Z</time>
      </trkpt>
      <trkpt lat="46.08571" lon="6.469">
        <ele>757</ele>
        <time>2019-05-24T09:15:54Z</time>
      </trkpt>
      <trkpt lat="46.08549" lon="6.4688">
        <ele>755</ele>
        <time>2019-05-24T09:15:59Z</time>
      </trkpt>
      <trkpt lat="46.08521" lon="6.46837">
        <ele>752</ele>
        <time>2019-05-24T09:16:06Z</time>
      </trkpt>
      <trkpt lat="46.08506" lon="6.46787">
        <ele>750</ele>
        <time>2019-05-24T09:16:13Z</time>
      </trkpt>
      <trkpt lat="46.08501" lon="6.46756">
        <ele>751</ele>
        <time>2019-05-24T09:16:17Z</time>
      </trkpt>
      <trkpt lat="46.08498" lon="6.46746">
        <ele>751</ele>
        <time>2019-05-24T09:16:18Z</time>
      </trkpt>
      <trkpt lat="46.0849" lon="6.46741">
        <ele>749</ele>
        <time>2019-05-24T09:16:20Z</time>
      </trkpt>
      <trkpt lat="46.08481" lon="6.46749">
        <ele>746</ele>
        <time>2019-05-24T09:16:21Z</time>
      </trkpt>
      <trkpt lat="46.08476" lon="6.46764">
        <ele>744</ele>
        <time>2019-05-24T09:16:24Z</time>
      </trkpt>
      <trkpt lat="46.08481" lon="6.468">
        <ele>743</ele>
        <time>2019-05-24T09:16:28Z</time>
      </trkpt>
      <trkpt lat="46.0852" lon="6.46941">
        <ele>742</ele>
        <time>2019-05-24T09:16:47Z</time>
      </trkpt>
      <trkpt lat="46.08533" lon="6.46968">
        <ele>740</ele>
        <time>2019-05-24T09:16:51Z</time>
      </trkpt>
      <trkpt lat="46.08547" lon="6.46993">
        <ele>739</ele>
        <time>2019-05-24T09:16:55Z</time>
      </trkpt>
      <trkpt lat="46.08558" lon="6.47005">
        <ele>740</ele>
        <time>2019-05-24T09:16:57Z</time>
      </trkpt>
      <trkpt lat="46.08563" lon="6.47015">
        <ele>740</ele>
        <time>2019-05-24T09:16:59Z</time>
      </trkpt>
      <trkpt lat="46.0856" lon="6.47034">
        <ele>736</ele>
        <time>2019-05-24T09:17:01Z</time>
      </trkpt>
      <trkpt lat="46.08554" lon="6.4704">
        <ele>733</ele>
        <time>2019-05-24T09:17:03Z</time>
      </trkpt>
      <trkpt lat="46.08536" lon="6.47033">
        <ele>729</ele>
        <time>2019-05-24T09:17:06Z</time>
      </trkpt>
      <trkpt lat="46.08516" lon="6.47009">
        <ele>729</ele>
        <time>2019-05-24T09:17:10Z</time>
      </trkpt>
      <trkpt lat="46.08498" lon="6.4698">
        <ele>730</ele>
        <time>2019-05-24T09:17:15Z</time>
      </trkpt>
      <trkpt lat="46.08474" lon="6.46947">
        <ele>728</ele>
        <time>2019-05-24T09:17:21Z</time>
      </trkpt>
      <trkpt lat="46.08456" lon="6.46909">
        <ele>727</ele>
        <time>2019-05-24T09:17:27Z</time>
      </trkpt>
      <trkpt lat="46.08452" lon="6.46895">
        <ele>727</ele>
        <time>2019-05-24T09:17:29Z</time>
      </trkpt>
      <trkpt lat="46.08447" lon="6.4689">
        <ele>726</ele>
        <time>2019-05-24T09:17:30Z</time>
      </trkpt>
      <trkpt lat="46.0844" lon="6.46893">
        <ele>723</ele>
        <time>2019-05-24T09:17:31Z</time>
      </trkpt>
      <trkpt lat="46.08435" lon="6.46902">
        <ele>721</ele>
        <time>2019-05-24T09:17:33Z</time>
      </trkpt>
      <trkpt lat="46.08494" lon="6.47046">
        <ele>715</ele>
        <time>2019-05-24T09:17:53Z</time>
      </trkpt>
      <trkpt lat="46.08511" lon="6.47076">
        <ele>713</ele>
        <time>2019-05-24T09:17:58Z</time>
      </trkpt>
      <trkpt lat="46.08518" lon="6.47093">
        <ele>713</ele>
        <time>2019-05-24T09:18:00Z</time>
      </trkpt>
      <trkpt lat="46.08539" lon="6.472">
        <ele>708</ele>
        <time>2019-05-24T09:18:14Z</time>
      </trkpt>
      <trkpt lat="46.08547" lon="6.47225">
        <ele>707</ele>
        <time>2019-05-24T09:18:18Z</time>
      </trkpt>
      <trkpt lat="46.08564" lon="6.47257">
        <ele>708</ele>
        <time>2019-05-24T09:18:22Z</time>
      </trkpt>
      <trkpt lat="46.08585" lon="6.47336">
        <ele>703</ele>
        <time>2019-05-24T09:18:33Z</time>
      </trkpt>
      <trkpt lat="46.08613" lon="6.47403">
        <ele>706</ele>
        <time>2019-05-24T09:18:43Z</time>
      </trkpt>
      <trkpt lat="46.08613" lon="6.47419">
        <ele>704</ele>
        <time>2019-05-24T09:18:45Z</time>
      </trkpt>
      <trkpt lat="46.08605" lon="6.47428">
        <ele>700</ele>
        <time>2019-05-24T09:18:46Z</time>
      </trkpt>
      <trkpt lat="46.08589" lon="6.47426">
        <ele>694</ele>
        <time>2019-05-24T09:18:49Z</time>
      </trkpt>
      <trkpt lat="46.08572" lon="6.47369">
        <ele>696</ele>
        <time>2019-05-24T09:18:57Z</time>
      </trkpt>
      <trkpt lat="46.08552" lon="6.47337">
        <ele>694</ele>
        <time>2019-05-24T09:19:02Z</time>
      </trkpt>
      <trkpt lat="46.0852" lon="6.47314">
        <ele>687</ele>
        <time>2019-05-24T09:19:09Z</time>
      </trkpt>
      <trkpt lat="46.08488" lon="6.47325">
        <ele>677</ele>
        <time>2019-05-24T09:19:14Z</time>
      </trkpt>
      <trkpt lat="46.08486" lon="6.4734">
        <ele>675</ele>
        <time>2019-05-24T09:19:16Z</time>
      </trkpt>
      <trkpt lat="46.08494" lon="6.47381">
        <ele>673</ele>
        <time>2019-05-24T09:19:22Z</time>
      </trkpt>
      <trkpt lat="46.0851" lon="6.47399">
        <ele>675</ele>
        <time>2019-05-24T09:19:25Z</time>
      </trkpt>
      <trkpt lat="46.0854" lon="6.47465">
        <ele>678</ele>
        <time>2019-05-24T09:19:35Z</time>
      </trkpt>
      <trkpt lat="46.08575" lon="6.47574">
        <ele>679</ele>
        <time>2019-05-24T09:19:50Z</time>
      </trkpt>
      <trkpt lat="46.08574" lon="6.47619">
        <ele>674</ele>
        <time>2019-05-24T09:19:55Z</time>
      </trkpt>
      <trkpt lat="46.08579" lon="6.47688">
        <ele>669</ele>
        <time>2019-05-24T09:20:04Z</time>
      </trkpt>
      <trkpt lat="46.0857" lon="6.47779">
        <ele>666</ele>
        <time>2019-05-24T09:20:15Z</time>
      </trkpt>
      <trkpt lat="46.08565" lon="6.47793">
        <ele>665</ele>
        <time>2019-05-24T09:20:17Z</time>
      </trkpt>
      <trkpt lat="46.08554" lon="6.47795">
        <ele>662</ele>
        <time>2019-05-24T09:20:19Z</time>
      </trkpt>
      <trkpt lat="46.08546" lon="6.47781">
        <ele>660</ele>
        <time>2019-05-24T09:20:21Z</time>
      </trkpt>
      <trkpt lat="46.08541" lon="6.47737">
        <ele>659</ele>
        <time>2019-05-24T09:20:27Z</time>
      </trkpt>
      <trkpt lat="46.08494" lon="6.47655">
        <ele>652</ele>
        <time>2019-05-24T09:20:40Z</time>
      </trkpt>
      <trkpt lat="46.0848" lon="6.4765">
        <ele>650</ele>
        <time>2019-05-24T09:20:43Z</time>
      </trkpt>
      <trkpt lat="46.08457" lon="6.47647">
        <ele>645</ele>
        <time>2019-05-24T09:20:47Z</time>
      </trkpt>
      <trkpt lat="46.08416" lon="6.47624">
        <ele>638</ele>
        <time>2019-05-24T09:20:54Z</time>
      </trkpt>
      <trkpt lat="46.08403" lon="6.47577">
        <ele>639</ele>
        <time>2019-05-24T09:21:01Z</time>
      </trkpt>
      <trkpt lat="46.08401" lon="6.4753">
        <ele>640</ele>
        <time>2019-05-24T09:21:07Z</time>
      </trkpt>
      <trkpt lat="46.08397" lon="6.47508">
        <ele>640</ele>
        <time>2019-05-24T09:21:09Z</time>
      </trkpt>
      <trkpt lat="46.08389" lon="6.47494">
        <ele>638</ele>
        <time>2019-05-24T09:21:12Z</time>
      </trkpt>
      <trkpt lat="46.0837" lon="6.47475">
        <ele>635</ele>
        <time>2019-05-24T09:21:16Z</time>
      </trkpt>
      <trkpt lat="46.08359" lon="6.47437">
        <ele>635</ele>
        <time>2019-05-24T09:21:21Z</time>
      </trkpt>
      <trkpt lat="46.08348" lon="6.47418">
        <ele>633</ele>
        <time>2019-05-24T09:21:24Z</time>
      </trkpt>
      <trkpt lat="46.08319" lon="6.47405">
        <ele>627</ele>
        <time>2019-05-24T09:21:29Z</time>
      </trkpt>
      <trkpt lat="46.08304" lon="6.47386">
        <ele>624</ele>
        <time>2019-05-24T09:21:33Z</time>
      </trkpt>
      <trkpt lat="46.08291" lon="6.47315">
        <ele>626</ele>
        <time>2019-05-24T09:21:42Z</time>
      </trkpt>
      <trkpt lat="46.08273" lon="6.473">
        <ele>623</ele>
        <time>2019-05-24T09:21:46Z</time>
      </trkpt>
      <trkpt lat="46.0825" lon="6.47302">
        <ele>617</ele>
        <time>2019-05-24T09:21:50Z</time>
      </trkpt>
      <trkpt lat="46.08233" lon="6.4729">
        <ele>615</ele>
        <time>2019-05-24T09:21:53Z</time>
      </trkpt>
      <trkpt lat="46.08222" lon="6.47266">
        <ele>614</ele>
        <time>2019-05-24T09:21:57Z</time>
      </trkpt>
      <trkpt lat="46.08206" lon="6.47266">
        <ele>611</ele>
        <time>2019-05-24T09:21:59Z</time>
      </trkpt>
      <trkpt lat="46.08201" lon="6.4729">
        <ele>608</ele>
        <time>2019-05-24T09:22:02Z</time>
      </trkpt>
      <trkpt lat="46.08232" lon="6.47349">
        <ele>610</ele>
        <time>2019-05-24T09:22:12Z</time>
      </trkpt>
      <trkpt lat="46.08261" lon="6.47555">
        <ele>603</ele>
        <time>2019-05-24T09:22:38Z</time>
      </trkpt>
      <trkpt lat="46.08252" lon="6.47628">
        <ele>595</ele>
        <time>2019-05-24T09:22:47Z</time>
      </trkpt>
      <trkpt lat="46.08255" lon="6.47654">
        <ele>593</ele>
        <time>2019-05-24T09:22:50Z</time>
      </trkpt>
      <trkpt lat="46.0827" lon="6.47714">
        <ele>590</ele>
        <time>2019-05-24T09:22:58Z</time>
      </trkpt>
      <trkpt lat="46.08272" lon="6.47766">
        <ele>586</ele>
        <time>2019-05-24T09:23:04Z</time>
      </trkpt>
      <trkpt lat="46.08289" lon="6.47846">
        <ele>587</ele>
        <time>2019-05-24T09:23:15Z</time>
      </trkpt>
      <trkpt lat="46.0831" lon="6.47922">
        <ele>585</ele>
        <time>2019-05-24T09:23:25Z</time>
      </trkpt>
      <trkpt lat="46.08338" lon="6.48056">
        <ele>583</ele>
        <time>2019-05-24T09:23:42Z</time>
      </trkpt>
      <trkpt lat="46.08338" lon="6.48121">
        <ele>577</ele>
        <time>2019-05-24T09:23:50Z</time>
      </trkpt>
      <trkpt lat="46.08363" lon="6.48203">
        <ele>576</ele>
        <time>2019-05-24T09:24:01Z</time>
      </trkpt>
      <trkpt lat="46.08399" lon="6.48315">
        <ele>569</ele>
        <time>2019-05-24T09:24:16Z</time>
      </trkpt>
      <trkpt lat="46.08475" lon="6.48414">
        <ele>575</ele>
        <time>2019-05-24T09:24:34Z</time>
      </trkpt>
      <trkpt lat="46.08506" lon="6.48487">
        <ele>575</ele>
        <time>2019-05-24T09:24:45Z</time>
      </trkpt>
      <trkpt lat="46.08524" lon="6.48563">
        <ele>571</ele>
        <time>2019-05-24T09:24:55Z</time>
      </trkpt>
      <trkpt lat="46.08543" lon="6.48603">
        <ele>569</ele>
        <time>2019-05-24T09:25:01Z</time>
      </trkpt>
      <trkpt lat="46.0857" lon="6.48667">
        <ele>562</ele>
        <time>2019-05-24T09:25:10Z</time>
      </trkpt>
      <trkpt lat="46.086" lon="6.48709">
        <ele>559</ele>
        <time>2019-05-24T09:25:18Z</time>
      </trkpt>
      <trkpt lat="46.08625" lon="6.4873">
        <ele>557</ele>
        <time>2019-05-24T09:25:23Z</time>
      </trkpt>
      <trkpt lat="46.08646" lon="6.48735">
        <ele>558</ele>
        <time>2019-05-24T09:25:27Z</time>
      </trkpt>
      <trkpt lat="46.08687" lon="6.48735">
        <ele>563</ele>
        <time>2019-05-24T09:25:34Z</time>
      </trkpt>
      <trkpt lat="46.08708" lon="6.48747">
        <ele>562</ele>
        <time>2019-05-24T09:25:38Z</time>
      </trkpt>
      <trkpt lat="46.08751" lon="6.48784">
        <ele>555</ele>
        <time>2019-05-24T09:25:47Z</time>
      </trkpt>
      <trkpt lat="46.08792" lon="6.48826">
        <ele>551</ele>
        <time>2019-05-24T09:25:56Z</time>
      </trkpt>
      <trkpt lat="46.08803" lon="6.48846">
        <ele>549</ele>
        <time>2019-05-24T09:25:59Z</time>
      </trkpt>
      <trkpt lat="46.08803" lon="6.48869">
        <ele>546</ele>
        <time>2019-05-24T09:26:02Z</time>
      </trkpt>
      <trkpt lat="46.0877" lon="6.48916">
        <ele>537</ele>
        <time>2019-05-24T09:26:10Z</time>
      </trkpt>
      <trkpt lat="46.08743" lon="6.49025">
        <ele>532</ele>
        <time>2019-05-24T09:26:24Z</time>
      </trkpt>
      <trkpt lat="46.08741" lon="6.49075">
        <ele>532</ele>
        <time>2019-05-24T09:26:30Z</time>
      </trkpt>
      <trkpt lat="46.0873" lon="6.49097">
        <ele>529</ele>
        <time>2019-05-24T09:26:34Z</time>
      </trkpt>
      <trkpt lat="46.08728" lon="6.49115">
        <ele>527</ele>
        <time>2019-05-24T09:26:36Z</time>
      </trkpt>
      <trkpt lat="46.08742" lon="6.49149">
        <ele>525</ele>
        <time>2019-05-24T09:26:41Z</time>
      </trkpt>
      <trkpt lat="46.08796" lon="6.49221">
        <ele>516</ele>
        <time>2019-05-24T09:26:54Z</time>
      </trkpt>
      <trkpt lat="46.08876" lon="6.49264">
        <ele>516</ele>
        <time>2019-05-24T09:27:09Z</time>
      </trkpt>
      <trkpt lat="46.08896" lon="6.49286">
        <ele>513</ele>
        <time>2019-05-24T09:27:14Z</time>
      </trkpt>
      <trkpt lat="46.08903" lon="6.49314">
        <ele>508</ele>
        <time>2019-05-24T09:27:17Z</time>
      </trkpt>
      <trkpt lat="46.08901" lon="6.49351">
        <ele>503</ele>
        <time>2019-05-24T09:27:22Z</time>
      </trkpt>
      <trkpt lat="46.08885" lon="6.49397">
        <ele>498</ele>
        <time>2019-05-24T09:27:28Z</time>
      </trkpt>
      <trkpt lat="46.08888" lon="6.49435">
        <ele>494</ele>
        <time>2019-05-24T09:27:33Z</time>
      </trkpt>
      <trkpt lat="46.08902" lon="6.49468">
        <ele>491</ele>
        <time>2019-05-24T09:27:38Z</time>
      </trkpt>
      <trkpt lat="46.08913" lon="6.49486">
        <ele>489</ele>
        <time>2019-05-24T09:27:41Z</time>
      </trkpt>
      <trkpt lat="46.08935" lon="6.49502">
        <ele>488</ele>
        <time>2019-05-24T09:27:45Z</time>
      </trkpt>
      <trkpt lat="46.08978" lon="6.49513">
        <ele>490</ele>
        <time>2019-05-24T09:27:53Z</time>
      </trkpt>
      <trkpt lat="46.08991" lon="6.49534">
        <ele>489</ele>
        <time>2019-05-24T09:27:56Z</time>
      </trkpt>
      <trkpt lat="46.08993" lon="6.49557">
        <ele>486</ele>
        <time>2019-05-24T09:27:59Z</time>
      </trkpt>
      <trkpt lat="46.08987" lon="6.49635">
        <ele>479</ele>
        <time>2019-05-24T09:28:09Z</time>
      </trkpt>
      <trkpt lat="46.08991" lon="6.49659">
        <ele>478</ele>
        <time>2019-05-24T09:28:12Z</time>
      </trkpt>
      <trkpt lat="46.08988" lon="6.4967">
        <ele>477</ele>
        <time>2019-05-24T09:28:13Z</time>
      </trkpt>
      <trkpt lat="46.0901" lon="6.49738">
        <ele>477</ele>
        <time>2019-05-24T09:28:23Z</time>
      </trkpt>
      <trkpt lat="46.09032" lon="6.4985">
        <ele>476</ele>
        <time>2019-05-24T09:28:37Z</time>
      </trkpt>
      <trkpt lat="46.09003" lon="6.49874">
        <ele>473</ele>
        <time>2019-05-24T09:28:43Z</time>
      </trkpt>
      <trkpt lat="46.08965" lon="6.49911">
        <ele>473</ele>
        <time>2019-05-24T09:28:51Z</time>
      </trkpt>
      <trkpt lat="46.09004" lon="6.50009">
        <ele>473</ele>
        <time>2019-05-24T09:29:05Z</time>
      </trkpt>
      <trkpt lat="46.09008" lon="6.50027">
        <ele>474</ele>
        <time>2019-05-24T09:29:07Z</time>
      </trkpt>
      <trkpt lat="46.09003" lon="6.50031">
        <ele>473</ele>
        <time>2019-05-24T09:29:08Z</time>
      </trkpt>
      <trkpt lat="46.09004" lon="6.5004">
        <ele>474</ele>
        <time>2019-05-24T09:29:10Z</time>
      </trkpt>
      <trkpt lat="46.08934" lon="6.50094">
        <ele>475</ele>
        <time>2019-05-24T09:29:24Z</time>
      </trkpt>
      <trkpt lat="46.08925" lon="6.50106">
        <ele>475</ele>
        <time>2019-05-24T09:29:26Z</time>
      </trkpt>
      <trkpt lat="46.0892" lon="6.50115">
        <ele>475</ele>
        <time>2019-05-24T09:29:27Z</time>
      </trkpt>
      <trkpt lat="46.08917" lon="6.50131">
        <ele>474</ele>
        <time>2019-05-24T09:29:29Z</time>
      </trkpt>
      <trkpt lat="46.08916" lon="6.50141">
        <ele>474</ele>
        <time>2019-05-24T09:29:31Z</time>
      </trkpt>
      <trkpt lat="46.08918" lon="6.5017">
        <ele>473</ele>
        <time>2019-05-24T09:29:34Z</time>
      </trkpt>
      <trkpt lat="46.08936" lon="6.50382">
        <ele>474</ele>
        <time>2019-05-24T09:30:01Z</time>
      </trkpt>
      <trkpt lat="46.08942" lon="6.5048">
        <ele>475</ele>
        <time>2019-05-24T09:30:13Z</time>
      </trkpt>
      <trkpt lat="46.08944" lon="6.50563">
        <ele>476</ele>
        <time>2019-05-24T09:30:23Z</time>
      </trkpt>
      <trkpt lat="46.08939" lon="6.50638">
        <ele>476</ele>
        <time>2019-05-24T09:30:32Z</time>
      </trkpt>
      <trkpt lat="46.08929" lon="6.50702">
        <ele>476</ele>
        <time>2019-05-24T09:30:40Z</time>
      </trkpt>
      <trkpt lat="46.08911" lon="6.50774">
        <ele>475</ele>
        <time>2019-05-24T09:30:50Z</time>
      </trkpt>
      <trkpt lat="46.08872" lon="6.50955">
        <ele>474</ele>
        <time>2019-05-24T09:31:13Z</time>
      </trkpt>
      <trkpt lat="46.08864" lon="6.51007">
        <ele>474</ele>
        <time>2019-05-24T09:31:20Z</time>
      </trkpt>
      <trkpt lat="46.08843" lon="6.51089">
        <ele>471</ele>
        <time>2019-05-24T09:31:31Z</time>
      </trkpt>
      <trkpt lat="46.08841" lon="6.51113">
        <ele>472</ele>
        <time>2019-05-24T09:31:33Z</time>
      </trkpt>
      <trkpt lat="46.08828" lon="6.51193">
        <ele>472</ele>
        <time>2019-05-24T09:31:44Z</time>
      </trkpt>
      <trkpt lat="46.08748" lon="6.51738">
        <ele>473</ele>
        <time>2019-05-24T09:32:52Z</time>
      </trkpt>
      <trkpt lat="46.08744" lon="6.51784">
        <ele>473</ele>
        <time>2019-05-24T09:32:58Z</time>
      </trkpt>
      <trkpt lat="46.08743" lon="6.51833">
        <ele>473</ele>
        <time>2019-05-24T09:33:04Z</time>
      </trkpt>
      <trkpt lat="46.08748" lon="6.51977">
        <ele>473</ele>
        <time>2019-05-24T09:33:22Z</time>
      </trkpt>
      <trkpt lat="46.08747" lon="6.52041">
        <ele>473</ele>
        <time>2019-05-24T09:33:30Z</time>
      </trkpt>
      <trkpt lat="46.08751" lon="6.52086">
        <ele>474</ele>
        <time>2019-05-24T09:33:35Z</time>
      </trkpt>
      <trkpt lat="46.08748" lon="6.52108">
        <ele>473</ele>
        <time>2019-05-24T09:33:38Z</time>
      </trkpt>
      <trkpt lat="46.08741" lon="6.52108">
        <ele>473</ele>
        <time>2019-05-24T09:33:39Z</time>
      </trkpt>
      <trkpt lat="46.08738" lon="6.52112">
        <ele>473</ele>
        <time>2019-05-24T09:33:40Z</time>
      </trkpt>
      <trkpt lat="46.08736" lon="6.52122">
        <ele>473</ele>
        <time>2019-05-24T09:33:41Z</time>
      </trkpt>
      <trkpt lat="46.0874" lon="6.52131">
        <ele>473</ele>
        <time>2019-05-24T09:33:43Z</time>
      </trkpt>
      <trkpt lat="46.08746" lon="6.52132">
        <ele>473</ele>
        <time>2019-05-24T09:33:44Z</time>
      </trkpt>
      <trkpt lat="46.08751" lon="6.52128">
        <ele>473</ele>
        <time>2019-05-24T09:33:45Z</time>
      </trkpt>
      <trkpt lat="46.08755" lon="6.52146">
        <ele>473</ele>
        <time>2019-05-24T09:33:47Z</time>
      </trkpt>
      <trkpt lat="46.08759" lon="6.52241">
        <ele>475</ele>
        <time>2019-05-24T09:33:59Z</time>
      </trkpt>
      <trkpt lat="46.08737" lon="6.52326">
        <ele>475</ele>
        <time>2019-05-24T09:34:10Z</time>
      </trkpt>
      <trkpt lat="46.08689" lon="6.52473">
        <ele>477</ele>
        <time>2019-05-24T09:34:30Z</time>
      </trkpt>
      <trkpt lat="46.08688" lon="6.52471">
        <ele>477</ele>
        <time>2019-05-24T09:34:31Z</time>
      </trkpt>
      <trkpt lat="46.08684" lon="6.52467">
        <ele>477</ele>
        <time>2019-05-24T09:34:31Z</time>
      </trkpt>
      <trkpt lat="46.08678" lon="6.52472">
        <ele>476</ele>
        <time>2019-05-24T09:34:33Z</time>
      </trkpt>
      <trkpt lat="46.08677" lon="6.52477">
        <ele>476</ele>
        <time>2019-05-24T09:34:33Z</time>
      </trkpt>
      <trkpt lat="46.08678" lon="6.52484">
        <ele>477</ele>
        <time>2019-05-24T09:34:34Z</time>
      </trkpt>
      <trkpt lat="46.08681" lon="6.52486">
        <ele>477</ele>
        <time>2019-05-24T09:34:35Z</time>
      </trkpt>
      <trkpt lat="46.08685" lon="6.52486">
        <ele>477</ele>
        <time>2019-05-24T09:34:35Z</time>
      </trkpt>
      <trkpt lat="46.08671" lon="6.52527">
        <ele>477</ele>
        <time>2019-05-24T09:34:41Z</time>
      </trkpt>
      <trkpt lat="46.08652" lon="6.52625">
        <ele>479</ele>
        <time>2019-05-24T09:34:54Z</time>
      </trkpt>
      <trkpt lat="46.08649" lon="6.52691">
        <ele>481</ele>
        <time>2019-05-24T09:35:02Z</time>
      </trkpt>
      <trkpt lat="46.08673" lon="6.52708">
        <ele>483</ele>
        <time>2019-05-24T09:35:07Z</time>
      </trkpt>
      <trkpt lat="46.0869" lon="6.52717">
        <ele>486</ele>
        <time>2019-05-24T09:35:10Z</time>
      </trkpt>
      <trkpt lat="46.08704" lon="6.52708">
        <ele>487</ele>
        <time>2019-05-24T09:35:12Z</time>
      </trkpt>
      <trkpt lat="46.08724" lon="6.52668">
        <ele>488</ele>
        <time>2019-05-24T09:35:19Z</time>
      </trkpt>
      <trkpt lat="46.0873" lon="6.52628">
        <ele>487</ele>
        <time>2019-05-24T09:35:24Z</time>
      </trkpt>
      <trkpt lat="46.08742" lon="6.52604">
        <ele>487</ele>
        <time>2019-05-24T09:35:27Z</time>
      </trkpt>
      <trkpt lat="46.08755" lon="6.52594">
        <ele>488</ele>
        <time>2019-05-24T09:35:30Z</time>
      </trkpt>
      <trkpt lat="46.08785" lon="6.52607">
        <ele>494</ele>
        <time>2019-05-24T09:35:35Z</time>
      </trkpt>
      <trkpt lat="46.08802" lon="6.52603">
        <ele>496</ele>
        <time>2019-05-24T09:35:39Z</time>
      </trkpt>
      <trkpt lat="46.08832" lon="6.52563">
        <ele>499</ele>
        <time>2019-05-24T09:35:46Z</time>
      </trkpt>
      <trkpt lat="46.08841" lon="6.52559">
        <ele>500</ele>
        <time>2019-05-24T09:35:47Z</time>
      </trkpt>
      <trkpt lat="46.08851" lon="6.52563">
        <ele>503</ele>
        <time>2019-05-24T09:35:49Z</time>
      </trkpt>
      <trkpt lat="46.08856" lon="6.52575">
        <ele>504</ele>
        <time>2019-05-24T09:35:51Z</time>
      </trkpt>
      <trkpt lat="46.08858" lon="6.52645">
        <ele>507</ele>
        <time>2019-05-24T09:36:00Z</time>
      </trkpt>
      <trkpt lat="46.08856" lon="6.52672">
        <ele>508</ele>
        <time>2019-05-24T09:36:03Z</time>
      </trkpt>
      <trkpt lat="46.08845" lon="6.52725">
        <ele>509</ele>
        <time>2019-05-24T09:36:10Z</time>
      </trkpt>
      <trkpt lat="46.08844" lon="6.5274">
        <ele>509</ele>
        <time>2019-05-24T09:36:12Z</time>
      </trkpt>
      <trkpt lat="46.08851" lon="6.52747">
        <ele>511</ele>
        <time>2019-05-24T09:36:13Z</time>
      </trkpt>
      <trkpt lat="46.0886" lon="6.52747">
        <ele>512</ele>
        <time>2019-05-24T09:36:15Z</time>
      </trkpt>
      <trkpt lat="46.08883" lon="6.5273">
        <ele>515</ele>
        <time>2019-05-24T09:36:19Z</time>
      </trkpt>
      <trkpt lat="46.08901" lon="6.52711">
        <ele>517</ele>
        <time>2019-05-24T09:36:23Z</time>
      </trkpt>
      <trkpt lat="46.08945" lon="6.52632">
        <ele>524</ele>
        <time>2019-05-24T09:36:36Z</time>
      </trkpt>
      <trkpt lat="46.08952" lon="6.52607">
        <ele>525</ele>
        <time>2019-05-24T09:36:39Z</time>
      </trkpt>
      <trkpt lat="46.08958" lon="6.52575">
        <ele>525</ele>
        <time>2019-05-24T09:36:43Z</time>
      </trkpt>
      <trkpt lat="46.08968" lon="6.52558">
        <ele>526</ele>
        <time>2019-05-24T09:36:46Z</time>
      </trkpt>
      <trkpt lat="46.0897" lon="6.52727">
        <ele>533</ele>
        <time>2019-05-24T09:37:07Z</time>
      </trkpt>
      <trkpt lat="46.0896" lon="6.5287">
        <ele>536</ele>
        <time>2019-05-24T09:37:25Z</time>
      </trkpt>
      <trkpt lat="46.08962" lon="6.53017">
        <ele>541</ele>
        <time>2019-05-24T09:37:43Z</time>
      </trkpt>
      <trkpt lat="46.08901" lon="6.53333">
        <ele>548</ele>
        <time>2019-05-24T09:38:23Z</time>
      </trkpt>
      <trkpt lat="46.08892" lon="6.53408">
        <ele>549</ele>
        <time>2019-05-24T09:38:33Z</time>
      </trkpt>
      <trkpt lat="46.08885" lon="6.5378">
        <ele>563</ele>
        <time>2019-05-24T09:39:19Z</time>
      </trkpt>
      <trkpt lat="46.08878" lon="6.53825">
        <ele>565</ele>
        <time>2019-05-24T09:39:24Z</time>
      </trkpt>
      <trkpt lat="46.08867" lon="6.53866">
        <ele>565</ele>
        <time>2019-05-24T09:39:30Z</time>
      </trkpt>
      <trkpt lat="46.08849" lon="6.53913">
        <ele>566</ele>
        <time>2019-05-24T09:39:36Z</time>
      </trkpt>
      <trkpt lat="46.08843" lon="6.53937">
        <ele>565</ele>
        <time>2019-05-24T09:39:40Z</time>
      </trkpt>
      <trkpt lat="46.08839" lon="6.53964">
        <ele>565</ele>
        <time>2019-05-24T09:39:43Z</time>
      </trkpt>
      <trkpt lat="46.0884" lon="6.53995">
        <ele>566</ele>
        <time>2019-05-24T09:39:47Z</time>
      </trkpt>
      <trkpt lat="46.08849" lon="6.54043">
        <ele>568</ele>
        <time>2019-05-24T09:39:53Z</time>
      </trkpt>
      <trkpt lat="46.08873" lon="6.54098">
        <ele>573</ele>
        <time>2019-05-24T09:40:01Z</time>
      </trkpt>
      <trkpt lat="46.08893" lon="6.54151">
        <ele>577</ele>
        <time>2019-05-24T09:40:08Z</time>
      </trkpt>
      <trkpt lat="46.08901" lon="6.54197">
        <ele>579</ele>
        <time>2019-05-24T09:40:14Z</time>
      </trkpt>
      <trkpt lat="46.08903" lon="6.54255">
        <ele>583</ele>
        <time>2019-05-24T09:40:21Z</time>
      </trkpt>
      <trkpt lat="46.08899" lon="6.54299">
        <ele>584</ele>
        <time>2019-05-24T09:40:27Z</time>
      </trkpt>
      <trkpt lat="46.08893" lon="6.54338">
        <ele>585</ele>
        <time>2019-05-24T09:40:32Z</time>
      </trkpt>
      <trkpt lat="46.08879" lon="6.54379">
        <ele>588</ele>
        <time>2019-05-24T09:40:37Z</time>
      </trkpt>
      <trkpt lat="46.0886" lon="6.54426">
        <ele>589</ele>
        <time>2019-05-24T09:40:44Z</time>
      </trkpt>
      <trkpt lat="46.08842" lon="6.5448">
        <ele>589</ele>
        <time>2019-05-24T09:40:52Z</time>
      </trkpt>
      <trkpt lat="46.08833" lon="6.54513">
        <ele>589</ele>
        <time>2019-05-24T09:40:56Z</time>
      </trkpt>
      <trkpt lat="46.08827" lon="6.54557">
        <ele>590</ele>
        <time>2019-05-24T09:41:01Z</time>
      </trkpt>
      <trkpt lat="46.08828" lon="6.54621">
        <ele>592</ele>
        <time>2019-05-24T09:41:09Z</time>
      </trkpt>
      <trkpt lat="46.08836" lon="6.54723">
        <ele>598</ele>
        <time>2019-05-24T09:41:22Z</time>
      </trkpt>
      <trkpt lat="46.08831" lon="6.54769">
        <ele>598</ele>
        <time>2019-05-24T09:41:28Z</time>
      </trkpt>
      <trkpt lat="46.08821" lon="6.54826">
        <ele>597</ele>
        <time>2019-05-24T09:41:35Z</time>
      </trkpt>
      <trkpt lat="46.08819" lon="6.54884">
        <ele>598</ele>
        <time>2019-05-24T09:41:42Z</time>
      </trkpt>
      <trkpt lat="46.08842" lon="6.55118">
        <ele>613</ele>
        <time>2019-05-24T09:42:11Z</time>
      </trkpt>
      <trkpt lat="46.08845" lon="6.55165">
        <ele>616</ele>
        <time>2019-05-24T09:42:17Z</time>
      </trkpt>
      <trkpt lat="46.08842" lon="6.55194">
        <ele>620</ele>
        <time>2019-05-24T09:42:21Z</time>
      </trkpt>
      <trkpt lat="46.08823" lon="6.55247">
        <ele>621</ele>
        <time>2019-05-24T09:42:28Z</time>
      </trkpt>
      <trkpt lat="46.08809" lon="6.55297">
        <ele>622</ele>
        <time>2019-05-24T09:42:35Z</time>
      </trkpt>
      <trkpt lat="46.08778" lon="6.55493">
        <ele>628</ele>
        <time>2019-05-24T09:43:00Z</time>
      </trkpt>
      <trkpt lat="46.08769" lon="6.55538">
        <ele>632</ele>
        <time>2019-05-24T09:43:05Z</time>
      </trkpt>
      <trkpt lat="46.08745" lon="6.5559">
        <ele>630</ele>
        <time>2019-05-24T09:43:13Z</time>
      </trkpt>
      <trkpt lat="46.08733" lon="6.55629">
        <ele>628</ele>
        <time>2019-05-24T09:43:18Z</time>
      </trkpt>
      <trkpt lat="46.08705" lon="6.55733">
        <ele>627</ele>
        <time>2019-05-24T09:43:32Z</time>
      </trkpt>
      <trkpt lat="46.08699" lon="6.55811">
        <ele>637</ele>
        <time>2019-05-24T09:43:42Z</time>
      </trkpt>
      <trkpt lat="46.0869" lon="6.55846">
        <ele>639</ele>
        <time>2019-05-24T09:43:46Z</time>
      </trkpt>
      <trkpt lat="46.08674" lon="6.55884">
        <ele>636</ele>
        <time>2019-05-24T09:43:52Z</time>
      </trkpt>
      <trkpt lat="46.08667" lon="6.55919">
        <ele>637</ele>
        <time>2019-05-24T09:43:56Z</time>
      </trkpt>
      <trkpt lat="46.08668" lon="6.5595">
        <ele>639</ele>
        <time>2019-05-24T09:44:00Z</time>
      </trkpt>
      <trkpt lat="46.0868" lon="6.55996">
        <ele>648</ele>
        <time>2019-05-24T09:44:06Z</time>
      </trkpt>
      <trkpt lat="46.08678" lon="6.56032">
        <ele>653</ele>
        <time>2019-05-24T09:44:11Z</time>
      </trkpt>
      <trkpt lat="46.08666" lon="6.56068">
        <ele>652</ele>
        <time>2019-05-24T09:44:16Z</time>
      </trkpt>
      <trkpt lat="46.08612" lon="6.56198">
        <ele>658</ele>
        <time>2019-05-24T09:44:34Z</time>
      </trkpt>
      <trkpt lat="46.08594" lon="6.56231">
        <ele>653</ele>
        <time>2019-05-24T09:44:40Z</time>
      </trkpt>
      <trkpt lat="46.08586" lon="6.56254">
        <ele>652</ele>
        <time>2019-05-24T09:44:43Z</time>
      </trkpt>
      <trkpt lat="46.08585" lon="6.56276">
        <ele>655</ele>
        <time>2019-05-24T09:44:45Z</time>
      </trkpt>
      <trkpt lat="46.08594" lon="6.56325">
        <ele>666</ele>
        <time>2019-05-24T09:44:52Z</time>
      </trkpt>
      <trkpt lat="46.08595" lon="6.56345">
        <ele>668</ele>
        <time>2019-05-24T09:44:54Z</time>
      </trkpt>
      <trkpt lat="46.08585" lon="6.56391">
        <ele>665</ele>
        <time>2019-05-24T09:45:00Z</time>
      </trkpt>
      <trkpt lat="46.08585" lon="6.56432">
        <ele>665</ele>
        <time>2019-05-24T09:45:05Z</time>
      </trkpt>
      <trkpt lat="46.08591" lon="6.56488">
        <ele>667</ele>
        <time>2019-05-24T09:45:12Z</time>
      </trkpt>
      <trkpt lat="46.08587" lon="6.5655">
        <ele>662</ele>
        <time>2019-05-24T09:45:20Z</time>
      </trkpt>
      <trkpt lat="46.08589" lon="6.56577">
        <ele>661</ele>
        <time>2019-05-24T09:45:23Z</time>
      </trkpt>
      <trkpt lat="46.08594" lon="6.56608">
        <ele>665</ele>
        <time>2019-05-24T09:45:27Z</time>
      </trkpt>
      <trkpt lat="46.08607" lon="6.56671">
        <ele>675</ele>
        <time>2019-05-24T09:45:35Z</time>
      </trkpt>
      <trkpt lat="46.08611" lon="6.56729">
        <ele>682</ele>
        <time>2019-05-24T09:45:42Z</time>
      </trkpt>
      <trkpt lat="46.08622" lon="6.56785">
        <ele>695</ele>
        <time>2019-05-24T09:45:50Z</time>
      </trkpt>
      <trkpt lat="46.08615" lon="6.56812">
        <ele>695</ele>
        <time>2019-05-24T09:45:53Z</time>
      </trkpt>
      <trkpt lat="46.08587" lon="6.56862">
        <ele>685</ele>
        <time>2019-05-24T09:46:01Z</time>
      </trkpt>
      <trkpt lat="46.08589" lon="6.56876">
        <ele>688</ele>
        <time>2019-05-24T09:46:03Z</time>
      </trkpt>
      <trkpt lat="46.0858" lon="6.5692">
        <ele>688</ele>
        <time>2019-05-24T09:46:09Z</time>
      </trkpt>
      <trkpt lat="46.0858" lon="6.56979">
        <ele>700</ele>
        <time>2019-05-24T09:46:16Z</time>
      </trkpt>
      <trkpt lat="46.08574" lon="6.56998">
        <ele>700</ele>
        <time>2019-05-24T09:46:18Z</time>
      </trkpt>
      <trkpt lat="46.08543" lon="6.57059">
        <ele>698</ele>
        <time>2019-05-24T09:46:28Z</time>
      </trkpt>
      <trkpt lat="46.08488" lon="6.5712">
        <ele>685</ele>
        <time>2019-05-24T09:46:40Z</time>
      </trkpt>
      <trkpt lat="46.08479" lon="6.57134">
        <ele>684</ele>
        <time>2019-05-24T09:46:42Z</time>
      </trkpt>
      <trkpt lat="46.08471" lon="6.57151">
        <ele>685</ele>
        <time>2019-05-24T09:46:45Z</time>
      </trkpt>
      <trkpt lat="46.08464" lon="6.57172">
        <ele>686</ele>
        <time>2019-05-24T09:46:48Z</time>
      </trkpt>
      <trkpt lat="46.08454" lon="6.57235">
        <ele>692</ele>
        <time>2019-05-24T09:46:56Z</time>
      </trkpt>
      <trkpt lat="46.08447" lon="6.5731">
        <ele>703</ele>
        <time>2019-05-24T09:47:05Z</time>
      </trkpt>
      <trkpt lat="46.0844" lon="6.57329">
        <ele>703</ele>
        <time>2019-05-24T09:47:08Z</time>
      </trkpt>
      <trkpt lat="46.08417" lon="6.57362">
        <ele>695</ele>
        <time>2019-05-24T09:47:14Z</time>
      </trkpt>
      <trkpt lat="46.08408" lon="6.5738">
        <ele>692</ele>
        <time>2019-05-24T09:47:16Z</time>
      </trkpt>
      <trkpt lat="46.08384" lon="6.57462">
        <ele>684</ele>
        <time>2019-05-24T09:47:27Z</time>
      </trkpt>
      <trkpt lat="46.08384" lon="6.5748">
        <ele>685</ele>
        <time>2019-05-24T09:47:30Z</time>
      </trkpt>
      <trkpt lat="46.08385" lon="6.57493">
        <ele>686</ele>
        <time>2019-05-24T09:47:31Z</time>
      </trkpt>
      <trkpt lat="46.08397" lon="6.57512">
        <ele>690</ele>
        <time>2019-05-24T09:47:34Z</time>
      </trkpt>
      <trkpt lat="46.08412" lon="6.5752">
        <ele>695</ele>
        <time>2019-05-24T09:47:37Z</time>
      </trkpt>
      <trkpt lat="46.08469" lon="6.57537">
        <ele>706</ele>
        <time>2019-05-24T09:47:48Z</time>
      </trkpt>
      <trkpt lat="46.08486" lon="6.57546">
        <ele>708</ele>
        <time>2019-05-24T09:47:51Z</time>
      </trkpt>
      <trkpt lat="46.08502" lon="6.57565">
        <ele>710</ele>
        <time>2019-05-24T09:47:54Z</time>
      </trkpt>
      <trkpt lat="46.08516" lon="6.57594">
        <ele>713</ele>
        <time>2019-05-24T09:47:59Z</time>
      </trkpt>
      <trkpt lat="46.08523" lon="6.57625">
        <ele>714</ele>
        <time>2019-05-24T09:48:03Z</time>
      </trkpt>
      <trkpt lat="46.08524" lon="6.57655">
        <ele>713</ele>
        <time>2019-05-24T09:48:07Z</time>
      </trkpt>
      <trkpt lat="46.08521" lon="6.57693">
        <ele>710</ele>
        <time>2019-05-24T09:48:11Z</time>
      </trkpt>
      <trkpt lat="46.08522" lon="6.57725">
        <ele>710</ele>
        <time>2019-05-24T09:48:15Z</time>
      </trkpt>
      <trkpt lat="46.0853" lon="6.57759">
        <ele>711</ele>
        <time>2019-05-24T09:48:20Z</time>
      </trkpt>
      <trkpt lat="46.08545" lon="6.5779">
        <ele>714</ele>
        <time>2019-05-24T09:48:24Z</time>
      </trkpt>
      <trkpt lat="46.08606" lon="6.57904">
        <ele>726</ele>
        <time>2019-05-24T09:48:42Z</time>
      </trkpt>
      <trkpt lat="46.08611" lon="6.57935">
        <ele>727</ele>
        <time>2019-05-24T09:48:46Z</time>
      </trkpt>
      <trkpt lat="46.08614" lon="6.58017">
        <ele>728</ele>
        <time>2019-05-24T09:48:56Z</time>
      </trkpt>
      <trkpt lat="46.08624" lon="6.58113">
        <ele>731</ele>
        <time>2019-05-24T09:49:08Z</time>
      </trkpt>
      <trkpt lat="46.08642" lon="6.582">
        <ele>735</ele>
        <time>2019-05-24T09:49:19Z</time>
      </trkpt>
      <trkpt lat="46.08655" lon="6.58222">
        <ele>737</ele>
        <time>2019-05-24T09:49:23Z</time>
      </trkpt>
      <trkpt lat="46.08672" lon="6.58238">
        <ele>738</ele>
        <time>2019-05-24T09:49:26Z</time>
      </trkpt>
      <trkpt lat="46.08727" lon="6.58271">
        <ele>741</ele>
        <time>2019-05-24T09:49:37Z</time>
      </trkpt>
      <trkpt lat="46.08823" lon="6.58334">
        <ele>742</ele>
        <time>2019-05-24T09:49:56Z</time>
      </trkpt>
      <trkpt lat="46.0884" lon="6.58351">
        <ele>743</ele>
        <time>2019-05-24T09:50:00Z</time>
      </trkpt>
      <trkpt lat="46.08841" lon="6.58359">
        <ele>743</ele>
        <time>2019-05-24T09:50:01Z</time>
      </trkpt>
      <trkpt lat="46.08847" lon="6.58366">
        <ele>744</ele>
        <time>2019-05-24T09:50:02Z</time>
      </trkpt>
      <trkpt lat="46.08855" lon="6.58367">
        <ele>743</ele>
        <time>2019-05-24T09:50:03Z</time>
      </trkpt>
      <trkpt lat="46.08861" lon="6.58361">
        <ele>742</ele>
        <time>2019-05-24T09:50:05Z</time>
      </trkpt>
      <trkpt lat="46.08876" lon="6.58364">
        <ele>742</ele>
        <time>2019-05-24T09:50:07Z</time>
      </trkpt>
      <trkpt lat="46.08883" lon="6.58372">
        <ele>742</ele>
        <time>2019-05-24T09:50:09Z</time>
      </trkpt>
      <trkpt lat="46.08964" lon="6.58428">
        <ele>736</ele>
        <time>2019-05-24T09:50:25Z</time>
      </trkpt>
      <trkpt lat="46.09094" lon="6.58511">
        <ele>736</ele>
        <time>2019-05-24T09:50:50Z</time>
      </trkpt>
      <trkpt lat="46.09126" lon="6.58515">
        <ele>738</ele>
        <time>2019-05-24T09:50:56Z</time>
      </trkpt>
      <trkpt lat="46.09174" lon="6.58515">
        <ele>739</ele>
        <time>2019-05-24T09:51:04Z</time>
      </trkpt>
      <trkpt lat="46.09197" lon="6.58523">
        <ele>737</ele>
        <time>2019-05-24T09:51:09Z</time>
      </trkpt>
      <trkpt lat="46.09218" lon="6.58537">
        <ele>735</ele>
        <time>2019-05-24T09:51:13Z</time>
      </trkpt>
      <trkpt lat="46.0923" lon="6.58551">
        <ele>734</ele>
        <time>2019-05-24T09:51:16Z</time>
      </trkpt>
      <trkpt lat="46.09244" lon="6.58582">
        <ele>734</ele>
        <time>2019-05-24T09:51:20Z</time>
      </trkpt>
      <trkpt lat="46.0925" lon="6.58605">
        <ele>734</ele>
        <time>2019-05-24T09:51:23Z</time>
      </trkpt>
      <trkpt lat="46.09255" lon="6.58668">
        <ele>734</ele>
        <time>2019-05-24T09:51:31Z</time>
      </trkpt>
      <trkpt lat="46.09238" lon="6.58782">
        <ele>733</ele>
        <time>2019-05-24T09:51:45Z</time>
      </trkpt>
      <trkpt lat="46.09239" lon="6.58835">
        <ele>729</ele>
        <time>2019-05-24T09:51:52Z</time>
      </trkpt>
      <trkpt lat="46.09245" lon="6.5889">
        <ele>726</ele>
        <time>2019-05-24T09:51:59Z</time>
      </trkpt>
      <trkpt lat="46.09261" lon="6.58937">
        <ele>720</ele>
        <time>2019-05-24T09:52:05Z</time>
      </trkpt>
      <trkpt lat="46.09285" lon="6.58986">
        <ele>714</ele>
        <time>2019-05-24T09:52:13Z</time>
      </trkpt>
      <trkpt lat="46.09317" lon="6.5902">
        <ele>709</ele>
        <time>2019-05-24T09:52:20Z</time>
      </trkpt>
      <trkpt lat="46.0939" lon="6.59087">
        <ele>699</ele>
        <time>2019-05-24T09:52:35Z</time>
      </trkpt>
      <trkpt lat="46.09425" lon="6.59149">
        <ele>698</ele>
        <time>2019-05-24T09:52:45Z</time>
      </trkpt>
      <trkpt lat="46.09459" lon="6.59225">
        <ele>694</ele>
        <time>2019-05-24T09:52:56Z</time>
      </trkpt>
      <trkpt lat="46.09484" lon="6.59291">
        <ele>691</ele>
        <time>2019-05-24T09:53:05Z</time>
      </trkpt>
      <trkpt lat="46.09509" lon="6.59378">
        <ele>691</ele>
        <time>2019-05-24T09:53:17Z</time>
      </trkpt>
      <trkpt lat="46.09553" lon="6.59591">
        <ele>686</ele>
        <time>2019-05-24T09:53:44Z</time>
      </trkpt>
      <trkpt lat="46.09582" lon="6.59695">
        <ele>675</ele>
        <time>2019-05-24T09:53:58Z</time>
      </trkpt>
      <trkpt lat="46.09587" lon="6.5973">
        <ele>673</ele>
        <time>2019-05-24T09:54:03Z</time>
      </trkpt>
      <trkpt lat="46.09587" lon="6.59782">
        <ele>675</ele>
        <time>2019-05-24T09:54:09Z</time>
      </trkpt>
      <trkpt lat="46.09585" lon="6.59863">
        <ele>681</ele>
        <time>2019-05-24T09:54:19Z</time>
      </trkpt>
      <trkpt lat="46.09588" lon="6.59882">
        <ele>682</ele>
        <time>2019-05-24T09:54:21Z</time>
      </trkpt>
      <trkpt lat="46.09597" lon="6.59895">
        <ele>680</ele>
        <time>2019-05-24T09:54:24Z</time>
      </trkpt>
      <trkpt lat="46.09601" lon="6.59898">
        <ele>678</ele>
        <time>2019-05-24T09:54:25Z</time>
      </trkpt>
      <trkpt lat="46.09613" lon="6.59897">
        <ele>674</ele>
        <time>2019-05-24T09:54:27Z</time>
      </trkpt>
      <trkpt lat="46.09623" lon="6.59886">
        <ele>670</ele>
        <time>2019-05-24T09:54:29Z</time>
      </trkpt>
      <trkpt lat="46.09627" lon="6.59872">
        <ele>668</ele>
        <time>2019-05-24T09:54:31Z</time>
      </trkpt>
      <trkpt lat="46.09642" lon="6.59787">
        <ele>660</ele>
        <time>2019-05-24T09:54:42Z</time>
      </trkpt>
      <trkpt lat="46.09646" lon="6.5975">
        <ele>658</ele>
        <time>2019-05-24T09:54:46Z</time>
      </trkpt>
      <trkpt lat="46.09644" lon="6.59721">
        <ele>656</ele>
        <time>2019-05-24T09:54:50Z</time>
      </trkpt>
      <trkpt lat="46.09627" lon="6.59648">
        <ele>657</ele>
        <time>2019-05-24T09:54:59Z</time>
      </trkpt>
      <trkpt lat="46.09625" lon="6.5962">
        <ele>657</ele>
        <time>2019-05-24T09:55:03Z</time>
      </trkpt>
      <trkpt lat="46.09627" lon="6.59583">
        <ele>655</ele>
        <time>2019-05-24T09:55:07Z</time>
      </trkpt>
      <trkpt lat="46.09638" lon="6.5949">
        <ele>651</ele>
        <time>2019-05-24T09:55:19Z</time>
      </trkpt>
      <trkpt lat="46.09642" lon="6.59431">
        <ele>648</ele>
        <time>2019-05-24T09:55:26Z</time>
      </trkpt>
      <trkpt lat="46.09643" lon="6.59257">
        <ele>642</ele>
        <time>2019-05-24T09:55:48Z</time>
      </trkpt>
      <trkpt lat="46.09645" lon="6.59234">
        <ele>641</ele>
        <time>2019-05-24T09:55:51Z</time>
      </trkpt>
      <trkpt lat="46.09666" lon="6.5914">
        <ele>636</ele>
        <time>2019-05-24T09:56:03Z</time>
      </trkpt>
      <trkpt lat="46.09668" lon="6.59108">
        <ele>636</ele>
        <time>2019-05-24T09:56:07Z</time>
      </trkpt>
      <trkpt lat="46.09662" lon="6.59035">
        <ele>635</ele>
        <time>2019-05-24T09:56:16Z</time>
      </trkpt>
      <trkpt lat="46.09664" lon="6.59021">
        <ele>634</ele>
        <time>2019-05-24T09:56:18Z</time>
      </trkpt>
      <trkpt lat="46.0967" lon="6.59003">
        <ele>633</ele>
        <time>2019-05-24T09:56:20Z</time>
      </trkpt>
      <trkpt lat="46.09675" lon="6.58997">
        <ele>632</ele>
        <time>2019-05-24T09:56:21Z</time>
      </trkpt>
      <trkpt lat="46.09686" lon="6.58987">
        <ele>630</ele>
        <time>2019-05-24T09:56:24Z</time>
      </trkpt>
      <trkpt lat="46.09706" lon="6.58985">
        <ele>627</ele>
        <time>2019-05-24T09:56:27Z</time>
      </trkpt>
      <trkpt lat="46.09877" lon="6.59004">
        <ele>623</ele>
        <time>2019-05-24T09:56:58Z</time>
      </trkpt>
      <trkpt lat="46.10377" lon="6.59062">
        <ele>634</ele>
        <time>2019-05-24T09:58:27Z</time>
      </trkpt>
      <trkpt lat="46.10509" lon="6.59078">
        <ele>638</ele>
        <time>2019-05-24T09:58:50Z</time>
      </trkpt>
      <trkpt lat="46.10536" lon="6.59083">
        <ele>639</ele>
        <time>2019-05-24T09:58:55Z</time>
      </trkpt>
      <trkpt lat="46.10536" lon="6.5909">
        <ele>639</ele>
        <time>2019-05-24T09:58:56Z</time>
      </trkpt>
      <trkpt lat="46.1054" lon="6.59099">
        <ele>639</ele>
        <time>2019-05-24T09:58:58Z</time>
      </trkpt>
      <trkpt lat="46.10618" lon="6.59149">
        <ele>641</ele>
        <time>2019-05-24T09:59:13Z</time>
      </trkpt>
      <trkpt lat="46.10624" lon="6.59159">
        <ele>641</ele>
        <time>2019-05-24T09:59:14Z</time>
      </trkpt>
      <trkpt lat="46.10646" lon="6.59211">
        <ele>642</ele>
        <time>2019-05-24T09:59:22Z</time>
      </trkpt>
      <trkpt lat="46.10654" lon="6.5922">
        <ele>642</ele>
        <time>2019-05-24T09:59:24Z</time>
      </trkpt>
      <trkpt lat="46.10683" lon="6.59236">
        <ele>643</ele>
        <time>2019-05-24T09:59:29Z</time>
      </trkpt>
      <trkpt lat="46.1071" lon="6.59247">
        <ele>644</ele>
        <time>2019-05-24T09:59:34Z</time>
      </trkpt>
      <trkpt lat="46.10748" lon="6.59255">
        <ele>646</ele>
        <time>2019-05-24T09:59:41Z</time>
      </trkpt>
      <trkpt lat="46.10741" lon="6.59285">
        <ele>646</ele>
        <time>2019-05-24T09:59:45Z</time>
      </trkpt>
      <trkpt lat="46.10741" lon="6.5929">
        <ele>646</ele>
        <time>2019-05-24T09:59:46Z</time>
      </trkpt>
      <trkpt lat="46.10734" lon="6.59314">
        <ele>645</ele>
        <time>2019-05-24T09:59:49Z</time>
      </trkpt>
      <trkpt lat="46.10725" lon="6.59309">
        <ele>645</ele>
        <time>2019-05-24T09:59:50Z</time>
      </trkpt>
      <trkpt lat="46.10717" lon="6.59335">
        <ele>644</ele>
        <time>2019-05-24T09:59:54Z</time>
      </trkpt>
      <trkpt lat="46.10727" lon="6.59341">
        <ele>644</ele>
        <time>2019-05-24T09:59:56Z</time>
      </trkpt>
      <trkpt lat="46.10722" lon="6.59374">
        <ele>642</ele>
        <time>2019-05-24T10:00:00Z</time>
      </trkpt>
      <trkpt lat="46.10697" lon="6.59787">
        <ele>633</ele>
        <time>2019-05-24T10:00:51Z</time>
      </trkpt>
      <trkpt lat="46.10688" lon="6.59883">
        <ele>632</ele>
        <time>2019-05-24T10:01:03Z</time>
      </trkpt>
      <trkpt lat="46.10669" lon="6.59997">
        <ele>631</ele>
        <time>2019-05-24T10:01:18Z</time>
      </trkpt>
      <trkpt lat="46.10665" lon="6.60035">
        <ele>631</ele>
        <time>2019-05-24T10:01:22Z</time>
      </trkpt>
      <trkpt lat="46.10654" lon="6.604">
        <ele>631</ele>
        <time>2019-05-24T10:02:07Z</time>
      </trkpt>
      <trkpt lat="46.1065" lon="6.6043">
        <ele>632</ele>
        <time>2019-05-24T10:02:11Z</time>
      </trkpt>
      <trkpt lat="46.10625" lon="6.60544">
        <ele>630</ele>
        <time>2019-05-24T10:02:26Z</time>
      </trkpt>
      <trkpt lat="46.10612" lon="6.60674">
        <ele>630</ele>
        <time>2019-05-24T10:02:42Z</time>
      </trkpt>
      <trkpt lat="46.10607" lon="6.60757">
        <ele>629</ele>
        <time>2019-05-24T10:02:52Z</time>
      </trkpt>
      <trkpt lat="46.10606" lon="6.60787">
        <ele>629</ele>
        <time>2019-05-24T10:02:56Z</time>
      </trkpt>
      <trkpt lat="46.10597" lon="6.61377">
        <ele>634</ele>
        <time>2019-05-24T10:04:09Z</time>
      </trkpt>
      <trkpt lat="46.10594" lon="6.61419">
        <ele>635</ele>
        <time>2019-05-24T10:04:14Z</time>
      </trkpt>
      <trkpt lat="46.10577" lon="6.61524">
        <ele>636</ele>
        <time>2019-05-24T10:04:27Z</time>
      </trkpt>
      <trkpt lat="46.10563" lon="6.61585">
        <ele>637</ele>
        <time>2019-05-24T10:04:35Z</time>
      </trkpt>
      <trkpt lat="46.10558" lon="6.61628">
        <ele>637</ele>
        <time>2019-05-24T10:04:41Z</time>
      </trkpt>
      <trkpt lat="46.10559" lon="6.62002">
        <ele>636</ele>
        <time>2019-05-24T10:05:27Z</time>
      </trkpt>
      <trkpt lat="46.10557" lon="6.6205">
        <ele>638</ele>
        <time>2019-05-24T10:05:33Z</time>
      </trkpt>
      <trkpt lat="46.10554" lon="6.62077">
        <ele>639</ele>
        <time>2019-05-24T10:05:36Z</time>
      </trkpt>
      <trkpt lat="46.10536" lon="6.62192">
        <ele>640</ele>
        <time>2019-05-24T10:05:51Z</time>
      </trkpt>
      <trkpt lat="46.10516" lon="6.62287">
        <ele>642</ele>
        <time>2019-05-24T10:06:03Z</time>
      </trkpt>
      <trkpt lat="46.10424" lon="6.62588">
        <ele>642</ele>
        <time>2019-05-24T10:06:44Z</time>
      </trkpt>
      <trkpt lat="46.10359" lon="6.6277">
        <ele>637</ele>
        <time>2019-05-24T10:07:09Z</time>
      </trkpt>
      <trkpt lat="46.10305" lon="6.62889">
        <ele>639</ele>
        <time>2019-05-24T10:07:26Z</time>
      </trkpt>
      <trkpt lat="46.10259" lon="6.63005">
        <ele>638</ele>
        <time>2019-05-24T10:07:43Z</time>
      </trkpt>
      <trkpt lat="46.10168" lon="6.63268">
        <ele>644</ele>
        <time>2019-05-24T10:08:19Z</time>
      </trkpt>
      <trkpt lat="46.10158" lon="6.63305">
        <ele>646</ele>
        <time>2019-05-24T10:08:24Z</time>
      </trkpt>
      <trkpt lat="46.10151" lon="6.63343">
        <ele>647</ele>
        <time>2019-05-24T10:08:29Z</time>
      </trkpt>
      <trkpt lat="46.10139" lon="6.63565">
        <ele>643</ele>
        <time>2019-05-24T10:08:56Z</time>
      </trkpt>
      <trkpt lat="46.1013" lon="6.63649">
        <ele>643</ele>
        <time>2019-05-24T10:09:07Z</time>
      </trkpt>
      <trkpt lat="46.10123" lon="6.63702">
        <ele>644</ele>
        <time>2019-05-24T10:09:13Z</time>
      </trkpt>
      <trkpt lat="46.10108" lon="6.63781">
        <ele>644</ele>
        <time>2019-05-24T10:09:24Z</time>
      </trkpt>
      <trkpt lat="46.10034" lon="6.64151">
        <ele>644</ele>
        <time>2019-05-24T10:10:11Z</time>
      </trkpt>
      <trkpt lat="46.09871" lon="6.65141">
        <ele>653</ele>
        <time>2019-05-24T10:12:17Z</time>
      </trkpt>
      <trkpt lat="46.09859" lon="6.65198">
        <ele>653</ele>
        <time>2019-05-24T10:12:24Z</time>
      </trkpt>
      <trkpt lat="46.09695" lon="6.65788">
        <ele>654</ele>
        <time>2019-05-24T10:13:42Z</time>
      </trkpt>
      <trkpt lat="46.09665" lon="6.65893">
        <ele>654</ele>
        <time>2019-05-24T10:13:56Z</time>
      </trkpt>
      <trkpt lat="46.096" lon="6.66098">
        <ele>656</ele>
        <time>2019-05-24T10:14:24Z</time>
      </trkpt>
      <trkpt lat="46.09511" lon="6.66415">
        <ele>665</ele>
        <time>2019-05-24T10:15:06Z</time>
      </trkpt>
      <trkpt lat="46.095" lon="6.66449">
        <ele>663</ele>
        <time>2019-05-24T10:15:11Z</time>
      </trkpt>
      <trkpt lat="46.09485" lon="6.6649">
        <ele>661</ele>
        <time>2019-05-24T10:15:17Z</time>
      </trkpt>
      <trkpt lat="46.09467" lon="6.66527">
        <ele>661</ele>
        <time>2019-05-24T10:15:22Z</time>
      </trkpt>
      <trkpt lat="46.09438" lon="6.66577">
        <ele>660</ele>
        <time>2019-05-24T10:15:30Z</time>
      </trkpt>
      <trkpt lat="46.09345" lon="6.66728">
        <ele>661</ele>
        <time>2019-05-24T10:15:55Z</time>
      </trkpt>
      <trkpt lat="46.09324" lon="6.66778">
        <ele>659</ele>
        <time>2019-05-24T10:16:03Z</time>
      </trkpt>
      <trkpt lat="46.09146" lon="6.67234">
        <ele>664</ele>
        <time>2019-05-24T10:17:07Z</time>
      </trkpt>
      <trkpt lat="46.09128" lon="6.67286">
        <ele>666</ele>
        <time>2019-05-24T10:17:14Z</time>
      </trkpt>
      <trkpt lat="46.09025" lon="6.67605">
        <ele>665</ele>
        <time>2019-05-24T10:17:58Z</time>
      </trkpt>
      <trkpt lat="46.08951" lon="6.67845">
        <ele>668</ele>
        <time>2019-05-24T10:18:30Z</time>
      </trkpt>
      <trkpt lat="46.08929" lon="6.67924">
        <ele>671</ele>
        <time>2019-05-24T10:18:41Z</time>
      </trkpt>
      <trkpt lat="46.08924" lon="6.67926">
        <ele>671</ele>
        <time>2019-05-24T10:18:42Z</time>
      </trkpt>
      <trkpt lat="46.08921" lon="6.67933">
        <ele>671</ele>
        <time>2019-05-24T10:18:43Z</time>
      </trkpt>
      <trkpt lat="46.0892" lon="6.67942">
        <ele>672</ele>
        <time>2019-05-24T10:18:44Z</time>
      </trkpt>
      <trkpt lat="46.08924" lon="6.67949">
        <ele>672</ele>
        <time>2019-05-24T10:18:45Z</time>
      </trkpt>
      <trkpt lat="46.08927" lon="6.6795">
        <ele>672</ele>
        <time>2019-05-24T10:18:45Z</time>
      </trkpt>
      <trkpt lat="46.08926" lon="6.6797">
        <ele>673</ele>
        <time>2019-05-24T10:18:48Z</time>
      </trkpt>
      <trkpt lat="46.08858" lon="6.687">
        <ele>685</ele>
        <time>2019-05-24T10:20:19Z</time>
      </trkpt>
      <trkpt lat="46.08877" lon="6.68716">
        <ele>685</ele>
        <time>2019-05-24T10:20:23Z</time>
      </trkpt>
      <trkpt lat="46.08959" lon="6.68796">
        <ele>684</ele>
        <time>2019-05-24T10:20:40Z</time>
      </trkpt>
      <trkpt lat="46.08979" lon="6.68813">
        <ele>685</ele>
        <time>2019-05-24T10:20:44Z</time>
      </trkpt>
      <trkpt lat="46.09048" lon="6.68863">
        <ele>688</ele>
        <time>2019-05-24T10:20:58Z</time>
      </trkpt>
      <trkpt lat="46.09098" lon="6.68916">
        <ele>691</ele>
        <time>2019-05-24T10:21:09Z</time>
      </trkpt>
      <trkpt lat="46.09122" lon="6.68954">
        <ele>694</ele>
        <time>2019-05-24T10:21:15Z</time>
      </trkpt>
      <trkpt lat="46.09127" lon="6.68966">
        <ele>695</ele>
        <time>2019-05-24T10:21:17Z</time>
      </trkpt>
      <trkpt lat="46.09132" lon="6.68985">
        <ele>697</ele>
        <time>2019-05-24T10:21:20Z</time>
      </trkpt>
      <trkpt lat="46.09136" lon="6.69014">
        <ele>700</ele>
        <time>2019-05-24T10:21:23Z</time>
      </trkpt>
      <trkpt lat="46.09138" lon="6.69048">
        <ele>705</ele>
        <time>2019-05-24T10:21:28Z</time>
      </trkpt>
      <trkpt lat="46.09137" lon="6.69064">
        <ele>708</ele>
        <time>2019-05-24T10:21:30Z</time>
      </trkpt>
      <trkpt lat="46.09133" lon="6.69078">
        <ele>709</ele>
        <time>2019-05-24T10:21:31Z</time>
      </trkpt>
      <trkpt lat="46.09123" lon="6.69095">
        <ele>711</ele>
        <time>2019-05-24T10:21:34Z</time>
      </trkpt>
      <trkpt lat="46.09115" lon="6.69117">
        <ele>712</ele>
        <time>2019-05-24T10:21:37Z</time>
      </trkpt>
      <trkpt lat="46.09111" lon="6.69139">
        <ele>714</ele>
        <time>2019-05-24T10:21:40Z</time>
      </trkpt>
      <trkpt lat="46.09107" lon="6.69216">
        <ele>721</ele>
        <time>2019-05-24T10:21:50Z</time>
      </trkpt>
      <trkpt lat="46.09104" lon="6.69239">
        <ele>722</ele>
        <time>2019-05-24T10:21:52Z</time>
      </trkpt>
      <trkpt lat="46.09106" lon="6.6928">
        <ele>727</ele>
        <time>2019-05-24T10:21:58Z</time>
      </trkpt>
      <trkpt lat="46.09104" lon="6.69305">
        <ele>730</ele>
        <time>2019-05-24T10:22:01Z</time>
      </trkpt>
      <trkpt lat="46.09097" lon="6.6934">
        <ele>734</ele>
        <time>2019-05-24T10:22:05Z</time>
      </trkpt>
      <trkpt lat="46.09094" lon="6.69348">
        <ele>735</ele>
        <time>2019-05-24T10:22:06Z</time>
      </trkpt>
      <trkpt lat="46.09087" lon="6.69359">
        <ele>735</ele>
        <time>2019-05-24T10:22:08Z</time>
      </trkpt>
      <trkpt lat="46.09079" lon="6.69363">
        <ele>735</ele>
        <time>2019-05-24T10:22:10Z</time>
      </trkpt>
      <trkpt lat="46.09069" lon="6.69359">
        <ele>734</ele>
        <time>2019-05-24T10:22:11Z</time>
      </trkpt>
      <trkpt lat="46.09056" lon="6.69348">
        <ele>732</ele>
        <time>2019-05-24T10:22:14Z</time>
      </trkpt>
      <trkpt lat="46.09048" lon="6.69348">
        <ele>731</ele>
        <time>2019-05-24T10:22:16Z</time>
      </trkpt>
      <trkpt lat="46.09045" lon="6.69351">
        <ele>731</ele>
        <time>2019-05-24T10:22:16Z</time>
      </trkpt>
      <trkpt lat="46.09035" lon="6.69372">
        <ele>732</ele>
        <time>2019-05-24T10:22:19Z</time>
      </trkpt>
      <trkpt lat="46.09027" lon="6.69402">
        <ele>734</ele>
        <time>2019-05-24T10:22:23Z</time>
      </trkpt>
      <trkpt lat="46.09019" lon="6.69449">
        <ele>736</ele>
        <time>2019-05-24T10:22:29Z</time>
      </trkpt>
      <trkpt lat="46.0902" lon="6.69461">
        <ele>737</ele>
        <time>2019-05-24T10:22:31Z</time>
      </trkpt>
      <trkpt lat="46.09025" lon="6.69487">
        <ele>739</ele>
        <time>2019-05-24T10:22:34Z</time>
      </trkpt>
      <trkpt lat="46.09033" lon="6.69509">
        <ele>741</ele>
        <time>2019-05-24T10:22:37Z</time>
      </trkpt>
      <trkpt lat="46.09039" lon="6.69534">
        <ele>742</ele>
        <time>2019-05-24T10:22:40Z</time>
      </trkpt>
      <trkpt lat="46.09052" lon="6.69629">
        <ele>752</ele>
        <time>2019-05-24T10:22:52Z</time>
      </trkpt>
      <trkpt lat="46.09057" lon="6.69657">
        <ele>756</ele>
        <time>2019-05-24T10:22:56Z</time>
      </trkpt>
      <trkpt lat="46.09058" lon="6.69669">
        <ele>758</ele>
        <time>2019-05-24T10:22:57Z</time>
      </trkpt>
      <trkpt lat="46.09047" lon="6.69708">
        <ele>758</ele>
        <time>2019-05-24T10:23:03Z</time>
      </trkpt>
      <trkpt lat="46.09046" lon="6.69723">
        <ele>759</ele>
        <time>2019-05-24T10:23:05Z</time>
      </trkpt>
      <trkpt lat="46.09055" lon="6.69793">
        <ele>764</ele>
        <time>2019-05-24T10:23:13Z</time>
      </trkpt>
      <trkpt lat="46.09061" lon="6.69848">
        <ele>767</ele>
        <time>2019-05-24T10:23:20Z</time>
      </trkpt>
      <trkpt lat="46.09071" lon="6.69915">
        <ele>773</ele>
        <time>2019-05-24T10:23:29Z</time>
      </trkpt>
      <trkpt lat="46.0908" lon="6.7001">
        <ele>779</ele>
        <time>2019-05-24T10:23:40Z</time>
      </trkpt>
      <trkpt lat="46.09098" lon="6.70112">
        <ele>784</ele>
        <time>2019-05-24T10:23:53Z</time>
      </trkpt>
      <trkpt lat="46.09103" lon="6.70192">
        <ele>788</ele>
        <time>2019-05-24T10:24:03Z</time>
      </trkpt>
      <trkpt lat="46.09111" lon="6.70256">
        <ele>793</ele>
        <time>2019-05-24T10:24:11Z</time>
      </trkpt>
      <trkpt lat="46.09112" lon="6.70283">
        <ele>796</ele>
        <time>2019-05-24T10:24:15Z</time>
      </trkpt>
      <trkpt lat="46.09109" lon="6.70296">
        <ele>797</ele>
        <time>2019-05-24T10:24:16Z</time>
      </trkpt>
      <trkpt lat="46.09101" lon="6.70319">
        <ele>798</ele>
        <time>2019-05-24T10:24:20Z</time>
      </trkpt>
      <trkpt lat="46.09099" lon="6.70332">
        <ele>799</ele>
        <time>2019-05-24T10:24:21Z</time>
      </trkpt>
      <trkpt lat="46.09113" lon="6.70394">
        <ele>804</ele>
        <time>2019-05-24T10:24:29Z</time>
      </trkpt>
      <trkpt lat="46.09115" lon="6.70425">
        <ele>806</ele>
        <time>2019-05-24T10:24:33Z</time>
      </trkpt>
      <trkpt lat="46.09117" lon="6.70438">
        <ele>807</ele>
        <time>2019-05-24T10:24:35Z</time>
      </trkpt>
      <trkpt lat="46.09135" lon="6.70465">
        <ele>810</ele>
        <time>2019-05-24T10:24:39Z</time>
      </trkpt>
      <trkpt lat="46.09147" lon="6.70478">
        <ele>813</ele>
        <time>2019-05-24T10:24:42Z</time>
      </trkpt>
      <trkpt lat="46.09159" lon="6.70485">
        <ele>816</ele>
        <time>2019-05-24T10:24:44Z</time>
      </trkpt>
      <trkpt lat="46.09172" lon="6.70489">
        <ele>818</ele>
        <time>2019-05-24T10:24:47Z</time>
      </trkpt>
      <trkpt lat="46.09182" lon="6.7049">
        <ele>820</ele>
        <time>2019-05-24T10:24:49Z</time>
      </trkpt>
      <trkpt lat="46.09202" lon="6.7048">
        <ele>823</ele>
        <time>2019-05-24T10:24:52Z</time>
      </trkpt>
      <trkpt lat="46.09205" lon="6.70481">
        <ele>824</ele>
        <time>2019-05-24T10:24:53Z</time>
      </trkpt>
      <trkpt lat="46.09211" lon="6.70486">
        <ele>825</ele>
        <time>2019-05-24T10:24:54Z</time>
      </trkpt>
      <trkpt lat="46.09218" lon="6.70507">
        <ele>827</ele>
        <time>2019-05-24T10:24:57Z</time>
      </trkpt>
      <trkpt lat="46.09231" lon="6.70571">
        <ele>834</ele>
        <time>2019-05-24T10:25:05Z</time>
      </trkpt>
      <trkpt lat="46.09251" lon="6.7063">
        <ele>841</ele>
        <time>2019-05-24T10:25:13Z</time>
      </trkpt>
      <trkpt lat="46.09264" lon="6.70619">
        <ele>843</ele>
        <time>2019-05-24T10:25:16Z</time>
      </trkpt>
      <trkpt lat="46.09271" lon="6.70607">
        <ele>844</ele>
        <time>2019-05-24T10:25:18Z</time>
      </trkpt>
      <trkpt lat="46.09288" lon="6.70551">
        <ele>844</ele>
        <time>2019-05-24T10:25:25Z</time>
      </trkpt>
      <trkpt lat="46.09313" lon="6.70491">
        <ele>846</ele>
        <time>2019-05-24T10:25:34Z</time>
      </trkpt>
      <trkpt lat="46.09314" lon="6.70468">
        <ele>846</ele>
        <time>2019-05-24T10:25:37Z</time>
      </trkpt>
      <trkpt lat="46.09303" lon="6.70425">
        <ele>844</ele>
        <time>2019-05-24T10:25:43Z</time>
      </trkpt>
      <trkpt lat="46.09302" lon="6.70407">
        <ele>843</ele>
        <time>2019-05-24T10:25:45Z</time>
      </trkpt>
      <trkpt lat="46.09308" lon="6.70385">
        <ele>845</ele>
        <time>2019-05-24T10:25:48Z</time>
      </trkpt>
      <trkpt lat="46.09324" lon="6.70345">
        <ele>851</ele>
        <time>2019-05-24T10:25:53Z</time>
      </trkpt>
      <trkpt lat="46.09328" lon="6.70329">
        <ele>853</ele>
        <time>2019-05-24T10:25:55Z</time>
      </trkpt>
      <trkpt lat="46.09333" lon="6.70257">
        <ele>852</ele>
        <time>2019-05-24T10:26:04Z</time>
      </trkpt>
      <trkpt lat="46.09337" lon="6.70241">
        <ele>851</ele>
        <time>2019-05-24T10:26:07Z</time>
      </trkpt>
      <trkpt lat="46.09346" lon="6.70222">
        <ele>850</ele>
        <time>2019-05-24T10:26:09Z</time>
      </trkpt>
      <trkpt lat="46.09351" lon="6.70214">
        <ele>850</ele>
        <time>2019-05-24T10:26:11Z</time>
      </trkpt>
      <trkpt lat="46.09362" lon="6.70203">
        <ele>850</ele>
        <time>2019-05-24T10:26:13Z</time>
      </trkpt>
      <trkpt lat="46.09373" lon="6.70197">
        <ele>850</ele>
        <time>2019-05-24T10:26:15Z</time>
      </trkpt>
      <trkpt lat="46.09399" lon="6.70195">
        <ele>854</ele>
        <time>2019-05-24T10:26:20Z</time>
      </trkpt>
      <trkpt lat="46.09437" lon="6.70203">
        <ele>859</ele>
        <time>2019-05-24T10:26:27Z</time>
      </trkpt>
      <trkpt lat="46.09465" lon="6.70214">
        <ele>861</ele>
        <time>2019-05-24T10:26:32Z</time>
      </trkpt>
      <trkpt lat="46.09483" lon="6.70228">
        <ele>863</ele>
        <time>2019-05-24T10:26:35Z</time>
      </trkpt>
      <trkpt lat="46.09505" lon="6.70252">
        <ele>867</ele>
        <time>2019-05-24T10:26:40Z</time>
      </trkpt>
      <trkpt lat="46.09516" lon="6.70257">
        <ele>869</ele>
        <time>2019-05-24T10:26:42Z</time>
      </trkpt>
      <trkpt lat="46.09527" lon="6.70256">
        <ele>870</ele>
        <time>2019-05-24T10:26:44Z</time>
      </trkpt>
      <trkpt lat="46.0954" lon="6.70252">
        <ele>870</ele>
        <time>2019-05-24T10:26:47Z</time>
      </trkpt>
      <trkpt lat="46.09552" lon="6.70238">
        <ele>870</ele>
        <time>2019-05-24T10:26:49Z</time>
      </trkpt>
      <trkpt lat="46.09556" lon="6.70224">
        <ele>869</ele>
        <time>2019-05-24T10:26:51Z</time>
      </trkpt>
      <trkpt lat="46.09556" lon="6.70211">
        <ele>869</ele>
        <time>2019-05-24T10:26:53Z</time>
      </trkpt>
      <trkpt lat="46.09547" lon="6.70171">
        <ele>865</ele>
        <time>2019-05-24T10:26:58Z</time>
      </trkpt>
      <trkpt lat="46.09546" lon="6.70161">
        <ele>865</ele>
        <time>2019-05-24T10:26:59Z</time>
      </trkpt>
      <trkpt lat="46.09546" lon="6.70143">
        <ele>865</ele>
        <time>2019-05-24T10:27:02Z</time>
      </trkpt>
      <trkpt lat="46.09548" lon="6.70125">
        <ele>865</ele>
        <time>2019-05-24T10:27:04Z</time>
      </trkpt>
      <trkpt lat="46.09553" lon="6.7011">
        <ele>866</ele>
        <time>2019-05-24T10:27:06Z</time>
      </trkpt>
      <trkpt lat="46.09574" lon="6.70069">
        <ele>870</ele>
        <time>2019-05-24T10:27:12Z</time>
      </trkpt>
      <trkpt lat="46.09587" lon="6.7001">
        <ele>871</ele>
        <time>2019-05-24T10:27:20Z</time>
      </trkpt>
      <trkpt lat="46.09617" lon="6.69925">
        <ele>875</ele>
        <time>2019-05-24T10:27:32Z</time>
      </trkpt>
      <trkpt lat="46.09628" lon="6.69854">
        <ele>877</ele>
        <time>2019-05-24T10:27:41Z</time>
      </trkpt>
      <trkpt lat="46.09637" lon="6.69826">
        <ele>879</ele>
        <time>2019-05-24T10:27:44Z</time>
      </trkpt>
      <trkpt lat="46.09663" lon="6.69771">
        <ele>884</ele>
        <time>2019-05-24T10:27:53Z</time>
      </trkpt>
      <trkpt lat="46.09669" lon="6.69746">
        <ele>886</ele>
        <time>2019-05-24T10:27:56Z</time>
      </trkpt>
      <trkpt lat="46.09671" lon="6.6972">
        <ele>886</ele>
        <time>2019-05-24T10:27:59Z</time>
      </trkpt>
      <trkpt lat="46.0967" lon="6.69664">
        <ele>885</ele>
        <time>2019-05-24T10:28:06Z</time>
      </trkpt>
      <trkpt lat="46.09664" lon="6.69618">
        <ele>884</ele>
        <time>2019-05-24T10:28:12Z</time>
      </trkpt>
      <trkpt lat="46.09665" lon="6.69604">
        <ele>885</ele>
        <time>2019-05-24T10:28:14Z</time>
      </trkpt>
      <trkpt lat="46.09667" lon="6.69597">
        <ele>885</ele>
        <time>2019-05-24T10:28:14Z</time>
      </trkpt>
      <trkpt lat="46.09665" lon="6.69588">
        <ele>885</ele>
        <time>2019-05-24T10:28:16Z</time>
      </trkpt>
      <trkpt lat="46.09666" lon="6.69544">
        <ele>888</ele>
        <time>2019-05-24T10:28:21Z</time>
      </trkpt>
      <trkpt lat="46.09673" lon="6.69505">
        <ele>892</ele>
        <time>2019-05-24T10:28:26Z</time>
      </trkpt>
      <trkpt lat="46.09681" lon="6.6949">
        <ele>893</ele>
        <time>2019-05-24T10:28:28Z</time>
      </trkpt>
      <trkpt lat="46.09691" lon="6.6949">
        <ele>894</ele>
        <time>2019-05-24T10:28:30Z</time>
      </trkpt>
      <trkpt lat="46.09704" lon="6.69483">
        <ele>896</ele>
        <time>2019-05-24T10:28:33Z</time>
      </trkpt>
      <trkpt lat="46.09706" lon="6.69479">
        <ele>896</ele>
        <time>2019-05-24T10:28:33Z</time>
      </trkpt>
      <trkpt lat="46.09702" lon="6.69477">
        <ele>896</ele>
        <time>2019-05-24T10:28:34Z</time>
      </trkpt>
      <trkpt lat="46.09675" lon="6.69471">
        <ele>893</ele>
        <time>2019-05-24T10:28:39Z</time>
      </trkpt>
      <trkpt lat="46.09665" lon="6.69461">
        <ele>891</ele>
        <time>2019-05-24T10:28:41Z</time>
      </trkpt>
      <trkpt lat="46.09663" lon="6.69453">
        <ele>891</ele>
        <time>2019-05-24T10:28:42Z</time>
      </trkpt>
      <trkpt lat="46.09662" lon="6.69444">
        <ele>890</ele>
        <time>2019-05-24T10:28:43Z</time>
      </trkpt>
      <trkpt lat="46.09664" lon="6.69438">
        <ele>891</ele>
        <time>2019-05-24T10:28:44Z</time>
      </trkpt>
      <trkpt lat="46.09666" lon="6.69434">
        <ele>891</ele>
        <time>2019-05-24T10:28:45Z</time>
      </trkpt>
      <trkpt lat="46.09675" lon="6.69427">
        <ele>892</ele>
        <time>2019-05-24T10:28:46Z</time>
      </trkpt>
      <trkpt lat="46.09687" lon="6.69425">
        <ele>894</ele>
        <time>2019-05-24T10:28:49Z</time>
      </trkpt>
      <trkpt lat="46.09782" lon="6.69434">
        <ele>907</ele>
        <time>2019-05-24T10:29:05Z</time>
      </trkpt>
      <trkpt lat="46.09823" lon="6.69436">
        <ele>911</ele>
        <time>2019-05-24T10:29:13Z</time>
      </trkpt>
      <trkpt lat="46.09876" lon="6.69449">
        <ele>922</ele>
        <time>2019-05-24T10:29:22Z</time>
      </trkpt>
      <trkpt lat="46.09899" lon="6.69461">
        <ele>927</ele>
        <time>2019-05-24T10:29:27Z</time>
      </trkpt>
      <trkpt lat="46.09996" lon="6.69543">
        <ele>948</ele>
        <time>2019-05-24T10:29:47Z</time>
      </trkpt>
      <trkpt lat="46.10029" lon="6.69585">
        <ele>953</ele>
        <time>2019-05-24T10:29:55Z</time>
      </trkpt>
      <trkpt lat="46.1005" lon="6.69616">
        <ele>955</ele>
        <time>2019-05-24T10:30:00Z</time>
      </trkpt>
      <trkpt lat="46.10064" lon="6.69626">
        <ele>959</ele>
        <time>2019-05-24T10:30:03Z</time>
      </trkpt>
      <trkpt lat="46.10087" lon="6.69631">
        <ele>969</ele>
        <time>2019-05-24T10:30:07Z</time>
      </trkpt>
      <trkpt lat="46.10095" lon="6.69638">
        <ele>972</ele>
        <time>2019-05-24T10:30:08Z</time>
      </trkpt>
      <trkpt lat="46.10124" lon="6.69721">
        <ele>973</ele>
        <time>2019-05-24T10:30:20Z</time>
      </trkpt>
      <trkpt lat="46.10129" lon="6.69743">
        <ele>972</ele>
        <time>2019-05-24T10:30:23Z</time>
      </trkpt>
      <trkpt lat="46.10132" lon="6.698">
        <ele>976</ele>
        <time>2019-05-24T10:30:30Z</time>
      </trkpt>
      <trkpt lat="46.10132" lon="6.69831">
        <ele>978</ele>
        <time>2019-05-24T10:30:34Z</time>
      </trkpt>
      <trkpt lat="46.10127" lon="6.69858">
        <ele>979</ele>
        <time>2019-05-24T10:30:37Z</time>
      </trkpt>
      <trkpt lat="46.10096" lon="6.69912">
        <ele>974</ele>
        <time>2019-05-24T10:30:46Z</time>
      </trkpt>
      <trkpt lat="46.10082" lon="6.69942">
        <ele>973</ele>
        <time>2019-05-24T10:30:50Z</time>
      </trkpt>
      <trkpt lat="46.10074" lon="6.6997">
        <ele>975</ele>
        <time>2019-05-24T10:30:54Z</time>
      </trkpt>
      <trkpt lat="46.10074" lon="6.69989">
        <ele>977</ele>
        <time>2019-05-24T10:30:56Z</time>
      </trkpt>
      <trkpt lat="46.1007" lon="6.70005">
        <ele>978</ele>
        <time>2019-05-24T10:30:58Z</time>
      </trkpt>
      <trkpt lat="46.10066" lon="6.70011">
        <ele>978</ele>
        <time>2019-05-24T10:30:59Z</time>
      </trkpt>
      <trkpt lat="46.10049" lon="6.70017">
        <ele>977</ele>
        <time>2019-05-24T10:31:03Z</time>
      </trkpt>
      <trkpt lat="46.10035" lon="6.70037">
        <ele>977</ele>
        <time>2019-05-24T10:31:06Z</time>
      </trkpt>
      <trkpt lat="46.10006" lon="6.70084">
        <ele>980</ele>
        <time>2019-05-24T10:31:14Z</time>
      </trkpt>
      <trkpt lat="46.0998" lon="6.7014">
        <ele>979</ele>
        <time>2019-05-24T10:31:22Z</time>
      </trkpt>
      <trkpt lat="46.09976" lon="6.70156">
        <ele>979</ele>
        <time>2019-05-24T10:31:24Z</time>
      </trkpt>
      <trkpt lat="46.09976" lon="6.70165">
        <ele>979</ele>
        <time>2019-05-24T10:31:25Z</time>
      </trkpt>
      <trkpt lat="46.09978" lon="6.70191">
        <ele>980</ele>
        <time>2019-05-24T10:31:29Z</time>
      </trkpt>
      <trkpt lat="46.09993" lon="6.70275">
        <ele>985</ele>
        <time>2019-05-24T10:31:39Z</time>
      </trkpt>
      <trkpt lat="46.09996" lon="6.7028">
        <ele>986</ele>
        <time>2019-05-24T10:31:40Z</time>
      </trkpt>
      <trkpt lat="46.10042" lon="6.70341">
        <ele>994</ele>
        <time>2019-05-24T10:31:51Z</time>
      </trkpt>
      <trkpt lat="46.10067" lon="6.70385">
        <ele>999</ele>
        <time>2019-05-24T10:31:58Z</time>
      </trkpt>
      <trkpt lat="46.10104" lon="6.7033">
        <ele>1005</ele>
        <time>2019-05-24T10:32:08Z</time>
      </trkpt>
      <trkpt lat="46.10133" lon="6.70292">
        <ele>1008</ele>
        <time>2019-05-24T10:32:15Z</time>
      </trkpt>
      <trkpt lat="46.10155" lon="6.70272">
        <ele>1010</ele>
        <time>2019-05-24T10:32:19Z</time>
      </trkpt>
      <trkpt lat="46.10163" lon="6.70267">
        <ele>1011</ele>
        <time>2019-05-24T10:32:21Z</time>
      </trkpt>
      <trkpt lat="46.10178" lon="6.70261">
        <ele>1012</ele>
        <time>2019-05-24T10:32:24Z</time>
      </trkpt>
      <trkpt lat="46.10195" lon="6.70258">
        <ele>1013</ele>
        <time>2019-05-24T10:32:27Z</time>
      </trkpt>
      <trkpt lat="46.10308" lon="6.70244">
        <ele>1023</ele>
        <time>2019-05-24T10:32:47Z</time>
      </trkpt>
      <trkpt lat="46.10328" lon="6.70234">
        <ele>1025</ele>
        <time>2019-05-24T10:32:51Z</time>
      </trkpt>
      <trkpt lat="46.10353" lon="6.70212">
        <ele>1030</ele>
        <time>2019-05-24T10:32:56Z</time>
      </trkpt>
      <trkpt lat="46.10363" lon="6.70209">
        <ele>1033</ele>
        <time>2019-05-24T10:32:58Z</time>
      </trkpt>
      <trkpt lat="46.10372" lon="6.70211">
        <ele>1035</ele>
        <time>2019-05-24T10:32:59Z</time>
      </trkpt>
      <trkpt lat="46.1038" lon="6.70219">
        <ele>1036</ele>
        <time>2019-05-24T10:33:01Z</time>
      </trkpt>
      <trkpt lat="46.10383" lon="6.70224">
        <ele>1036</ele>
        <time>2019-05-24T10:33:02Z</time>
      </trkpt>
      <trkpt lat="46.10384" lon="6.70237">
        <ele>1036</ele>
        <time>2019-05-24T10:33:03Z</time>
      </trkpt>
      <trkpt lat="46.1037" lon="6.70319">
        <ele>1036</ele>
        <time>2019-05-24T10:33:14Z</time>
      </trkpt>
      <trkpt lat="46.10367" lon="6.70347">
        <ele>1037</ele>
        <time>2019-05-24T10:33:17Z</time>
      </trkpt>
      <trkpt lat="46.10364" lon="6.70449">
        <ele>1045</ele>
        <time>2019-05-24T10:33:30Z</time>
      </trkpt>
      <trkpt lat="46.1036" lon="6.70468">
        <ele>1047</ele>
        <time>2019-05-24T10:33:32Z</time>
      </trkpt>
      <trkpt lat="46.10335" lon="6.7052">
        <ele>1051</ele>
        <time>2019-05-24T10:33:40Z</time>
      </trkpt>
      <trkpt lat="46.10311" lon="6.70589">
        <ele>1062</ele>
        <time>2019-05-24T10:33:50Z</time>
      </trkpt>
      <trkpt lat="46.1029" lon="6.70616">
        <ele>1060</ele>
        <time>2019-05-24T10:33:55Z</time>
      </trkpt>
      <trkpt lat="46.10259" lon="6.70641">
        <ele>1054</ele>
        <time>2019-05-24T10:34:01Z</time>
      </trkpt>
      <trkpt lat="46.10256" lon="6.70647">
        <ele>1053</ele>
        <time>2019-05-24T10:34:02Z</time>
      </trkpt>
      <trkpt lat="46.10255" lon="6.7066">
        <ele>1054</ele>
        <time>2019-05-24T10:34:04Z</time>
      </trkpt>
      <trkpt lat="46.10257" lon="6.70667">
        <ele>1055</ele>
        <time>2019-05-24T10:34:04Z</time>
      </trkpt>
      <trkpt lat="46.10262" lon="6.7067">
        <ele>1056</ele>
        <time>2019-05-24T10:34:05Z</time>
      </trkpt>
      <trkpt lat="46.10272" lon="6.70667">
        <ele>1059</ele>
        <time>2019-05-24T10:34:07Z</time>
      </trkpt>
      <trkpt lat="46.10285" lon="6.70642">
        <ele>1061</ele>
        <time>2019-05-24T10:34:11Z</time>
      </trkpt>
      <trkpt lat="46.10293" lon="6.70631">
        <ele>1062</ele>
        <time>2019-05-24T10:34:13Z</time>
      </trkpt>
      <trkpt lat="46.1031" lon="6.70616">
        <ele>1065</ele>
        <time>2019-05-24T10:34:17Z</time>
      </trkpt>
      <trkpt lat="46.10322" lon="6.70608">
        <ele>1067</ele>
        <time>2019-05-24T10:34:19Z</time>
      </trkpt>
      <trkpt lat="46.10354" lon="6.70567">
        <ele>1068</ele>
        <time>2019-05-24T10:34:27Z</time>
      </trkpt>
      <trkpt lat="46.10366" lon="6.70557">
        <ele>1068</ele>
        <time>2019-05-24T10:34:29Z</time>
      </trkpt>
      <trkpt lat="46.10431" lon="6.70538">
        <ele>1083</ele>
        <time>2019-05-24T10:34:41Z</time>
      </trkpt>
      <trkpt lat="46.10435" lon="6.70544">
        <ele>1086</ele>
        <time>2019-05-24T10:34:42Z</time>
      </trkpt>
      <trkpt lat="46.10435" lon="6.7055">
        <ele>1087</ele>
        <time>2019-05-24T10:34:43Z</time>
      </trkpt>
      <trkpt lat="46.10432" lon="6.70557">
        <ele>1087</ele>
        <time>2019-05-24T10:34:44Z</time>
      </trkpt>
      <trkpt lat="46.10392" lon="6.70585">
        <ele>1081</ele>
        <time>2019-05-24T10:34:52Z</time>
      </trkpt>
      <trkpt lat="46.1036" lon="6.70609">
        <ele>1076</ele>
        <time>2019-05-24T10:34:58Z</time>
      </trkpt>
      <trkpt lat="46.10355" lon="6.70616">
        <ele>1075</ele>
        <time>2019-05-24T10:34:59Z</time>
      </trkpt>
      <trkpt lat="46.10351" lon="6.70629">
        <ele>1076</ele>
        <time>2019-05-24T10:35:01Z</time>
      </trkpt>
      <trkpt lat="46.10351" lon="6.70641">
        <ele>1077</ele>
        <time>2019-05-24T10:35:02Z</time>
      </trkpt>
      <trkpt lat="46.10357" lon="6.70654">
        <ele>1080</ele>
        <time>2019-05-24T10:35:04Z</time>
      </trkpt>
      <trkpt lat="46.10412" lon="6.70708">
        <ele>1094</ele>
        <time>2019-05-24T10:35:16Z</time>
      </trkpt>
      <trkpt lat="46.10425" lon="6.70743">
        <ele>1099</ele>
        <time>2019-05-24T10:35:21Z</time>
      </trkpt>
      <trkpt lat="46.10428" lon="6.70762">
        <ele>1101</ele>
        <time>2019-05-24T10:35:24Z</time>
      </trkpt>
      <trkpt lat="46.10426" lon="6.70774">
        <ele>1101</ele>
        <time>2019-05-24T10:35:25Z</time>
      </trkpt>
      <trkpt lat="46.10405" lon="6.70812">
        <ele>1100</ele>
        <time>2019-05-24T10:35:31Z</time>
      </trkpt>
      <trkpt lat="46.10374" lon="6.70893">
        <ele>1105</ele>
        <time>2019-05-24T10:35:42Z</time>
      </trkpt>
      <trkpt lat="46.10357" lon="6.70925">
        <ele>1107</ele>
        <time>2019-05-24T10:35:47Z</time>
      </trkpt>
      <trkpt lat="46.10352" lon="6.70946">
        <ele>1107</ele>
        <time>2019-05-24T10:35:50Z</time>
      </trkpt>
      <trkpt lat="46.10357" lon="6.71002">
        <ele>1109</ele>
        <time>2019-05-24T10:35:57Z</time>
      </trkpt>
      <trkpt lat="46.10356" lon="6.71021">
        <ele>1111</ele>
        <time>2019-05-24T10:35:59Z</time>
      </trkpt>
      <trkpt lat="46.10352" lon="6.71044">
        <ele>1111</ele>
        <time>2019-05-24T10:36:02Z</time>
      </trkpt>
      <trkpt lat="46.10341" lon="6.71085">
        <ele>1112</ele>
        <time>2019-05-24T10:36:08Z</time>
      </trkpt>
      <trkpt lat="46.10325" lon="6.71134">
        <ele>1115</ele>
        <time>2019-05-24T10:36:15Z</time>
      </trkpt>
      <trkpt lat="46.10316" lon="6.71156">
        <ele>1117</ele>
        <time>2019-05-24T10:36:18Z</time>
      </trkpt>
      <trkpt lat="46.1027" lon="6.71246">
        <ele>1117</ele>
        <time>2019-05-24T10:36:31Z</time>
      </trkpt>
      <trkpt lat="46.10243" lon="6.71306">
        <ele>1119</ele>
        <time>2019-05-24T10:36:40Z</time>
      </trkpt>
      <trkpt lat="46.1024" lon="6.71319">
        <ele>1120</ele>
        <time>2019-05-24T10:36:42Z</time>
      </trkpt>
      <trkpt lat="46.1024" lon="6.71326">
        <ele>1121</ele>
        <time>2019-05-24T10:36:43Z</time>
      </trkpt>
      <trkpt lat="46.10233" lon="6.71345">
        <ele>1121</ele>
        <time>2019-05-24T10:36:45Z</time>
      </trkpt>
      <trkpt lat="46.10229" lon="6.71397">
        <ele>1121</ele>
        <time>2019-05-24T10:36:52Z</time>
      </trkpt>
      <trkpt lat="46.10226" lon="6.71415">
        <ele>1121</ele>
        <time>2019-05-24T10:36:54Z</time>
      </trkpt>
      <trkpt lat="46.10189" lon="6.71556">
        <ele>1116</ele>
        <time>2019-05-24T10:37:13Z</time>
      </trkpt>
      <trkpt lat="46.10149" lon="6.71758">
        <ele>1120</ele>
        <time>2019-05-24T10:37:39Z</time>
      </trkpt>
      <trkpt lat="46.10142" lon="6.71778">
        <ele>1120</ele>
        <time>2019-05-24T10:37:42Z</time>
      </trkpt>
      <trkpt lat="46.10097" lon="6.71828">
        <ele>1115</ele>
        <time>2019-05-24T10:37:52Z</time>
      </trkpt>
      <trkpt lat="46.10083" lon="6.71841">
        <ele>1112</ele>
        <time>2019-05-24T10:37:55Z</time>
      </trkpt>
      <trkpt lat="46.10042" lon="6.71876">
        <ele>1110</ele>
        <time>2019-05-24T10:38:03Z</time>
      </trkpt>
      <trkpt lat="46.09988" lon="6.71912">
        <ele>1105</ele>
        <time>2019-05-24T10:38:14Z</time>
      </trkpt>
      <trkpt lat="46.09969" lon="6.71936">
        <ele>1103</ele>
        <time>2019-05-24T10:38:18Z</time>
      </trkpt>
      <trkpt lat="46.09937" lon="6.71959">
        <ele>1099</ele>
        <time>2019-05-24T10:38:24Z</time>
      </trkpt>
      <trkpt lat="46.09929" lon="6.71967">
        <ele>1098</ele>
        <time>2019-05-24T10:38:26Z</time>
      </trkpt>
      <trkpt lat="46.09924" lon="6.71978">
        <ele>1098</ele>
        <time>2019-05-24T10:38:28Z</time>
      </trkpt>
      <trkpt lat="46.09917" lon="6.72009">
        <ele>1098</ele>
        <time>2019-05-24T10:38:32Z</time>
      </trkpt>
      <trkpt lat="46.09913" lon="6.7202">
        <ele>1098</ele>
        <time>2019-05-24T10:38:33Z</time>
      </trkpt>
      <trkpt lat="46.09905" lon="6.72027">
        <ele>1096</ele>
        <time>2019-05-24T10:38:35Z</time>
      </trkpt>
      <trkpt lat="46.09877" lon="6.72041">
        <ele>1090</ele>
        <time>2019-05-24T10:38:40Z</time>
      </trkpt>
      <trkpt lat="46.09866" lon="6.7205">
        <ele>1088</ele>
        <time>2019-05-24T10:38:43Z</time>
      </trkpt>
      <trkpt lat="46.09843" lon="6.72081">
        <ele>1083</ele>
        <time>2019-05-24T10:38:48Z</time>
      </trkpt>
      <trkpt lat="46.09836" lon="6.72095">
        <ele>1082</ele>
        <time>2019-05-24T10:38:50Z</time>
      </trkpt>
      <trkpt lat="46.09827" lon="6.72118">
        <ele>1079</ele>
        <time>2019-05-24T10:38:54Z</time>
      </trkpt>
      <trkpt lat="46.09815" lon="6.72101">
        <ele>1076</ele>
        <time>2019-05-24T10:38:57Z</time>
      </trkpt>
      <trkpt lat="46.09811" lon="6.72088">
        <ele>1075</ele>
        <time>2019-05-24T10:38:58Z</time>
      </trkpt>
      <trkpt lat="46.09808" lon="6.72055">
        <ele>1074</ele>
        <time>2019-05-24T10:39:02Z</time>
      </trkpt>
      <trkpt lat="46.09809" lon="6.72034">
        <ele>1073</ele>
        <time>2019-05-24T10:39:05Z</time>
      </trkpt>
      <trkpt lat="46.09817" lon="6.72005">
        <ele>1075</ele>
        <time>2019-05-24T10:39:09Z</time>
      </trkpt>
      <trkpt lat="46.09818" lon="6.71993">
        <ele>1075</ele>
        <time>2019-05-24T10:39:10Z</time>
      </trkpt>
      <trkpt lat="46.09816" lon="6.71988">
        <ele>1074</ele>
        <time>2019-05-24T10:39:11Z</time>
      </trkpt>
      <trkpt lat="46.0981" lon="6.71981">
        <ele>1072</ele>
        <time>2019-05-24T10:39:12Z</time>
      </trkpt>
      <trkpt lat="46.09803" lon="6.71979">
        <ele>1070</ele>
        <time>2019-05-24T10:39:14Z</time>
      </trkpt>
      <trkpt lat="46.09796" lon="6.71982">
        <ele>1068</ele>
        <time>2019-05-24T10:39:15Z</time>
      </trkpt>
      <trkpt lat="46.0979" lon="6.71992">
        <ele>1067</ele>
        <time>2019-05-24T10:39:17Z</time>
      </trkpt>
      <trkpt lat="46.09779" lon="6.72023">
        <ele>1065</ele>
        <time>2019-05-24T10:39:21Z</time>
      </trkpt>
      <trkpt lat="46.09764" lon="6.72053">
        <ele>1062</ele>
        <time>2019-05-24T10:39:26Z</time>
      </trkpt>
      <trkpt lat="46.09745" lon="6.72114">
        <ele>1059</ele>
        <time>2019-05-24T10:39:34Z</time>
      </trkpt>
      <trkpt lat="46.09734" lon="6.72133">
        <ele>1059</ele>
        <time>2019-05-24T10:39:37Z</time>
      </trkpt>
      <trkpt lat="46.09724" lon="6.72143">
        <ele>1059</ele>
        <time>2019-05-24T10:39:39Z</time>
      </trkpt>
      <trkpt lat="46.09704" lon="6.72157">
        <ele>1059</ele>
        <time>2019-05-24T10:39:43Z</time>
      </trkpt>
      <trkpt lat="46.0969" lon="6.7216">
        <ele>1059</ele>
        <time>2019-05-24T10:39:45Z</time>
      </trkpt>
      <trkpt lat="46.09683" lon="6.72157">
        <ele>1058</ele>
        <time>2019-05-24T10:39:47Z</time>
      </trkpt>
      <trkpt lat="46.09681" lon="6.72152">
        <ele>1058</ele>
        <time>2019-05-24T10:39:47Z</time>
      </trkpt>
      <trkpt lat="46.09679" lon="6.72117">
        <ele>1054</ele>
        <time>2019-05-24T10:39:52Z</time>
      </trkpt>
      <trkpt lat="46.09669" lon="6.72092">
        <ele>1051</ele>
        <time>2019-05-24T10:39:55Z</time>
      </trkpt>
      <trkpt lat="46.09661" lon="6.72085">
        <ele>1050</ele>
        <time>2019-05-24T10:39:57Z</time>
      </trkpt>
      <trkpt lat="46.09655" lon="6.72083">
        <ele>1049</ele>
        <time>2019-05-24T10:39:58Z</time>
      </trkpt>
      <trkpt lat="46.09599" lon="6.72072">
        <ele>1044</ele>
        <time>2019-05-24T10:40:08Z</time>
      </trkpt>
      <trkpt lat="46.09585" lon="6.72071">
        <ele>1043</ele>
        <time>2019-05-24T10:40:11Z</time>
      </trkpt>
      <trkpt lat="46.09559" lon="6.72081">
        <ele>1041</ele>
        <time>2019-05-24T10:40:15Z</time>
      </trkpt>
      <trkpt lat="46.09537" lon="6.72075">
        <ele>1036</ele>
        <time>2019-05-24T10:40:19Z</time>
      </trkpt>
      <trkpt lat="46.09525" lon="6.72074">
        <ele>1034</ele>
        <time>2019-05-24T10:40:22Z</time>
      </trkpt>
      <trkpt lat="46.09515" lon="6.72076">
        <ele>1033</ele>
        <time>2019-05-24T10:40:23Z</time>
      </trkpt>
      <trkpt lat="46.09502" lon="6.72082">
        <ele>1032</ele>
        <time>2019-05-24T10:40:26Z</time>
      </trkpt>
      <trkpt lat="46.09491" lon="6.72091">
        <ele>1031</ele>
        <time>2019-05-24T10:40:28Z</time>
      </trkpt>
      <trkpt lat="46.09484" lon="6.72092">
        <ele>1029</ele>
        <time>2019-05-24T10:40:29Z</time>
      </trkpt>
      <trkpt lat="46.09482" lon="6.7209">
        <ele>1028</ele>
        <time>2019-05-24T10:40:30Z</time>
      </trkpt>
      <trkpt lat="46.09478" lon="6.7208">
        <ele>1025</ele>
        <time>2019-05-24T10:40:31Z</time>
      </trkpt>
      <trkpt lat="46.09477" lon="6.72073">
        <ele>1023</ele>
        <time>2019-05-24T10:40:32Z</time>
      </trkpt>
      <trkpt lat="46.09481" lon="6.72062">
        <ele>1022</ele>
        <time>2019-05-24T10:40:34Z</time>
      </trkpt>
      <trkpt lat="46.09512" lon="6.7203">
        <ele>1022</ele>
        <time>2019-05-24T10:40:40Z</time>
      </trkpt>
      <trkpt lat="46.09521" lon="6.72024">
        <ele>1023</ele>
        <time>2019-05-24T10:40:42Z</time>
      </trkpt>
      <trkpt lat="46.09538" lon="6.72018">
        <ele>1024</ele>
        <time>2019-05-24T10:40:45Z</time>
      </trkpt>
      <trkpt lat="46.09564" lon="6.72013">
        <ele>1027</ele>
        <time>2019-05-24T10:40:50Z</time>
      </trkpt>
      <trkpt lat="46.09568" lon="6.72011">
        <ele>1027</ele>
        <time>2019-05-24T10:40:51Z</time>
      </trkpt>
      <trkpt lat="46.09572" lon="6.72004">
        <ele>1026</ele>
        <time>2019-05-24T10:40:52Z</time>
      </trkpt>
      <trkpt lat="46.09574" lon="6.71987">
        <ele>1023</ele>
        <time>2019-05-24T10:40:54Z</time>
      </trkpt>
      <trkpt lat="46.09566" lon="6.71971">
        <ele>1019</ele>
        <time>2019-05-24T10:40:56Z</time>
      </trkpt>
      <trkpt lat="46.0955" lon="6.71954">
        <ele>1013</ele>
        <time>2019-05-24T10:41:00Z</time>
      </trkpt>
      <trkpt lat="46.09539" lon="6.71951">
        <ele>1010</ele>
        <time>2019-05-24T10:41:02Z</time>
      </trkpt>
      <trkpt lat="46.09505" lon="6.71962">
        <ele>1007</ele>
        <time>2019-05-24T10:41:08Z</time>
      </trkpt>
      <trkpt lat="46.09456" lon="6.71987">
        <ele>997</ele>
        <time>2019-05-24T10:41:17Z</time>
      </trkpt>
      <trkpt lat="46.0942" lon="6.72017">
        <ele>992</ele>
        <time>2019-05-24T10:41:25Z</time>
      </trkpt>
      <trkpt lat="46.09401" lon="6.72038">
        <ele>992</ele>
        <time>2019-05-24T10:41:29Z</time>
      </trkpt>
      <trkpt lat="46.09322" lon="6.72097">
        <ele>980</ele>
        <time>2019-05-24T10:41:45Z</time>
      </trkpt>
      <trkpt lat="46.09312" lon="6.72109">
        <ele>978</ele>
        <time>2019-05-24T10:41:47Z</time>
      </trkpt>
      <trkpt lat="46.09278" lon="6.72155">
        <ele>975</ele>
        <time>2019-05-24T10:41:55Z</time>
      </trkpt>
      <trkpt lat="46.09258" lon="6.72189">
        <ele>973</ele>
        <time>2019-05-24T10:42:01Z</time>
      </trkpt>
      <trkpt lat="46.0925" lon="6.72208">
        <ele>973</ele>
        <time>2019-05-24T10:42:04Z</time>
      </trkpt>
      <trkpt lat="46.09235" lon="6.72257">
        <ele>973</ele>
        <time>2019-05-24T10:42:10Z</time>
      </trkpt>
      <trkpt lat="46.09226" lon="6.72278">
        <ele>972</ele>
        <time>2019-05-24T10:42:13Z</time>
      </trkpt>
      <trkpt lat="46.09199" lon="6.72318">
        <ele>965</ele>
        <time>2019-05-24T10:42:20Z</time>
      </trkpt>
      <trkpt lat="46.09173" lon="6.72381">
        <ele>962</ele>
        <time>2019-05-24T10:42:29Z</time>
      </trkpt>
      <trkpt lat="46.09123" lon="6.72482">
        <ele>951</ele>
        <time>2019-05-24T10:42:45Z</time>
      </trkpt>
      <trkpt lat="46.09106" lon="6.72513">
        <ele>946</ele>
        <time>2019-05-24T10:42:49Z</time>
      </trkpt>
      <trkpt lat="46.0909" lon="6.72565">
        <ele>944</ele>
        <time>2019-05-24T10:42:56Z</time>
      </trkpt>
      <trkpt lat="46.09073" lon="6.7264">
        <ele>943</ele>
        <time>2019-05-24T10:43:06Z</time>
      </trkpt>
      <trkpt lat="46.09068" lon="6.7265">
        <ele>941</ele>
        <time>2019-05-24T10:43:08Z</time>
      </trkpt>
      <trkpt lat="46.09064" lon="6.72653">
        <ele>940</ele>
        <time>2019-05-24T10:43:09Z</time>
      </trkpt>
      <trkpt lat="46.09061" lon="6.7265">
        <ele>938</ele>
        <time>2019-05-24T10:43:09Z</time>
      </trkpt>
      <trkpt lat="46.09064" lon="6.72653">
        <ele>940</ele>
        <time>2019-05-24T10:43:10Z</time>
      </trkpt>
      <trkpt lat="46.09051" lon="6.72655">
        <ele>934</ele>
        <time>2019-05-24T10:43:12Z</time>
      </trkpt>
      <trkpt lat="46.09044" lon="6.72659">
        <ele>931</ele>
        <time>2019-05-24T10:43:13Z</time>
      </trkpt>
      <trkpt lat="46.09038" lon="6.72671">
        <ele>929</ele>
        <time>2019-05-24T10:43:15Z</time>
      </trkpt>
      <trkpt lat="46.09036" lon="6.72685">
        <ele>927</ele>
        <time>2019-05-24T10:43:17Z</time>
      </trkpt>
      <trkpt lat="46.09036" lon="6.72692">
        <ele>926</ele>
        <time>2019-05-24T10:43:18Z</time>
      </trkpt>
      <trkpt lat="46.09042" lon="6.72714">
        <ele>928</ele>
        <time>2019-05-24T10:43:21Z</time>
      </trkpt>
      <trkpt lat="46.09064" lon="6.72759">
        <ele>935</ele>
        <time>2019-05-24T10:43:28Z</time>
      </trkpt>
      <trkpt lat="46.09066" lon="6.72766">
        <ele>936</ele>
        <time>2019-05-24T10:43:29Z</time>
      </trkpt>
      <trkpt lat="46.09065" lon="6.72803">
        <ele>934</ele>
        <time>2019-05-24T10:43:33Z</time>
      </trkpt>
      <trkpt lat="46.09076" lon="6.72847">
        <ele>938</ele>
        <time>2019-05-24T10:43:39Z</time>
      </trkpt>
      <trkpt lat="46.09075" lon="6.7286">
        <ele>938</ele>
        <time>2019-05-24T10:43:41Z</time>
      </trkpt>
      <trkpt lat="46.09068" lon="6.72878">
        <ele>934</ele>
        <time>2019-05-24T10:43:43Z</time>
      </trkpt>
      <trkpt lat="46.09054" lon="6.72935">
        <ele>927</ele>
        <time>2019-05-24T10:43:51Z</time>
      </trkpt>
      <trkpt lat="46.09048" lon="6.72954">
        <ele>924</ele>
        <time>2019-05-24T10:43:53Z</time>
      </trkpt>
      <trkpt lat="46.0901" lon="6.73041">
        <ele>911</ele>
        <time>2019-05-24T10:44:06Z</time>
      </trkpt>
      <trkpt lat="46.08998" lon="6.73054">
        <ele>907</ele>
        <time>2019-05-24T10:44:08Z</time>
      </trkpt>
      <trkpt lat="46.08964" lon="6.73069">
        <ele>899</ele>
        <time>2019-05-24T10:44:15Z</time>
      </trkpt>
      <trkpt lat="46.08957" lon="6.73077">
        <ele>899</ele>
        <time>2019-05-24T10:44:16Z</time>
      </trkpt>
      <trkpt lat="46.08932" lon="6.73119">
        <ele>903</ele>
        <time>2019-05-24T10:44:23Z</time>
      </trkpt>
      <trkpt lat="46.08924" lon="6.73124">
        <ele>903</ele>
        <time>2019-05-24T10:44:25Z</time>
      </trkpt>
      <trkpt lat="46.08915" lon="6.73123">
        <ele>900</ele>
        <time>2019-05-24T10:44:26Z</time>
      </trkpt>
      <trkpt lat="46.08896" lon="6.73112">
        <ele>893</ele>
        <time>2019-05-24T10:44:30Z</time>
      </trkpt>
      <trkpt lat="46.08882" lon="6.73109">
        <ele>889</ele>
        <time>2019-05-24T10:44:33Z</time>
      </trkpt>
      <trkpt lat="46.08864" lon="6.73114">
        <ele>886</ele>
        <time>2019-05-24T10:44:36Z</time>
      </trkpt>
      <trkpt lat="46.08834" lon="6.73113">
        <ele>879</ele>
        <time>2019-05-24T10:44:41Z</time>
      </trkpt>
      <trkpt lat="46.08816" lon="6.73116">
        <ele>872</ele>
        <time>2019-05-24T10:44:44Z</time>
      </trkpt>
      <trkpt lat="46.08804" lon="6.73112">
        <ele>867</ele>
        <time>2019-05-24T10:44:47Z</time>
      </trkpt>
      <trkpt lat="46.08799" lon="6.73104">
        <ele>865</ele>
        <time>2019-05-24T10:44:48Z</time>
      </trkpt>
      <trkpt lat="46.08799" lon="6.73092">
        <ele>865</ele>
        <time>2019-05-24T10:44:49Z</time>
      </trkpt>
      <trkpt lat="46.08802" lon="6.73083">
        <ele>865</ele>
        <time>2019-05-24T10:44:51Z</time>
      </trkpt>
      <trkpt lat="46.08805" lon="6.7308">
        <ele>866</ele>
        <time>2019-05-24T10:44:51Z</time>
      </trkpt>
      <trkpt lat="46.08813" lon="6.73079">
        <ele>868</ele>
        <time>2019-05-24T10:44:53Z</time>
      </trkpt>
      <trkpt lat="46.08833" lon="6.73081">
        <ele>875</ele>
        <time>2019-05-24T10:44:56Z</time>
      </trkpt>
      <trkpt lat="46.08842" lon="6.73078">
        <ele>876</ele>
        <time>2019-05-24T10:44:58Z</time>
      </trkpt>
      <trkpt lat="46.08849" lon="6.73071">
        <ele>875</ele>
        <time>2019-05-24T10:44:59Z</time>
      </trkpt>
      <trkpt lat="46.08856" lon="6.73059">
        <ele>874</ele>
        <time>2019-05-24T10:45:01Z</time>
      </trkpt>
      <trkpt lat="46.08874" lon="6.73011">
        <ele>867</ele>
        <time>2019-05-24T10:45:08Z</time>
      </trkpt>
      <trkpt lat="46.08878" lon="6.72993">
        <ele>865</ele>
        <time>2019-05-24T10:45:10Z</time>
      </trkpt>
      <trkpt lat="46.08881" lon="6.72975">
        <ele>864</ele>
        <time>2019-05-24T10:45:13Z</time>
      </trkpt>
      <trkpt lat="46.08889" lon="6.72864">
        <ele>855</ele>
        <time>2019-05-24T10:45:26Z</time>
      </trkpt>
      <trkpt lat="46.08889" lon="6.72813">
        <ele>853</ele>
        <time>2019-05-24T10:45:33Z</time>
      </trkpt>
      <trkpt lat="46.08887" lon="6.72773">
        <ele>853</ele>
        <time>2019-05-24T10:45:38Z</time>
      </trkpt>
      <trkpt lat="46.0888" lon="6.72722">
        <ele>853</ele>
        <time>2019-05-24T10:45:44Z</time>
      </trkpt>
      <trkpt lat="46.08874" lon="6.72699">
        <ele>851</ele>
        <time>2019-05-24T10:45:47Z</time>
      </trkpt>
      <trkpt lat="46.08842" lon="6.72613">
        <ele>837</ele>
        <time>2019-05-24T10:45:59Z</time>
      </trkpt>
      <trkpt lat="46.08838" lon="6.72595">
        <ele>835</ele>
        <time>2019-05-24T10:46:02Z</time>
      </trkpt>
      <trkpt lat="46.08838" lon="6.72577">
        <ele>834</ele>
        <time>2019-05-24T10:46:04Z</time>
      </trkpt>
      <trkpt lat="46.0884" lon="6.7256">
        <ele>832</ele>
        <time>2019-05-24T10:46:06Z</time>
      </trkpt>
      <trkpt lat="46.08862" lon="6.72507">
        <ele>832</ele>
        <time>2019-05-24T10:46:14Z</time>
      </trkpt>
      <trkpt lat="46.08871" lon="6.72473">
        <ele>831</ele>
        <time>2019-05-24T10:46:18Z</time>
      </trkpt>
      <trkpt lat="46.0888" lon="6.72409">
        <ele>827</ele>
        <time>2019-05-24T10:46:26Z</time>
      </trkpt>
      <trkpt lat="46.08888" lon="6.72379">
        <ele>826</ele>
        <time>2019-05-24T10:46:30Z</time>
      </trkpt>
      <trkpt lat="46.08889" lon="6.72367">
        <ele>825</ele>
        <time>2019-05-24T10:46:32Z</time>
      </trkpt>
      <trkpt lat="46.08887" lon="6.7236">
        <ele>824</ele>
        <time>2019-05-24T10:46:32Z</time>
      </trkpt>
      <trkpt lat="46.08882" lon="6.72349">
        <ele>821</ele>
        <time>2019-05-24T10:46:34Z</time>
      </trkpt>
      <trkpt lat="46.0889" lon="6.72332">
        <ele>822</ele>
        <time>2019-05-24T10:46:37Z</time>
      </trkpt>
      <trkpt lat="46.08907" lon="6.72264">
        <ele>822</ele>
        <time>2019-05-24T10:46:46Z</time>
      </trkpt>
      <trkpt lat="46.08913" lon="6.72246">
        <ele>823</ele>
        <time>2019-05-24T10:46:48Z</time>
      </trkpt>
      <trkpt lat="46.08956" lon="6.72142">
        <ele>832</ele>
        <time>2019-05-24T10:47:03Z</time>
      </trkpt>
      <trkpt lat="46.08972" lon="6.72093">
        <ele>835</ele>
        <time>2019-05-24T10:47:10Z</time>
      </trkpt>
      <trkpt lat="46.08991" lon="6.72022">
        <ele>834</ele>
        <time>2019-05-24T10:47:19Z</time>
      </trkpt>
      <trkpt lat="46.09011" lon="6.71945">
        <ele>833</ele>
        <time>2019-05-24T10:47:29Z</time>
      </trkpt>
      <trkpt lat="46.09019" lon="6.71903">
        <ele>832</ele>
        <time>2019-05-24T10:47:35Z</time>
      </trkpt>
      <trkpt lat="46.09028" lon="6.71821">
        <ele>827</ele>
        <time>2019-05-24T10:47:45Z</time>
      </trkpt>
      <trkpt lat="46.09036" lon="6.71788">
        <ele>826</ele>
        <time>2019-05-24T10:47:49Z</time>
      </trkpt>
      <trkpt lat="46.09054" lon="6.71736">
        <ele>827</ele>
        <time>2019-05-24T10:47:56Z</time>
      </trkpt>
      <trkpt lat="46.09105" lon="6.71606">
        <ele>832</ele>
        <time>2019-05-24T10:48:15Z</time>
      </trkpt>
      <trkpt lat="46.09128" lon="6.71536">
        <ele>835</ele>
        <time>2019-05-24T10:48:24Z</time>
      </trkpt>
      <trkpt lat="46.09132" lon="6.71519">
        <ele>835</ele>
        <time>2019-05-24T10:48:26Z</time>
      </trkpt>
      <trkpt lat="46.09133" lon="6.71502">
        <ele>834</ele>
        <time>2019-05-24T10:48:29Z</time>
      </trkpt>
      <trkpt lat="46.0913" lon="6.71482">
        <ele>832</ele>
        <time>2019-05-24T10:48:31Z</time>
      </trkpt>
      <trkpt lat="46.09125" lon="6.71472">
        <ele>830</ele>
        <time>2019-05-24T10:48:33Z</time>
      </trkpt>
      <trkpt lat="46.09109" lon="6.71451">
        <ele>826</ele>
        <time>2019-05-24T10:48:36Z</time>
      </trkpt>
      <trkpt lat="46.09104" lon="6.71436">
        <ele>825</ele>
        <time>2019-05-24T10:48:39Z</time>
      </trkpt>
      <trkpt lat="46.09103" lon="6.71428">
        <ele>824</ele>
        <time>2019-05-24T10:48:40Z</time>
      </trkpt>
      <trkpt lat="46.09106" lon="6.71406">
        <ele>824</ele>
        <time>2019-05-24T10:48:42Z</time>
      </trkpt>
      <trkpt lat="46.09126" lon="6.7135">
        <ele>826</ele>
        <time>2019-05-24T10:48:50Z</time>
      </trkpt>
      <trkpt lat="46.09135" lon="6.71312">
        <ele>826</ele>
        <time>2019-05-24T10:48:55Z</time>
      </trkpt>
      <trkpt lat="46.09127" lon="6.71326">
        <ele>825</ele>
        <time>2019-05-24T10:48:57Z</time>
      </trkpt>
      <trkpt lat="46.09098" lon="6.7135">
        <ele>820</ele>
        <time>2019-05-24T10:49:03Z</time>
      </trkpt>
      <trkpt lat="46.09027" lon="6.71407">
        <ele>808</ele>
        <time>2019-05-24T10:49:18Z</time>
      </trkpt>
      <trkpt lat="46.09016" lon="6.71418">
        <ele>805</ele>
        <time>2019-05-24T10:49:20Z</time>
      </trkpt>
      <trkpt lat="46.09007" lon="6.71433">
        <ele>803</ele>
        <time>2019-05-24T10:49:22Z</time>
      </trkpt>
      <trkpt lat="46.09002" lon="6.71446">
        <ele>802</ele>
        <time>2019-05-24T10:49:24Z</time>
      </trkpt>
      <trkpt lat="46.08987" lon="6.71529">
        <ele>797</ele>
        <time>2019-05-24T10:49:35Z</time>
      </trkpt>
      <trkpt lat="46.0898" lon="6.71548">
        <ele>795</ele>
        <time>2019-05-24T10:49:38Z</time>
      </trkpt>
      <trkpt lat="46.08914" lon="6.71651">
        <ele>780</ele>
        <time>2019-05-24T10:49:55Z</time>
      </trkpt>
      <trkpt lat="46.08902" lon="6.71665">
        <ele>777</ele>
        <time>2019-05-24T10:49:58Z</time>
      </trkpt>
      <trkpt lat="46.0888" lon="6.71684">
        <ele>770</ele>
        <time>2019-05-24T10:50:02Z</time>
      </trkpt>
      <trkpt lat="46.08876" lon="6.71689">
        <ele>769</ele>
        <time>2019-05-24T10:50:03Z</time>
      </trkpt>
      <trkpt lat="46.08869" lon="6.71705">
        <ele>768</ele>
        <time>2019-05-24T10:50:05Z</time>
      </trkpt>
      <trkpt lat="46.08844" lon="6.71801">
        <ele>763</ele>
        <time>2019-05-24T10:50:18Z</time>
      </trkpt>
      <trkpt lat="46.08807" lon="6.71963">
        <ele>756</ele>
        <time>2019-05-24T10:50:39Z</time>
      </trkpt>
      <trkpt lat="46.08801" lon="6.71986">
        <ele>755</ele>
        <time>2019-05-24T10:50:42Z</time>
      </trkpt>
      <trkpt lat="46.08791" lon="6.72008">
        <ele>753</ele>
        <time>2019-05-24T10:50:45Z</time>
      </trkpt>
      <trkpt lat="46.08731" lon="6.72122">
        <ele>740</ele>
        <time>2019-05-24T10:51:03Z</time>
      </trkpt>
      <trkpt lat="46.08721" lon="6.72138">
        <ele>739</ele>
        <time>2019-05-24T10:51:06Z</time>
      </trkpt>
      <trkpt lat="46.08644" lon="6.72226">
        <ele>728</ele>
        <time>2019-05-24T10:51:23Z</time>
      </trkpt>
      <trkpt lat="46.08631" lon="6.72236">
        <ele>727</ele>
        <time>2019-05-24T10:51:26Z</time>
      </trkpt>
      <trkpt lat="46.08616" lon="6.72245">
        <ele>725</ele>
        <time>2019-05-24T10:51:29Z</time>
      </trkpt>
      <trkpt lat="46.08573" lon="6.72256">
        <ele>718</ele>
        <time>2019-05-24T10:51:37Z</time>
      </trkpt>
      <trkpt lat="46.08551" lon="6.72259">
        <ele>714</ele>
        <time>2019-05-24T10:51:40Z</time>
      </trkpt>
      <trkpt lat="46.08534" lon="6.72266">
        <ele>712</ele>
        <time>2019-05-24T10:51:44Z</time>
      </trkpt>
      <trkpt lat="46.0852" lon="6.72279">
        <ele>710</ele>
        <time>2019-05-24T10:51:47Z</time>
      </trkpt>
      <trkpt lat="46.08448" lon="6.72385">
        <ele>708</ele>
        <time>2019-05-24T10:52:05Z</time>
      </trkpt>
      <trkpt lat="46.08442" lon="6.72394">
        <ele>708</ele>
        <time>2019-05-24T10:52:06Z</time>
      </trkpt>
      <trkpt lat="46.08428" lon="6.72384">
        <ele>706</ele>
        <time>2019-05-24T10:52:09Z</time>
      </trkpt>
      <trkpt lat="46.08428" lon="6.7227">
        <ele>702</ele>
        <time>2019-05-24T10:52:23Z</time>
      </trkpt>
      <trkpt lat="46.08425" lon="6.72263">
        <ele>702</ele>
        <time>2019-05-24T10:52:24Z</time>
      </trkpt>
      <trkpt lat="46.08415" lon="6.72249">
        <ele>701</ele>
        <time>2019-05-24T10:52:27Z</time>
      </trkpt>
      <trkpt lat="46.08339" lon="6.72191">
        <ele>698</ele>
        <time>2019-05-24T10:52:42Z</time>
      </trkpt>
      <trkpt lat="46.08228" lon="6.72384">
        <ele>700</ele>
        <time>2019-05-24T10:53:13Z</time>
      </trkpt>
      <trkpt lat="46.08227" lon="6.72393">
        <ele>700</ele>
        <time>2019-05-24T10:53:14Z</time>
      </trkpt>
      <trkpt lat="46.08228" lon="6.72401">
        <ele>700</ele>
        <time>2019-05-24T10:53:15Z</time>
      </trkpt>
      <trkpt lat="46.08226" lon="6.72404">
        <ele>701</ele>
        <time>2019-05-24T10:53:16Z</time>
      </trkpt>
      <trkpt lat="46.08065" lon="6.72698">
        <ele>705</ele>
        <time>2019-05-24T10:54:02Z</time>
      </trkpt>
      <trkpt lat="46.08062" lon="6.72696">
        <ele>705</ele>
        <time>2019-05-24T10:54:02Z</time>
      </trkpt>
      <trkpt lat="46.08053" lon="6.72697">
        <ele>705</ele>
        <time>2019-05-24T10:54:04Z</time>
      </trkpt>
      <trkpt lat="46.08046" lon="6.72683">
        <ele>705</ele>
        <time>2019-05-24T10:54:06Z</time>
      </trkpt>
      <trkpt lat="46.08031" lon="6.72661">
        <ele>704</ele>
        <time>2019-05-24T10:54:10Z</time>
      </trkpt>
      <trkpt lat="46.08016" lon="6.72647">
        <ele>704</ele>
        <time>2019-05-24T10:54:13Z</time>
      </trkpt>
      <trkpt lat="46.07907" lon="6.72566">
        <ele>703</ele>
        <time>2019-05-24T10:54:35Z</time>
      </trkpt>
      <trkpt lat="46.0788" lon="6.72552">
        <ele>703</ele>
        <time>2019-05-24T10:54:40Z</time>
      </trkpt>
      <trkpt lat="46.07863" lon="6.72539">
        <ele>703</ele>
        <time>2019-05-24T10:54:44Z</time>
      </trkpt>
      <trkpt lat="46.07842" lon="6.72593">
        <ele>704</ele>
        <time>2019-05-24T10:54:51Z</time>
      </trkpt>
    </trkseg>
  </trk>
</gpx>